[[[{"header":{"parameterUnit":"kt","parameterCategory":2,"dx":1,"dy":1,"la1":29.285339999999998,"la2":30.599998999999997,"lo1":-89.70041500000002,"lo2":-87.6738589999976,"nx":112,"ny":82,"refTime":"2022-10-23T12:00:00:Z","depth":0,"parameterNumber":1,"parameterNumberName":"U-component_of_WINDS"},"data":[-14.6116,-14.7013,0.0,-13.3702,-13.0711,0.0,-11.4186,0.0,-11.3363,0.0,0.0,0.0,0.0,0.0,0.0,0.0,0.0,0.0,0.0,0.0,0.0,0.0,0.0,0.0,0.0,0.0,0.0,0.0,0.0,0.0,0.0,0.0,-15.7631,-15.7631,-15.7631,-15.7631,-15.7631,-15.7631,-15.7631,-15.7706,-16.0922,-16.2492,-16.2641,-16.5857,-16.7352,-16.7352,-16.7352,-16.7352,-16.7352,-16.7352,-16.7352,-16.7352,-16.7352,-16.7352,-16.7114,-16.5421,-16.37,-16.2092,-16.0361,-16.0653,-16.1595,-16.0772,-16.1928,-16.3242,-16.117,-16.1112,-16.1499,-16.0187,-15.9757,-15.9757,-15.9757,-15.9757,-15.9757,-15.9757,-15.9757,-15.9757,-15.9757,-15.9757,-15.9757,-15.9757,-15.9757,-15.9757,-15.9757,-15.9757,-15.9757,-15.9757,-15.9757,-15.9757,-15.9757,-15.9757,-15.9757,-15.9757,-15.6974,-15.462,-15.3478,-15.148,-15.0208,-15.0208,-15.0778,-15.1195,-15.1195,-15.1694,-15.2765,-15.4406,-15.4406,-15.569,-15.8259,-15.8259,-15.8758,-15.9757,-15.9757,-15.9757,0.0,0.0,-14.0133,-12.5851,0.0,0.0,0.0,-10.5063,-10.5511,-10.1678,-10.439,0.0,0.0,0.0,0.0,0.0,0.0,0.0,0.0,0.0,0.0,0.0,0.0,0.0,0.0,0.0,0.0,0.0,0.0,0.0,0.0,-15.7332,-15.7631,-15.7631,-15.7631,-15.7631,-15.7631,-15.7631,-15.793,-15.8454,-16.1221,-16.2791,-16.3464,-16.6156,-16.7053,-16.6605,-16.7128,-16.7053,-16.6605,-16.7128,-16.7352,-16.7352,-16.7352,-16.7352,-16.7114,-16.5461,-16.4326,-16.3291,-16.0712,-16.0361,-16.0937,-16.0063,-16.0937,-16.2092,-16.03,-16.0422,-16.0878,-16.0,-15.9757,-15.9757,-15.9757,-15.9757,-15.9757,-15.9757,-15.9757,-15.9757,-15.9757,-15.9757,-15.9757,-15.9757,-15.9757,-15.9757,-15.9757,-15.9757,-15.9757,-15.9757,-15.9757,-15.9757,-15.9757,-15.9757,-15.9615,-15.9044,-15.6689,-15.4905,-15.4334,-15.1837,-15.0208,-15.0208,-15.0208,-15.0208,-15.0208,-15.0208,-15.1052,-15.2765,-15.3336,-15.4549,-15.6689,-15.7759,-15.8473,-15.8972,-15.9543,-15.9757,-13.5198,0.0,-13.116,-11.4955,-11.2092,-11.0746,-10.095,-10.1025,-10.2819,-10.1229,-10.3492,-10.5212,0.0,0.0,0.0,0.0,0.0,0.0,0.0,0.0,0.0,0.0,0.0,0.0,0.0,0.0,0.0,0.0,0.0,0.0,-15.4341,-15.6734,-15.7631,-15.7631,-15.7631,-15.7631,-15.7631,-15.7631,-15.8454,-16.0024,-16.1669,-16.3314,-16.5109,-16.6605,-16.653,-16.5184,-16.6679,-16.653,-16.5259,-16.6754,-16.7352,-16.7352,-16.7352,-16.7352,-16.7081,-16.4709,-16.3726,-16.3291,-16.0759,-15.9884,-15.9757,-15.9757,-15.9757,-15.9757,-15.9757,-15.9757,-15.9757,-15.9757,-15.9757,-15.9757,-15.9757,-15.9757,-15.9757,-15.9757,-15.9757,-15.9757,-15.9757,-15.9757,-15.9757,-15.9757,-15.9757,-15.9757,-15.9757,-15.9757,-15.9757,-15.9757,-15.9757,-15.9757,-15.9757,-15.9757,-15.9186,-15.7617,-15.6047,-15.4477,-15.2907,-15.1266,-15.0208,-15.0208,-15.0208,-15.0208,-15.0208,-15.0208,-15.1052,-15.2693,-15.4192,-15.4977,-15.5048,-15.8116,-15.8901,-15.7474,-15.9044,-15.9757,-12.4281,-12.4281,-12.4206,-11.4933,-11.2989,-11.1344,-10.3791,-10.095,-10.0053,-10.0706,-10.0726,0.0,0.0,0.0,0.0,0.0,0.0,0.0,0.0,0.0,0.0,0.0,0.0,0.0,0.0,0.0,0.0,0.0,0.0,0.0,-15.636,-15.7407,-15.7631,-15.7631,-15.7631,-15.7631,-15.7631,-15.7631,-15.8454,-15.9949,-16.0473,-16.2193,-16.5034,-16.5483,-16.6081,-16.6754,-16.7203,-16.7128,-16.6754,-16.7203,-16.7352,-16.7352,-16.7352,-16.7352,-16.7288,-16.6553,-16.5218,-16.3582,-16.284,-16.1385,-15.9757,-15.9757,-15.9757,-15.9757,-15.9757,-15.9757,-15.9757,-15.9757,-15.9757,-15.9757,-15.9757,-15.9757,-15.9757,-15.9757,-15.9757,-15.9757,-15.9757,-15.9757,-15.9757,-15.9757,-15.9757,-15.9757,-15.9757,-15.9757,-15.9757,-15.9757,-15.9757,-15.9757,-15.9757,-15.9757,-15.9186,-15.7617,-15.6047,-15.4477,-15.2907,-15.1266,-15.0208,-15.0208,-15.0208,-15.0208,-15.0208,-15.0208,-15.0422,-15.0981,-15.1409,-15.2194,-15.3407,-15.5405,-15.676,-15.7474,-15.9044,-15.9757,-11.9495,-11.957,-12.0168,-11.2241,-11.2316,-11.2017,-10.3343,-10.095,-10.0426,-9.9978,0.0,0.0,0.0,0.0,0.0,0.0,-10.9325,0.0,0.0,0.0,0.0,0.0,0.0,0.0,0.0,0.0,0.0,0.0,0.0,-14.6116,-15.6061,-15.7257,-15.7631,-15.7631,-15.7631,-15.7631,-15.7631,-15.7631,-15.8454,-15.9949,-16.0697,-16.2417,-16.5034,-16.5707,-16.6156,-16.6455,-16.7053,-16.6979,-16.6455,-16.7128,-16.7352,-16.7352,-16.7352,-16.7352,-16.7288,-16.6768,-16.53,-16.3582,-16.3042,-16.1555,-15.9757,-15.9757,-15.9757,-15.9757,-15.9757,-15.9757,-15.9757,-15.9757,-15.9757,-15.9757,-15.9757,-15.9757,-15.9757,-15.9757,-15.9757,-15.9757,-15.9757,-15.9757,-15.9757,-15.9757,-15.9757,-15.9757,-15.9757,-15.9757,-15.9757,-15.9757,-15.9757,-15.9757,-15.9757,-15.9757,-15.9186,-15.7617,-15.6047,-15.4477,-15.2907,-15.1266,-15.0208,-15.0208,-15.0208,-15.0208,-15.0208,-15.0208,-15.0208,-15.0208,-15.0981,-15.148,-15.1766,-15.4691,-15.619,-15.6546,-15.8758,-15.9757,-11.7326,-11.6429,-11.6676,-10.8054,-10.9998,-11.1643,-10.252,0.0,-10.3717,-10.1997,0.0,-10.1847,-10.3398,0.0,0.0,0.0,0.0,0.0,-11.7625,0.0,0.0,0.0,0.0,0.0,0.0,0.0,-14.5069,-15.2322,-14.5966,-14.5742,-15.4939,-15.6809,-15.7631,-15.7631,-15.7631,-15.7631,-15.7631,-15.7631,-15.8454,-16.0024,-16.152,-16.3165,-16.5109,-16.6455,-16.6455,-16.5408,-16.6754,-16.6605,-16.5408,-16.6829,-16.7352,-16.7352,-16.7352,-16.7352,-16.7255,-16.6039,-16.4765,-16.3511,-16.2341,-16.0995,-15.9757,-15.9757,-15.9757,-15.9757,-15.9757,-15.9757,-15.9757,-15.9757,-15.9757,-15.9757,-15.9757,-15.9757,-15.9757,-15.9757,-15.9757,-15.9757,-15.9757,-15.9757,-15.9757,-15.9757,-15.9757,-15.9757,-15.9757,-15.9757,-15.9757,-15.9757,-15.9757,-15.9757,-15.9757,-15.9757,-15.9186,-15.7617,-15.6047,-15.4477,-15.2907,-15.1266,-15.0208,-15.0208,-15.0208,-15.0208,-15.0208,-15.0208,-15.0208,-15.0208,-15.1766,-15.1766,-15.0279,-15.4977,-15.6546,-15.5405,-15.8402,-15.9757,-10.8203,-10.6259,-10.6633,-10.611,-10.4838,-10.5267,0.0,0.0,0.0,-11.8822,0.0,0.0,0.0,0.0,0.0,0.0,0.0,0.0,0.0,0.0,0.0,0.0,0.0,0.0,0.0,-15.2846,-15.292,-15.4491,-15.1873,-15.2247,-15.6884,-15.7482,-15.7631,-15.7631,-15.7631,-15.7631,-15.7631,-15.7631,-15.8454,-15.9949,-16.0323,-16.2043,-16.5034,-16.5333,-16.6006,-16.6979,-16.7203,-16.7203,-16.6979,-16.7278,-16.7352,-16.7352,-16.7352,-16.7352,-16.732,-16.7081,-16.5615,-16.363,-16.3389,-16.1763,-15.9757,-15.9757,-15.9757,-15.9757,-15.9757,-15.9757,-15.9757,-15.9757,-15.9757,-15.9757,-15.9757,-15.9757,-15.9757,-15.9757,-15.9757,-15.9757,-15.9757,-15.9757,-15.9757,-15.9757,-15.9757,-15.9757,-15.9757,-15.9757,-15.9757,-15.9757,-15.9757,-15.9757,-15.9757,-15.9757,-15.9186,-15.7617,-15.6047,-15.4477,-15.2907,-15.1266,-15.0208,-15.0208,-15.0208,-15.0208,-15.0208,-15.0208,-15.0208,-15.0208,-15.0564,-15.0564,-15.0208,-15.3835,-15.6047,-15.7046,-15.8901,-15.9757,-10.5437,-10.4016,-10.4464,-10.3642,-10.4016,0.0,0.0,-10.7659,-10.9475,-11.77,-11.8074,-11.8672,-12.4505,0.0,0.0,0.0,0.0,0.0,0.0,0.0,0.0,0.0,0.0,0.0,0.0,-15.3145,-15.2995,-15.3818,-15.3818,-15.4939,-15.7482,-15.7631,-15.7631,-15.7631,-15.7631,-15.7631,-15.7631,-15.7631,-15.8005,-15.8828,-16.0473,-16.2118,-16.3838,-16.5483,-16.6605,-16.7352,-16.7352,-16.7352,-16.7352,-16.7352,-16.7352,-16.7352,-16.7352,-16.7352,-16.7352,-16.7352,-16.6188,-16.446,-16.3867,-16.2394,-16.0653,-16.0,-15.9757,-15.9757,-15.9757,-15.9757,-15.9757,-15.9757,-15.9757,-15.9757,-15.9757,-15.9757,-15.9757,-15.9757,-15.9757,-15.9757,-15.9757,-15.9757,-15.9757,-15.9757,-15.9757,-15.9757,-15.9757,-15.9757,-15.9757,-15.9757,-15.9757,-15.9757,-15.9757,-15.9757,-15.9472,-15.8687,-15.6475,-15.4763,-15.3978,-15.1694,-15.0208,-15.0208,-15.0208,-15.0208,-15.0208,-15.0208,-15.0208,-15.0208,-15.0208,-15.0636,-15.1552,-15.3906,-15.5904,-15.7474,-15.9044,-15.9757,-10.3492,-10.3193,-10.4091,-10.2296,-10.4165,0.0,-10.6633,-10.6932,-10.9699,0.0,-11.8971,-12.0415,-12.8393,-13.101,0.0,0.0,0.0,0.0,0.0,0.0,0.0,0.0,0.0,0.0,-15.2322,-15.0976,-15.0752,-15.2023,-15.3668,-15.5538,-15.7557,-15.7631,-15.7631,-15.7631,-15.7631,-15.7631,-15.7631,-15.7631,-15.7631,-15.7706,-16.0622,-16.2193,-16.2567,-16.5558,-16.7053,-16.7352,-16.7352,-16.7352,-16.7352,-16.7352,-16.7352,-16.7352,-16.7352,-16.7352,-16.7352,-16.7352,-16.6553,-16.5266,-16.4371,-16.3192,-16.1928,-16.0592,-16.0187,-16.0125,-15.9884,-15.9757,-15.9757,-15.9757,-15.9757,-15.9757,-15.9757,-15.9757,-15.9757,-15.9757,-15.9757,-15.9757,-15.9757,-15.9757,-15.9757,-15.9757,-15.9757,-15.9757,-15.9757,-15.9757,-15.9757,-15.9757,-15.9757,-15.9757,-15.9757,-15.9757,-15.9757,-15.9757,-15.6974,-15.5119,-15.5119,-15.2123,-15.0208,-15.0208,-15.0208,-15.0208,-15.0208,-15.0208,-15.0208,-15.0208,-15.0208,-15.1124,-15.2765,-15.4334,-15.6047,-15.7973,-15.9186,-15.9757,-9.7435,-9.8108,-10.0371,-10.439,-10.2445,0.0,-12.2935,-12.3907,-12.5253,0.0,-14.3797,-14.3947,-14.5069,-14.5443,-14.5517,0.0,0.0,0.0,0.0,0.0,0.0,0.0,0.0,0.0,-15.0677,-15.0378,-15.0303,-15.0527,-15.1948,-15.4266,-15.7482,-15.7631,-15.7631,-15.7631,-15.7631,-15.7631,-15.7631,-15.7631,-15.7631,-15.7631,-15.9426,-16.1071,-16.2567,-16.4436,-16.6081,-16.7352,-16.7352,-16.7352,-16.7352,-16.7352,-16.7352,-16.7352,-16.7352,-16.7352,-16.7352,-16.7352,-16.6553,-16.5421,-16.5226,-16.446,-16.3242,-16.1983,-16.1555,-16.1271,-16.0125,-15.9757,-15.9757,-15.9757,-15.9757,-15.9757,-15.9757,-15.9757,-15.9757,-15.9757,-15.9757,-15.9757,-15.9757,-15.9757,-15.9757,-15.9757,-15.9757,-15.9757,-15.9757,-15.9757,-15.9757,-15.9757,-15.9757,-15.9757,-15.9757,-15.9757,-15.9757,-15.9757,-15.6974,-15.5119,-15.5119,-15.2123,-15.0208,-15.0208,-15.0208,-15.0208,-15.0208,-15.0208,-15.0208,-15.0208,-15.0208,-15.1124,-15.2765,-15.4334,-15.6618,-15.9543,-15.9686,-15.9757,-9.7678,-9.8052,-9.9249,-10.2221,0.0,0.0,-11.9345,-12.2486,-12.6673,0.0,-14.1255,-14.2078,-14.6863,-14.8508,-14.8882,-14.791,0.0,0.0,0.0,0.0,0.0,0.0,0.0,0.0,0.0,-14.8808,-14.9555,-15.15,-15.2173,-15.4042,-15.7482,-15.7631,-15.7631,-15.7631,-15.7631,-15.7631,-15.7631,-15.7631,-15.7631,-15.7631,-15.9202,-16.0847,-16.2567,-16.4287,-16.5932,-16.7352,-16.7352,-16.7352,-16.7352,-16.7352,-16.7352,-16.7352,-16.7352,-16.7352,-16.7352,-16.7352,-16.7048,-16.6481,-16.5659,-16.5102,-16.4371,-16.2394,-16.1707,-16.1426,-16.0187,-15.9757,-15.9757,-15.9757,-15.9757,-15.9757,-15.9757,-15.9757,-15.9757,-15.9757,-15.9757,-15.9757,-15.9757,-15.9757,-15.9757,-15.9757,-15.9757,-15.9757,-15.9757,-15.9757,-15.9757,-15.9757,-15.9757,-15.9757,-15.9757,-15.9757,-15.9757,-15.9757,-15.7759,-15.6118,-15.5191,-15.305,-15.1338,-15.0279,-15.0208,-15.0208,-15.0208,-15.0208,-15.0208,-15.0208,-15.0208,-15.0564,-15.1338,-15.3835,-15.5761,-15.7046,-15.8901,-15.9757,-9.7828,0.0,0.0,0.0,0.0,0.0,-12.0916,-12.458,-12.9141,-13.8638,-13.9685,-14.0507,-14.6041,-14.8434,-14.9181,-14.791,-14.9181,0.0,0.0,0.0,0.0,0.0,0.0,0.0,0.0,0.0,0.0,0.0,-15.2546,-15.4042,-15.7482,-15.7631,-15.7631,-15.7631,-15.7631,-15.7631,-15.7631,-15.7631,-15.7631,-15.7631,-15.8828,-16.0473,-16.2492,-16.3763,-16.5408,-16.7352,-16.7352,-16.7352,-16.7352,-16.7352,-16.7352,-16.7352,-16.7352,-16.7352,-16.7352,-16.7352,-16.7352,-16.7255,-16.6298,-16.5964,-16.5541,-16.3092,-16.2234,-16.1983,-16.03,-15.9757,-15.9757,-15.9757,-15.9757,-15.9757,-15.9757,-15.9757,-15.9757,-15.9757,-15.9757,-15.9757,-15.9757,-15.9757,-15.9757,-15.9757,-15.9757,-15.9757,-15.9757,-15.9757,-15.9757,-15.9757,-15.9757,-15.9757,-15.9757,-15.9757,-15.9757,-15.9757,-15.8402,-15.6832,-15.5262,-15.3692,-15.2051,-15.035,-15.0208,-15.0208,-15.0208,-15.0208,-15.0208,-15.0208,-15.0208,-15.0208,-15.0208,-15.355,-15.5119,-15.5252,-15.833,-15.9757,0.0,0.0,0.0,-11.3213,-11.5382,-11.9719,-13.5946,-13.7292,-13.7441,-14.5742,-14.7387,-14.6938,-14.5517,-14.6639,-14.7761,-14.7761,-14.9181,-14.963,0.0,0.0,0.0,0.0,0.0,0.0,0.0,0.0,0.0,0.0,-15.2546,-15.4042,-15.7482,-15.7631,-15.7631,-15.7631,-15.7631,-15.7631,-15.7631,-15.7631,-15.7631,-15.7631,-15.7706,-15.9426,-16.2492,-16.2567,-16.4361,-16.7352,-16.7352,-16.7352,-16.7352,-16.7352,-16.7352,-16.7352,-16.7352,-16.7352,-16.7352,-16.7352,-16.7352,-16.7352,-16.732,-16.732,-16.6871,-16.4415,-16.3582,-16.3092,-16.0532,-15.9757,-15.9757,-15.9757,-15.9757,-15.9757,-15.9757,-15.9757,-15.9757,-15.9757,-15.9757,-15.9757,-15.9757,-15.9757,-15.9757,-15.9757,-15.9757,-15.9757,-15.9757,-15.9757,-15.9757,-15.9757,-15.9757,-15.9757,-15.9757,-15.9757,-15.9757,-15.9757,-15.8402,-15.6832,-15.5262,-15.3692,-15.2051,-15.035,-15.0208,-15.0208,-15.0208,-15.0208,-15.0208,-15.0208,-15.0208,-15.0208,-15.0208,-15.355,-15.5119,-15.5252,-15.833,-15.9757,-10.2969,-10.5362,-10.8652,-11.6952,-12.3159,-12.8917,-13.5572,-14.0507,-14.4396,-14.7162,-14.7761,-14.7536,-14.7013,-14.7312,-14.7761,-14.7761,-14.8209,-14.8359,-14.7835,0.0,0.0,0.0,0.0,0.0,0.0,0.0,0.0,0.0,0.0,0.0,-15.7557,-15.7631,-15.7631,-15.7631,-15.7631,-15.7631,-15.7631,-15.7631,-15.7631,-15.7631,-15.7631,-15.8753,-16.0847,-16.1968,-16.3688,-16.5857,-16.6904,-16.7352,-16.7352,-16.7352,-16.7352,-16.7352,-16.7352,-16.6837,-16.6188,-16.7048,-16.6837,-16.6225,-16.7081,-16.7352,-16.698,-16.446,-16.3678,-16.3142,-16.0532,-15.9757,-15.9757,-15.9757,-15.9757,-15.9757,-15.9757,-15.9757,-15.9757,-15.9757,-15.9757,-15.9757,-15.9757,-15.9757,-15.9757,-15.9757,-15.9757,-15.9757,-15.9757,-15.9757,-15.9757,-15.9757,-15.9757,-15.9757,-15.9757,-15.9757,-15.9757,-15.9757,-15.9329,-15.7973,-15.5333,-15.462,-15.3193,-15.0422,-15.0208,-15.0208,-15.0208,-15.0208,-15.0208,-15.0208,-15.0208,-15.0208,-15.0208,-15.2479,-15.412,-15.5119,-15.726,-15.8758,-10.6483,-10.9175,-11.2241,-12.1163,-12.9066,-13.5348,-13.7591,-14.3124,-14.7761,-14.7761,-14.7761,-14.7761,-14.7761,-14.8209,-14.8658,-14.8658,-14.8658,-14.8434,-14.7835,-14.7761,-14.7761,0.0,0.0,0.0,0.0,0.0,0.0,0.0,0.0,-15.5837,-15.7557,-15.7631,-15.7631,-15.7631,-15.7631,-15.7631,-15.7631,-15.7631,-15.7631,-15.7631,-15.7631,-15.8454,-16.0024,-16.1744,-16.3464,-16.5109,-16.6679,-16.7352,-16.7352,-16.7352,-16.7352,-16.7352,-16.7352,-16.6553,-16.5541,-16.6335,-16.6188,-16.5541,-16.6335,-16.6624,-16.6298,-16.4281,-16.334,-16.2604,-16.0483,-15.9757,-15.9757,-15.9757,-15.9757,-15.9757,-15.9757,-15.9757,-15.9757,-15.9757,-15.9757,-15.9757,-15.9757,-15.9757,-15.9757,-15.9757,-15.9757,-15.9757,-15.9757,-15.9757,-15.9757,-15.9757,-15.9757,-15.9757,-15.9757,-15.9757,-15.9757,-15.9757,-15.9258,-15.7902,-15.5333,-15.462,-15.3121,-15.0422,-15.0208,-15.0208,-15.0208,-15.0208,-15.0208,-15.0208,-15.0208,-15.0208,-15.0208,-15.198,-15.355,-15.5119,-15.676,-15.8259,-10.7007,-11.1494,-11.6429,-12.63,-13.3478,-13.8937,-14.2227,-14.5443,-14.7761,-14.7761,-14.7761,-14.7761,-14.791,-14.9331,-15.0378,-15.0453,-15.0378,-14.9705,-14.806,-14.7761,-14.7761,-14.7761,0.0,0.0,0.0,0.0,0.0,0.0,-15.4266,-15.5986,-15.7557,-15.7631,-15.7631,-15.7631,-15.7631,-15.7631,-15.7631,-15.7631,-15.7631,-15.7631,-15.7631,-15.8454,-15.9949,-16.1669,-16.3389,-16.5034,-16.6605,-16.7278,-16.7352,-16.7352,-16.7352,-16.7352,-16.7352,-16.6553,-16.5381,-16.5421,-16.5381,-16.5226,-16.5421,-16.5421,-16.5102,-16.4007,-16.2811,-16.1426,-16.0187,-15.9757,-15.9757,-15.9757,-15.9757,-15.9757,-15.9757,-15.9757,-15.9757,-15.9757,-15.9757,-15.9757,-15.9757,-15.9757,-15.9757,-15.9757,-15.9757,-15.9757,-15.9757,-15.9757,-15.9757,-15.9757,-15.9757,-15.9757,-15.9757,-15.9757,-15.9757,-15.9757,-15.8402,-15.6832,-15.5262,-15.3692,-15.2051,-15.035,-15.0208,-15.0208,-15.0208,-15.0208,-15.0208,-15.0208,-15.0208,-15.0208,-15.0208,-15.1908,-15.3478,-15.5119,-15.6618,-15.8187,-11.441,-12.0841,-12.6449,-13.5048,-13.946,-14.2152,-14.4171,-14.6265,-14.7761,-14.7761,-14.7761,-14.8434,-15.0901,-15.1724,-15.2397,-15.3668,-15.1873,-15.0079,-14.963,-14.8508,-14.7761,-14.7761,-14.7761,-14.7761,0.0,0.0,0.0,0.0,-15.5313,-15.7183,-15.7631,-15.7631,-15.7631,-15.7631,-15.7631,-15.7631,-15.7631,-15.7631,-15.7631,-15.7631,-15.7631,-15.7856,-15.8304,-16.1221,-16.2716,-16.324,-16.4885,-16.6306,-16.7352,-16.7352,-16.7352,-16.7352,-16.7352,-16.6038,-16.4236,-16.5061,-16.4252,-16.2942,-16.4808,-16.4851,-16.4053,-16.3799,-16.2811,-16.1426,-16.0187,-15.9757,-15.9757,-15.9757,-15.9757,-15.9757,-15.9757,-15.9757,-15.9757,-15.9757,-15.9757,-15.9757,-15.9757,-15.9757,-15.9757,-15.9757,-15.9757,-15.9757,-15.9757,-15.9757,-15.9757,-15.9757,-15.9757,-15.9757,-15.9757,-15.9757,-15.9757,-15.9757,-15.8402,-15.6832,-15.5262,-15.3692,-15.2051,-15.035,-15.0208,-15.0208,-15.0208,-15.0208,-15.0208,-15.0208,-15.0208,-15.0208,-15.0208,-15.0636,-15.2337,-15.5119,-15.5476,-15.7189,-11.3213,-12.1514,-13.0038,-13.8264,-14.1629,-14.3246,-14.4844,-14.6489,-14.7761,-14.7761,-14.8284,-14.963,-15.2098,-15.3219,-15.4042,-15.4939,-15.2995,-15.1051,-15.0378,-14.8808,-14.7761,-14.7761,-14.7761,-14.7761,-14.7761,-15.0677,0.0,0.0,-15.5687,-15.7631,-15.7631,-15.7631,-15.793,-15.8678,-15.8678,-15.8678,-15.8678,-15.8678,-15.8304,-15.7631,-15.7631,-15.7631,-15.7706,-16.0249,-16.1819,-16.2567,-16.4287,-16.5932,-16.7352,-16.7352,-16.7352,-16.7352,-16.7352,-16.5811,-16.3726,-16.4415,-16.382,-16.2738,-16.419,-16.4548,-16.4371,-16.382,-16.2811,-16.1426,-16.0187,-15.9757,-15.9757,-15.9757,-15.9757,-15.9757,-15.9757,-15.9757,-15.9757,-15.9757,-15.9757,-15.9757,-15.9757,-15.9757,-15.9757,-15.9757,-15.9757,-15.9757,-15.9757,-15.9757,-15.9757,-15.9757,-15.9757,-15.9757,-15.9757,-15.9757,-15.9757,-15.9757,-15.7759,-15.6047,-15.5191,-15.2979,-15.1266,-15.0279,-15.0208,-15.0208,-15.0208,-15.0208,-15.0208,-15.0208,-15.0208,-15.0208,-15.0208,-15.0208,-15.198,-15.5119,-15.5119,-15.676,-11.0148,-11.9121,-13.0113,-13.8563,-14.1778,-14.3349,-14.5143,-14.6714,-14.7761,-14.7761,-14.9032,-15.0752,-15.2322,-15.3967,-15.5238,-15.5388,-15.3818,-15.2098,-15.0752,-14.8957,-14.7761,-14.7761,-14.7761,-14.7835,-14.806,-15.0827,-15.2696,-15.292,-15.5837,-15.7631,-15.7631,-15.7856,-15.8603,-15.9949,-16.0174,-16.0323,-16.0323,-16.0099,-15.9276,-15.793,-15.7706,-15.7631,-15.7706,-15.9052,-16.0697,-16.2567,-16.4062,-16.5707,-16.7352,-16.7352,-16.7352,-16.7352,-16.7352,-16.5811,-16.3678,-16.3678,-16.3438,-16.3142,-16.334,-16.4007,-16.4518,-16.3678,-16.2552,-16.1271,-16.0125,-15.9757,-15.9757,-15.9757,-15.9757,-15.9757,-15.9757,-15.9757,-15.9757,-15.9757,-15.9757,-15.9757,-15.9757,-15.9757,-15.9757,-15.9757,-15.9757,-15.9757,-15.9757,-15.9757,-15.9757,-15.9757,-15.9757,-15.9757,-15.9757,-15.9757,-15.9757,-15.9757,-15.6974,-15.5119,-15.5119,-15.2123,-15.0208,-15.0208,-15.0208,-15.0208,-15.0208,-15.0208,-15.0208,-15.0208,-15.0208,-15.0208,-15.0208,-15.0208,-15.198,-15.5119,-15.5119,-15.676,-11.9943,-12.5253,-13.0412,-14.0059,-14.2676,-14.3648,-14.6639,-14.7536,-14.7761,-14.7761,-14.9032,-15.0752,-15.2322,-15.3967,-15.5612,-15.6958,-15.464,-15.2472,-15.2173,-14.963,-14.7761,-14.7761,-14.7761,-14.8284,-14.9705,-15.15,-15.3145,-15.4565,-15.651,-15.7631,-15.7631,-15.8903,-15.9725,-15.9949,-16.1295,-16.2043,-16.2043,-16.0697,-15.9875,-15.9576,-15.823,-15.7631,-15.7631,-15.793,-15.965,-16.2492,-16.2791,-16.4586,-16.7352,-16.7352,-16.7352,-16.7352,-16.7352,-16.5811,-16.3678,-16.3704,-16.2288,-16.0592,-16.1707,-16.1483,-16.0937,-16.1818,-16.1156,-16.0063,-15.9884,-15.9757,-15.9757,-15.9757,-15.9757,-15.9757,-15.9757,-15.9757,-15.9757,-15.9757,-15.9757,-15.9757,-15.9757,-15.9757,-15.9757,-15.9757,-15.9757,-15.9757,-15.9757,-15.9757,-15.9757,-15.9757,-15.9757,-15.9757,-15.9757,-15.9757,-15.9757,-15.9757,-15.6974,-15.5119,-15.5119,-15.2123,-15.0208,-15.0208,-15.0208,-15.0208,-15.0208,-15.0208,-15.0208,-15.0208,-15.0208,-15.0208,-15.0208,-15.0208,-15.198,-15.5119,-15.5119,-15.676,-11.6578,-12.286,-12.944,-13.4974,-13.9685,-14.3498,-14.5891,-14.7088,-14.7985,-14.8882,-14.9705,-15.0752,-15.2322,-15.3967,-15.5687,-15.7407,-15.479,-15.2546,-15.2546,-14.978,-14.7761,-14.7761,-14.7761,-14.8359,-15.0079,-15.1649,-15.3294,-15.5014,-15.6659,-15.8005,-15.8828,-15.9576,-16.0772,-16.2567,-16.3389,-16.3838,-16.3838,-16.3015,-16.1744,-15.9949,-15.9202,-15.8454,-15.7631,-15.7631,-15.8977,-16.1221,-16.2118,-16.3913,-16.6231,-16.7053,-16.7352,-16.7352,-16.7352,-16.5811,-16.3678,-16.363,-16.2447,-16.0878,-16.1555,-16.1763,-16.1818,-16.1763,-16.1328,-16.0712,-15.9938,-15.9757,-15.9757,-15.9757,-15.9757,-15.9757,-15.9757,-15.9757,-15.9757,-15.9757,-15.9757,-15.9757,-15.9757,-15.9757,-15.9757,-15.9757,-15.9757,-15.9757,-15.9757,-15.9757,-15.9757,-15.9757,-15.9757,-15.9757,-15.9757,-15.9757,-15.9757,-15.9757,-15.6974,-15.5119,-15.5119,-15.2123,-15.0208,-15.0208,-15.0208,-15.0208,-15.0208,-15.0208,-15.0208,-15.0208,-15.0208,-15.0208,-15.0208,-15.0208,-15.198,-15.5119,-15.5119,-15.676,-11.3513,-12.0616,-12.8618,-13.0936,-13.6469,-14.2078,-14.5069,-14.6489,-14.7686,-14.9331,-14.9705,-15.0303,-15.2247,-15.3668,-15.5238,-15.7332,-15.479,-15.2546,-15.2546,-14.978,-14.7761,-14.7761,-14.7761,-14.8508,-15.0527,-15.1873,-15.3444,-15.5538,-15.7183,-15.8529,-15.9426,-16.0473,-16.2118,-16.4436,-16.5184,-16.5558,-16.5558,-16.5184,-16.3688,-16.1071,-16.0323,-15.9351,-15.8155,-15.8155,-15.8603,-15.9576,-16.1595,-16.3464,-16.5184,-16.6754,-16.7352,-16.7352,-16.7352,-16.6038,-16.4007,-16.3773,-16.2913,-16.1651,-16.1442,-16.2037,-16.2635,-16.1651,-16.1328,-16.117,-16.0125,-15.9757,-15.9757,-15.9757,-15.9757,-15.9757,-15.9757,-15.9757,-15.9757,-15.9757,-15.9757,-15.9757,-15.9757,-15.9757,-15.9757,-15.9757,-15.9757,-15.9757,-15.9757,-15.9757,-15.9757,-15.9757,-15.9757,-15.9757,-15.9757,-15.9757,-15.9757,-15.9757,-15.6974,-15.5119,-15.5119,-15.2123,-15.0208,-15.0208,-15.0208,-15.0208,-15.0208,-15.0208,-15.0208,-15.0208,-15.0564,-15.0778,-15.0778,-15.1195,-15.2765,-15.5619,-15.5619,-15.7117,-12.0766,-12.4954,-12.9216,-13.3852,-13.5572,-13.8114,-14.5742,-14.6415,-14.5966,-14.7611,-14.7985,-14.8882,-15.2023,-15.2696,-15.3892,-15.7108,-15.479,-15.2546,-15.2546,-14.978,-14.7761,-14.7761,-14.7761,-14.8957,-15.2098,-15.2501,-15.3892,-15.7183,-15.8903,-15.9202,-15.793,-16.2118,-16.3987,-16.2791,-16.5633,-16.7128,-16.7128,-16.5782,-16.4885,-16.4511,-16.1445,-15.9875,-15.9725,-15.9725,-15.9052,-15.8005,-16.1146,-16.3464,-16.5184,-16.6754,-16.7352,-16.7352,-16.7352,-16.6517,-16.5102,-16.4053,-16.2913,-16.1539,-16.0361,-16.0,-16.0125,-16.0,-15.9938,-15.9947,-15.9821,-15.9757,-15.9757,-15.9757,-15.9757,-15.9757,-15.9757,-15.9757,-15.9757,-15.9757,-15.9757,-15.9757,-15.9757,-15.9757,-15.9757,-15.9757,-15.9757,-15.9757,-15.9757,-15.9757,-15.9757,-15.9757,-15.9757,-15.9757,-15.9757,-15.9757,-15.9757,-15.9757,-15.6974,-15.5119,-15.5119,-15.2123,-15.0208,-15.0208,-15.0208,-15.0208,-15.0208,-15.0208,-15.0208,-15.0208,-15.1766,-15.2551,-15.2551,-15.3978,-15.5547,-15.726,-15.726,-15.8116,-11.097,-11.6578,-12.2561,-12.458,-13.0337,-13.6619,-14.0806,-14.2825,-14.4844,-14.8508,-14.9256,-14.963,-15.0901,-15.1948,-15.3369,-15.5762,-15.4117,-15.2546,-15.2546,-14.978,-14.7761,-14.7761,-14.8658,-15.0154,-15.2397,-15.3519,-15.5089,-15.7482,-15.9127,-15.9725,-15.9052,-16.2866,-16.4735,-16.4062,-16.6231,-16.7352,-16.7352,-16.6754,-16.6006,-16.5034,-16.3688,-16.3015,-16.2941,-16.0922,-15.965,-15.9052,-15.9426,-16.0473,-16.2193,-16.4885,-16.653,-16.7352,-16.7352,-16.6553,-16.5381,-16.4893,-16.3486,-16.1651,-16.117,-16.0483,-15.9757,-15.9757,-15.9757,-15.9757,-15.9757,-15.9757,-15.9757,-15.9757,-15.9757,-15.9757,-15.9757,-15.9757,-15.9757,-15.9757,-15.9757,-15.9757,-15.9757,-15.9757,-15.9757,-15.9757,-15.9757,-15.9757,-15.9757,-15.9757,-15.9757,-15.9757,-15.9757,-15.9757,-15.9757,-15.9757,-15.9757,-15.9757,-15.6974,-15.5119,-15.5119,-15.2123,-15.0208,-15.0208,-15.0208,-15.0208,-15.0208,-15.0208,-15.0707,-15.1766,-15.2408,-15.3264,-15.4192,-15.4763,-15.5904,-15.7474,-15.7474,-15.8259,-10.5287,-11.1045,-11.77,-11.8672,-12.5776,-13.3329,-13.6394,-13.8563,-14.1479,-14.6938,-14.8808,-14.963,-15.0154,-15.15,-15.2995,-15.4192,-15.3369,-15.2397,-15.1948,-14.9481,-14.7761,-14.7761,-14.9256,-15.0901,-15.2397,-15.4117,-15.5837,-15.7482,-15.9576,-16.0473,-16.0024,-16.3614,-16.5558,-16.5034,-16.653,-16.7352,-16.7352,-16.7352,-16.6829,-16.5707,-16.5259,-16.5034,-16.496,-16.2043,-16.0473,-15.9875,-15.8304,-15.8529,-16.0174,-16.309,-16.5483,-16.7352,-16.7352,-16.6803,-16.5964,-16.558,-16.4297,-16.2738,-16.1965,-16.1098,-16.03,-15.9947,-15.9757,-15.9757,-15.9757,-15.9757,-15.9757,-15.9757,-15.9757,-15.9757,-15.9757,-15.9757,-15.9757,-15.9757,-15.9757,-15.9757,-15.9757,-15.9757,-15.9757,-15.9757,-15.9757,-15.9757,-15.9757,-15.9757,-15.9757,-15.9757,-15.9757,-15.9757,-15.9757,-15.9757,-15.9615,-15.9115,-15.6689,-15.4905,-15.4406,-15.1908,-15.0208,-15.0208,-15.0208,-15.0208,-15.0208,-15.0707,-15.1552,-15.2765,-15.3692,-15.4691,-15.5833,-15.6261,-15.7046,-15.8187,-15.8187,-15.8758,-10.8652,-11.1867,-11.6504,-11.9892,-12.3159,-12.7421,-13.4002,-13.4226,-13.4948,-14.1554,-14.5517,-14.8284,-14.9929,-15.15,-15.2546,-15.2621,-15.2621,-15.2023,-15.0453,-14.8808,-14.7761,-14.7761,-14.9256,-15.0901,-15.2397,-15.4117,-15.5837,-15.7482,-16.0622,-16.1744,-16.0099,-16.466,-16.6605,-16.5109,-16.653,-16.7352,-16.7352,-16.7352,-16.7352,-16.7352,-16.5782,-16.5034,-16.496,-16.324,-16.1595,-15.9875,-15.8304,-15.8529,-16.0099,-16.1819,-16.4436,-16.7352,-16.7352,-16.7352,-16.7147,-16.5926,-16.5421,-16.5019,-16.2583,-16.1707,-16.1555,-16.0249,-15.9757,-15.9757,-15.9757,-15.9757,-15.9757,-15.9757,-15.9757,-15.9757,-15.9757,-15.9757,-15.9757,-15.9757,-15.9757,-15.9757,-15.9757,-15.9757,-15.9757,-15.9757,-15.9757,-15.9757,-15.9757,-15.9757,-15.9757,-15.9757,-15.9757,-15.9757,-15.9757,-15.9757,-15.9186,-15.7688,-15.6047,-15.4477,-15.2907,-15.1266,-15.0208,-15.0208,-15.0208,-15.0208,-15.0208,-15.1908,-15.2765,-15.2765,-15.5833,-15.7403,-15.7474,-15.8972,-15.9757,-15.9757,-15.9757,-15.9757,-10.3343,-10.8502,-11.4559,-11.6728,-12.1439,-12.7047,-13.2506,-13.5048,-13.7217,-14.0432,-14.1928,-14.3199,-14.4919,-14.9256,-15.2247,-15.1126,-15.1873,-15.2023,-15.0453,-14.8808,-14.7761,-14.7761,-15.0154,-15.2023,-15.2546,-15.5164,-15.7033,-15.7631,-16.0622,-16.1744,-16.0099,-16.466,-16.6679,-16.5109,-16.653,-16.7352,-16.7352,-16.7352,-16.7352,-16.7352,-16.6904,-16.6605,-16.6605,-16.496,-16.3314,-16.1595,-15.9949,-15.8903,-15.8529,-16.0099,-16.2043,-16.4148,-16.5552,-16.6002,-16.5888,-16.4679,-16.4236,-16.4145,-16.334,-16.3042,-16.2789,-16.1483,-16.1098,-16.0937,-16.0063,-15.9757,-15.9757,-15.9757,-15.9757,-15.9757,-15.9757,-15.9757,-15.9757,-15.9757,-15.9757,-15.9757,-15.9757,-15.9757,-15.9757,-15.9757,-15.9757,-15.9757,-15.9757,-15.9757,-15.9757,-15.9757,-15.9757,-15.9757,-15.9757,-15.9757,-15.9615,-15.9115,-15.6689,-15.4477,-15.2907,-15.1266,-15.0208,-15.0208,-15.0208,-15.0838,-15.198,-15.2479,-15.3764,-15.5976,-15.6974,-15.7973,-15.9044,-15.9543,-15.9757,-15.9757,-15.9757,-15.9757,-10.3193,-10.8428,-11.4036,-11.6878,-12.0168,-12.4056,-12.9066,-13.0786,-13.2356,-13.5871,-13.6619,-13.7666,-14.1255,-14.7761,-15.1873,-14.963,-15.1126,-15.1799,-14.963,-14.8359,-14.7761,-14.7761,-15.0602,-15.2546,-15.2546,-15.5687,-15.7631,-15.7631,-16.0622,-16.2043,-16.0996,-16.5034,-16.6904,-16.5932,-16.6904,-16.7352,-16.7352,-16.7352,-16.7352,-16.7352,-16.7352,-16.7352,-16.7278,-16.5782,-16.4436,-16.3314,-16.0996,-15.9426,-15.8603,-15.9576,-16.0996,-16.2685,-16.4545,-16.5368,-16.534,-16.4099,-16.396,-16.4281,-16.382,-16.396,-16.4053,-16.2288,-16.1707,-16.1426,-16.0187,-15.9757,-15.9757,-15.9757,-15.9757,-15.9757,-15.9757,-15.9757,-15.9757,-15.9757,-15.9757,-15.9757,-15.9757,-15.9757,-15.9757,-15.9757,-15.9757,-15.9757,-15.9757,-15.9757,-15.9757,-15.9757,-15.9757,-15.9757,-15.9757,-15.9757,-15.9757,-15.9757,-15.6974,-15.4192,-15.2051,-15.085,-15.0208,-15.0208,-15.085,-15.1694,-15.2765,-15.3906,-15.5476,-15.7403,-15.8045,-15.883,-15.9757,-15.9757,-15.9757,-15.9757,-15.9757,-15.9757,-10.6334,-11.0297,-11.426,-11.8822,-11.9443,-12.0093,-12.4729,-12.3234,-12.2584,-12.8468,-12.9739,-13.1684,-13.8114,-14.5816,-15.0453,-14.8284,-15.0378,-15.1275,-14.8434,-14.7985,-14.791,-14.791,-15.0752,-15.2696,-15.2621,-15.5687,-15.7631,-15.7631,-16.0622,-16.2492,-16.2492,-16.5633,-16.7352,-16.7352,-16.7352,-16.7352,-16.7352,-16.7352,-16.7352,-16.7352,-16.7352,-16.7352,-16.7278,-16.5857,-16.5109,-16.4885,-16.1595,-16.0099,-15.9949,-15.9875,-16.0847,-16.2641,-16.4212,-16.5027,-16.5102,-16.3867,-16.4236,-16.5102,-16.4053,-16.446,-16.5019,-16.2635,-16.1818,-16.1426,-16.0187,-15.9757,-15.9757,-15.9757,-15.9757,-15.9757,-15.9757,-15.9757,-15.9757,-15.9757,-15.9757,-15.9757,-15.9757,-15.9757,-15.9757,-15.9757,-15.9757,-15.9757,-15.9757,-15.9757,-15.9757,-15.9757,-15.9757,-15.9757,-15.9757,-15.9757,-15.9757,-15.9615,-15.6903,-15.3835,-15.0707,-15.035,-15.0208,-15.0208,-15.1837,-15.2836,-15.2907,-15.5833,-15.7545,-15.7617,-15.9044,-15.9757,-15.9757,-15.9757,-15.9757,-15.9757,-15.9757,-15.9757,-10.052,-10.598,-11.1643,-11.284,-11.9495,-12.6075,-12.7272,-12.4879,-12.2635,-12.2958,-12.2958,-12.423,-12.8319,-13.3702,-14.0208,-14.8359,-14.9181,-14.9481,-15.12,-15.0378,-14.963,-14.963,-15.2546,-15.4042,-15.2696,-15.5687,-15.7631,-15.7631,-16.0622,-16.2492,-16.2492,-16.5633,-16.7352,-16.7352,-16.7352,-16.7352,-16.7352,-16.7352,-16.7352,-16.7352,-16.7352,-16.7352,-16.7352,-16.6979,-16.6156,-16.496,-16.2791,-16.1146,-15.9875,-15.8678,-15.9875,-16.2492,-16.2941,-16.3511,-16.382,-16.1483,-16.2127,-16.4053,-16.3726,-16.4415,-16.5144,-16.3726,-16.2552,-16.1426,-16.0187,-15.9757,-15.9757,-15.9757,-15.9757,-15.9757,-15.9757,-15.9757,-15.9757,-15.9757,-15.9757,-15.9757,-15.9757,-15.9757,-15.9757,-15.9757,-15.9757,-15.9757,-15.9757,-15.9757,-15.9757,-15.9757,-15.9757,-15.9757,-15.9757,-15.9757,-15.9329,-15.8116,-15.6261,-15.4334,-15.2337,-15.1052,-15.0208,-15.0208,-15.1837,-15.3336,-15.4477,-15.6404,-15.8045,-15.9186,-15.9615,-15.9757,-15.9757,-15.9757,-15.9757,-15.9757,-15.9757,-15.9757,-10.1324,-10.7381,-11.2316,-10.9325,-11.5008,-12.1065,-12.0317,-11.8747,-11.7401,-11.7326,-11.7326,-11.8971,-12.458,-12.7122,-13.2207,-14.3797,-14.619,-14.6938,-14.7985,-14.8658,-14.9406,-15.0154,-15.2472,-15.3892,-15.3743,-15.6136,-15.793,-15.8678,-16.1071,-16.2791,-16.3614,-16.6006,-16.7352,-16.7352,-16.7352,-16.7352,-16.7352,-16.7352,-16.7352,-16.7352,-16.7352,-16.7352,-16.7352,-16.7352,-16.6904,-16.6006,0.0,-16.2716,-16.0996,-15.9426,-15.9725,-16.137,-16.2193,-16.2469,-16.2412,-16.1801,-16.1707,-16.191,-16.2552,-16.3582,-16.4415,-16.3192,-16.2288,-16.1426,-16.0187,-15.9757,-15.9757,-15.9757,-15.9757,-15.9757,-15.9757,-15.9757,-15.9757,-15.9757,-15.9757,-15.9757,-15.9757,-15.9757,-15.9757,-15.9757,-15.9757,-15.9757,-15.9757,-15.9757,-15.9757,-15.9757,-15.9757,-15.9757,-15.9757,-15.9186,-15.8402,-15.7545,-15.5405,-15.3692,-15.2836,-15.1266,-15.0208,-15.0208,-15.1837,-15.3835,-15.6047,-15.7688,-15.8901,-15.9757,-15.9757,-15.9757,-15.9757,-15.9757,-15.9757,-15.9757,-15.9757,-15.9757,-10.4315,-11.0671,-11.4709,-10.9175,-11.1194,-11.4111,-11.2637,-11.1739,-11.1494,-11.269,-11.2914,-11.5083,-12.2037,-12.2785,-12.5627,-13.5721,-14.0956,-14.3723,-14.3648,-14.619,-14.8658,-15.0079,-15.1873,-15.3444,-15.464,-15.651,-15.8155,-15.9501,-16.137,-16.309,-16.4586,-16.638,-16.7352,-16.7352,-16.7352,-16.7352,-16.7352,-16.7352,-16.7352,-16.7352,-16.7352,-16.7352,-16.7352,-16.7352,-16.7352,-16.7278,0.0,-16.4062,-16.2342,-16.0697,-15.9949,-16.0174,-16.1819,-16.2062,-16.1664,-16.3091,-16.22,-16.0239,-16.1328,-16.2447,-16.3192,-16.2073,-16.1595,-16.1213,-16.0125,-15.9757,-15.9757,-15.9757,-15.9757,-15.9757,-15.9757,-15.9757,-15.9757,-15.9757,-15.9757,-15.9757,-15.9757,-15.9757,-15.9757,-15.9757,-15.9757,-15.9757,-15.9757,-15.9757,-15.9757,-15.9757,-15.9757,-15.9757,-15.9757,-15.8616,-15.7617,-15.7117,-15.4763,-15.2907,-15.2408,-15.1124,-15.035,-15.0636,-15.198,-15.4192,-15.7331,-15.8687,-15.9543,-15.9757,-15.9757,-15.9757,-15.9757,-15.9757,-15.9757,-15.9757,-15.9757,-15.9757,-10.3193,-11.0671,-11.7551,-11.6578,-11.7924,-11.9518,-11.9293,-11.598,-11.2615,-11.144,-11.1216,-11.159,-11.2861,-11.6279,-11.9943,-12.3182,-13.116,-13.9311,-14.6041,-14.8658,-14.9929,-15.0228,-15.292,-15.4266,-15.307,-15.5762,-15.7706,-15.8005,-16.0772,-16.2641,-16.2866,-16.5707,-16.7352,-16.7352,-16.7352,-16.7352,-16.7352,-16.7352,-16.7352,-16.7352,-16.7352,-16.7352,-16.7352,-16.7352,-16.7352,-16.7278,0.0,0.0,-16.2342,-16.0697,-15.9949,-16.0174,-16.1819,-16.2608,-16.2874,-16.3465,-16.2759,-16.1499,-16.1651,-16.1873,-16.2037,-16.1818,-16.0995,-16.0,-15.9821,-15.9757,-15.9757,-15.9757,-15.9757,-15.9757,-15.9757,-15.9757,-15.9757,-15.9757,-15.9757,-15.9757,-15.9757,-15.9757,-15.9757,-15.9757,-15.9757,-15.9757,-15.9757,-15.9757,-15.9757,-15.9757,-15.9757,-15.9757,-15.9757,-15.9543,-15.8402,-15.5761,-15.5048,-15.3621,-15.085,-15.0422,-15.085,-15.2337,-15.2622,-15.4192,-15.7331,-15.7688,-15.8402,-15.9757,-15.9757,-15.9757,-15.9757,-15.9757,-15.9757,-15.9757,-15.9757,-15.9757,-10.4539,-11.2017,-11.9368,-11.8448,-11.8747,-11.9121,-11.8149,-11.6205,-11.3886,-11.1365,-11.0767,-11.1066,-11.2017,-11.4036,-11.7551,-12.3682,-12.8543,-13.4002,-14.133,-14.462,-14.7237,-14.9929,-15.2322,-15.4192,-15.5238,-15.6734,-15.8379,-16.0099,-16.1669,-16.2941,-16.3838,-16.6081,-16.7352,-16.7352,-16.7352,-16.7352,-16.7352,-16.7352,-16.7352,-16.7352,-16.7352,-16.7352,-16.7352,-16.7352,-16.7352,-16.7352,-16.6605,-16.4885,-16.2417,-16.1669,-16.0323,-15.8977,-16.152,-16.2191,-16.1972,-16.3921,-16.3901,-16.301,-16.301,-16.2512,-16.1802,-16.094,-16.0239,-15.9757,-15.9757,-15.9757,-15.9757,-15.9757,-15.9757,-15.9757,-15.9757,-15.9757,-15.9757,-15.9757,-15.9757,-15.9757,-15.9757,-15.9757,-15.9757,-15.9757,-15.9757,-15.9757,-15.9757,-15.9757,-15.9757,-15.9757,-15.9757,-15.9757,-15.9757,-15.8259,-15.6689,-15.5262,-15.355,-15.1908,-15.035,-15.0208,-15.0981,-15.2693,-15.355,-15.5048,-15.7331,-15.8259,-15.9044,-15.9757,-15.9757,-15.9757,-15.9757,-15.9757,-15.9757,-15.9757,-15.9757,-15.9757,-10.9624,0.0,-12.2734,-12.1364,-12.1065,-12.0542,0.0,-11.77,-11.6354,-11.2712,-11.1664,-11.1793,-11.3064,-11.2989,-11.5606,-12.4355,-12.6075,-12.8767,-13.5721,-13.9236,-14.2975,-14.791,-14.9929,-15.2173,-15.5612,-15.6584,-15.823,-16.1146,-16.2043,-16.309,-16.4361,-16.6306,-16.7352,-16.7352,-16.7352,-16.7352,-16.7352,-16.7352,-16.7352,-16.7352,-16.7352,-16.7352,-16.7352,-16.7352,-16.7352,-16.7352,-16.7352,-16.5782,-16.309,-16.309,-16.1146,-15.8454,-16.137,-16.1954,-16.1319,-16.3909,-16.4898,-16.4829,-16.4321,-16.3432,-16.2334,-16.0812,-16.0043,-15.9757,-15.9757,-15.9757,-15.9757,-15.9757,-15.9757,-15.9757,-15.9757,-15.9757,-15.9757,-15.9757,-15.9757,-15.9757,-15.9757,-15.9757,-15.9757,-15.9757,-15.9757,-15.9757,-15.9757,-15.9757,-15.9757,-15.9757,-15.9757,-15.9615,-15.9258,-15.7117,-15.5333,-15.462,-15.2337,-15.0636,-15.0279,-15.0636,-15.1552,-15.3193,-15.4763,-15.6332,-15.7973,-15.9115,-15.9757,-15.9757,-15.9757,-15.9757,-15.9757,-15.9757,-15.9757,-15.9757,-15.9757,-15.9757,0.0,-12.5701,-12.9665,-12.959,-12.9515,-12.8767,-12.5627,-12.3682,0.0,-11.6279,-11.4186,-11.3213,-11.3288,-11.2017,-11.2712,-11.7999,-12.0168,-12.4056,-13.2207,-13.4899,-13.789,-14.2825,-14.477,-14.7088,-15.0453,-15.3519,-15.6061,-15.7856,-16.0772,-16.2567,-16.2641,-16.5633,-16.7352,-16.7352,-16.7352,-16.7352,-16.7352,-16.7352,-16.7352,-16.7352,-16.7352,-16.7352,-16.7352,-16.7352,-16.7352,-16.7352,-16.7352,-16.6455,-16.4885,-16.4885,-16.2866,-16.0024,-16.1819,-16.2461,-16.245,-16.299,-16.5159,-16.7289,-16.4882,-16.404,-16.3682,-16.2406,-16.097,-15.9757,-15.9757,-15.9757,-15.9757,-15.9757,-15.9757,-15.9757,-15.9757,-15.9757,-15.9757,-15.9757,-15.9757,-15.9757,-15.9757,-15.9757,-15.9757,-15.9757,-15.9757,-15.9757,-15.9757,-15.9757,-15.9757,-15.9757,-15.9757,-15.9258,-15.7831,-15.7474,-15.619,-15.3264,-15.2765,-15.198,-15.035,-15.1694,-15.3264,-15.4834,-15.6404,-15.7973,-15.9543,-15.9686,-15.9757,-15.9757,-15.9757,-15.9757,-15.9757,-15.9757,-15.9757,-15.9757,-15.9757,-15.9757,-12.8468,-13.1384,-13.3329,-13.2282,-13.1983,-13.0861,-12.6599,-12.5103,-12.2935,-11.6878,-11.441,-11.3363,-11.3363,-11.284,-11.4634,-12.1663,-12.4206,-12.7122,-13.2282,-13.7067,-13.9984,-13.9759,-14.5667,-15.1126,-15.4565,-15.5986,-15.7781,-16.0473,-16.1819,-16.2492,-16.2492,-16.5633,-16.6904,-16.5932,-16.6904,-16.7352,-16.7352,-16.7352,-16.7352,-16.7352,-16.7352,-16.7352,-16.7352,-16.7352,-16.7352,-16.7352,-16.7352,-16.6455,0.0,-16.3913,-16.2043,-16.0024,-16.0697,-16.1595,-16.276,-16.4972,-16.6597,-16.7966,-16.9086,-16.7793,-16.5602,-16.5922,-16.3779,-16.1233,-16.106,-16.0422,-15.9757,-15.9757,-16.0471,-16.1042,-16.0043,-15.9757,-15.9757,-15.9757,-15.9757,-15.9757,-15.9757,-15.9757,-15.9757,-15.9757,-15.9757,-15.9757,-15.9757,-15.9757,-15.9757,-15.9757,-15.8972,-15.8116,-15.7545,-15.5761,-15.412,-15.2907,-15.1837,-15.1409,-15.1837,-15.2408,-15.3835,-15.6404,-15.7117,-15.8187,-15.9686,-15.9757,-15.9757,-15.9757,-15.9757,-15.9757,-15.9757,-15.9757,-15.9757,-15.9757,-15.9757,-15.9757,-13.3478,-13.4974,-13.5946,-13.4824,-13.4525,-13.3104,-12.7646,-12.6374,-12.4505,-11.785,-11.5158,-11.426,-11.4784,-11.441,-11.6429,-12.3608,-12.6673,-12.959,-13.3927,-13.8862,-14.1405,-13.961,-14.5368,-15.0602,-15.3444,-15.5612,-15.8155,-16.1445,-16.2193,-16.2268,-16.1744,-16.5333,-16.6904,-16.5782,-16.6829,-16.7352,-16.7352,-16.7352,-16.7352,-16.7352,-16.7352,-16.7352,-16.7352,-16.7352,-16.7352,-16.7352,-16.7352,-16.6754,-16.5707,-16.4511,-16.2716,-16.0772,-16.0772,-16.1819,-16.3539,-16.5782,-16.8071,-17.0236,-17.2142,-17.0928,-16.8419,-16.8472,-16.586,-16.2564,-16.2017,-16.162,-16.097,-15.9472,-16.0185,-16.1113,-16.0043,-15.9757,-15.9757,-15.9757,-15.9757,-15.9757,-15.9757,-15.9757,-15.9757,-15.9757,-15.9757,-15.9615,-15.9115,-15.9044,-15.8901,-15.8402,-15.7403,-15.6546,-15.6047,-15.412,-15.2551,-15.2051,-15.0981,-15.0981,-15.2622,-15.3692,-15.5191,-15.7331,-15.7902,-15.8687,-15.9757,-15.9757,-15.9757,-15.9757,-15.9757,-15.9757,-15.9757,-15.9757,-15.9757,-15.9757,-15.9757,-15.9757,-13.5497,-13.6619,-13.7815,-13.7815,-13.7815,-13.6095,-12.959,-12.8094,-12.6225,-11.957,-11.6878,-11.6205,-11.785,-11.6803,-11.7326,-12.2262,-12.5926,-13.0412,-13.6918,-13.9236,-14.1031,-14.2676,-14.29,-14.3573,-14.5143,-15.1275,-15.651,-15.98,-16.152,-16.1744,-16.0099,-16.466,-16.7352,-16.7278,-16.7352,-16.7352,-16.7352,-16.7352,-16.7352,-16.7352,-16.7352,-16.7352,-16.7352,-16.7352,-16.7352,-16.7352,-16.7352,-16.7352,0.0,-16.7352,-16.5408,-16.2492,-16.2492,-16.3539,-16.5034,-16.5034,-16.9147,-17.4545,-17.3242,-17.2842,-17.2355,-16.9798,-16.6761,-16.3869,-16.2549,-16.3253,-16.3468,-15.883,-15.8616,-15.9757,-15.9757,-15.9757,-15.9757,-15.9757,-15.9757,-15.9757,-15.9757,-15.9757,-15.9757,-15.9757,-15.9757,-15.9258,-15.7688,-15.7474,-15.6903,-15.5333,-15.5048,-15.4549,-15.2979,-15.2765,-15.2123,-15.0422,-15.0279,-15.1052,-15.2693,-15.569,-15.7474,-15.7474,-15.8901,-15.9757,-15.9757,-15.9757,-15.9757,-15.9757,-15.9757,-15.9757,-15.9757,-15.9757,-15.9757,-15.9757,-15.9757,-15.9757,-13.6843,-13.7441,-13.7815,-13.7815,-13.7815,-13.6095,-12.959,-12.8094,-12.6225,-11.957,-11.6878,-11.6205,-11.785,-11.7775,-11.8672,-12.2486,-12.6823,-13.1235,-13.5572,-13.961,-14.2751,-14.4321,-14.5592,-14.7387,-15.0154,-15.4341,-15.8753,-16.324,-16.1819,-16.152,-16.3464,-16.496,-16.5184,-16.3987,-16.6156,-16.7352,-16.7352,-16.7352,-16.7352,-16.7352,-16.7352,-16.7352,-16.7352,-16.7352,-16.7352,-16.7352,-16.7352,-16.7352,0.0,-16.6156,-16.5184,-16.4137,-16.2941,-16.3539,-16.5184,-16.6306,-16.8624,-17.1582,-17.3513,-17.3553,-17.2674,-17.1895,-16.9775,-16.7268,-16.577,-16.4181,-16.254,-16.1184,-15.9472,-15.8402,-15.9472,-15.9757,-15.9757,-15.9757,-15.9757,-15.9472,-15.8402,-15.8972,-15.9115,-15.6903,-15.7403,-15.7617,-15.6047,-15.5761,-15.5619,-15.5252,-15.4192,-15.3336,-15.2836,-15.1766,-15.0778,-15.0279,-15.2337,-15.4334,-15.5976,-15.6903,-15.7902,-15.9044,-15.9543,-15.9757,-15.9757,-15.9757,-15.9757,-15.9757,-15.9757,-15.9757,-15.9757,-15.9757,-15.9757,-15.9757,-15.9757,-15.9757,-13.7591,-13.7815,-13.7815,-13.7815,-13.7815,-13.6245,-13.0337,-12.8543,-12.6374,-12.0392,-11.8373,-11.8149,-11.9794,-12.0093,-12.1663,-12.62,-13.0562,-13.4974,-13.9685,-14.4022,-14.7088,-14.806,-14.8508,-14.978,-15.2322,-15.5687,-15.9127,-16.2791,-16.1744,-16.1894,-16.3913,-16.3987,-16.3838,-16.3539,-16.6006,-16.7352,-16.7352,-16.7352,-16.7352,-16.7352,-16.7352,-16.7352,-16.7352,-16.7352,-16.7352,-16.7352,-16.7352,-16.7352,-16.7278,-16.638,-16.5633,-16.4853,-16.3297,-16.3756,-16.5321,-16.6216,-16.8079,-17.0536,-17.3648,-17.4224,-17.351,-17.3112,-17.0991,-16.8083,-16.4949,-16.3539,-16.254,-16.0043,-15.8901,-15.833,-15.7973,-15.7902,-15.7902,-15.7902,-15.7902,-15.7617,-15.676,-15.7759,-15.8116,-15.5547,-15.6404,-15.676,-15.4549,-15.4192,-15.3906,-15.3264,-15.2408,-15.2051,-15.2693,-15.1908,-15.1552,-15.2123,-15.4477,-15.6404,-15.7403,-15.8045,-15.8758,-15.9686,-15.9757,-15.9757,-15.9757,-15.9757,-15.9757,-15.9757,-15.9757,-15.9757,-15.9757,-15.9757,-15.9757,-15.9757,-15.9757,-15.9757,-13.7815,-13.7815,-13.7815,-13.7815,-13.7815,-13.6544,-13.1534,-12.9291,-12.6898,-12.1761,-12.0864,-12.1289,-12.2635,-12.3308,-12.5701,-13.1758,-13.5871,-14.0507,-14.6863,-15.0378,-15.2397,-15.2546,-15.12,-15.0901,-15.2621,-15.5762,-15.8379,-16.0099,-16.1744,-16.2567,-16.2268,-16.2417,-16.3165,-16.4735,-16.6455,-16.7352,-16.7352,-16.7352,-16.7352,-16.7352,-16.7352,-16.7352,-16.7352,-16.7352,-16.7352,-16.7352,-16.7352,-16.7352,-16.7352,-16.7352,-16.653,-16.5088,-16.3771,-16.4201,-16.5421,-16.534,-16.7381,-17.0632,-17.3218,-17.4314,-17.437,-17.3111,-17.0771,-16.7293,-16.1994,-16.2225,-16.2947,-15.7179,-15.7403,-15.8687,-15.5833,-15.4977,-15.4905,-15.5048,-15.5119,-15.5048,-15.4905,-15.6118,-15.676,-15.4977,-15.5904,-15.6047,-15.305,-15.2551,-15.2051,-15.0493,-15.0208,-15.085,-15.2551,-15.2765,-15.3478,-15.5333,-15.6832,-15.7688,-15.7688,-15.8972,-15.9757,-15.9757,-15.9757,-15.9757,-15.9757,-15.9757,-15.9757,-15.9757,-15.9757,-15.9757,-15.9757,-15.9757,-15.9757,-15.9757,-15.9757,-15.9757,-13.7815,-13.7815,-13.7815,-13.7815,-13.7815,-13.6544,-13.1534,-13.0188,-12.8169,-12.1986,-12.1663,-12.2262,-12.1364,-12.5402,-12.9291,-13.0711,-13.7067,-14.3199,-14.7162,-14.9481,-15.12,-15.2397,-15.12,-15.1425,-15.4341,-15.6435,-15.8828,-16.1744,-16.3539,-16.3314,-16.0622,-16.1744,-16.2641,-16.3015,-16.5857,-16.7352,-16.7352,-16.7352,-16.7352,-16.7352,-16.7352,-16.7352,-16.7352,-16.7352,-16.7352,-16.7352,-16.7352,-16.7352,-16.7352,-16.7352,-16.7203,-16.6732,-16.5406,-16.5165,-16.5266,-16.4415,-16.5934,-16.8582,-16.9152,-17.095,-17.2504,-17.0136,-16.8699,-16.7498,-16.5576,-16.3667,-16.1702,-15.9419,-15.7474,-15.5904,-15.5262,-15.4192,-15.3621,-15.4834,-15.5119,-15.4763,-15.355,-15.4477,-15.4763,-15.1908,-15.2693,-15.3121,-15.1195,-15.0778,-15.0636,-15.0279,-15.0208,-15.085,-15.2551,-15.2765,-15.4334,-15.833,-15.9044,-15.9258,-15.9258,-15.9615,-15.9757,-15.9757,-15.9757,-15.9757,-15.9757,-15.9757,-15.9757,-15.9757,-15.9757,-15.9757,-15.9757,-15.9757,-15.9757,-15.9757,-15.9757,-15.9757,-13.7815,-13.7815,-13.7815,-13.7815,-13.8413,-13.7965,-13.3777,-13.288,-13.1384,-12.6374,-12.6,-12.63,-12.5576,-12.944,-13.3329,-13.4899,-14.0133,-14.5443,-14.9481,-15.15,-15.2621,-15.2546,-15.1873,-15.1724,-15.2696,-15.4266,-15.6584,-15.9949,-16.0996,-16.0398,-15.7781,-15.8454,-16.0024,-16.2417,-16.496,-16.6605,-16.7352,-16.7352,-16.7352,-16.7352,-16.7352,-16.7352,-16.7352,-16.7352,-16.7352,-16.7352,-16.7352,-16.7352,-16.732,-16.6659,-16.6481,-16.6262,-16.4342,-16.3652,-16.3557,-16.2942,-16.4047,-16.6037,-16.6775,-16.8855,-17.0672,-16.7187,-16.6376,-16.634,-16.4684,-16.2954,-16.1225,-15.9195,-15.7474,-15.6047,-15.5262,-15.4477,-15.3906,-15.3978,-15.3978,-15.355,-15.198,-15.2836,-15.3264,-15.0707,-15.1623,-15.2265,-15.0493,-15.0981,-15.148,-15.148,-15.2123,-15.3193,-15.4834,-15.5048,-15.6261,-15.94,-15.9757,-15.9757,-15.9757,-15.9757,-15.9757,-15.9757,-15.9757,-15.9757,-15.9757,-15.9757,-15.9757,-15.9757,-15.9757,-15.9757,-15.9757,-15.9757,-15.9757,-15.9757,-15.9757,-15.9757,-13.774,-13.7815,-13.7815,-13.7815,-13.8862,-13.9161,-13.617,-13.5497,-13.46,-13.1459,-13.0861,-13.0936,-13.1235,-13.4076,-13.7516,-14.1031,-14.4396,-14.806,-15.2397,-15.4491,-15.4715,-15.2472,-15.2397,-15.2098,-15.0752,-15.1799,-15.3967,-15.7407,-15.6809,-15.5911,-15.479,-15.4715,-15.6809,-16.152,-16.3015,-16.481,-16.6979,-16.7203,-16.7352,-16.7352,-16.7352,-16.7352,-16.7352,-16.7352,-16.7352,-16.7352,-16.7352,-16.7352,-16.7288,-16.5964,-16.5461,-16.5144,-16.2687,-16.1707,-16.1707,-16.1499,-16.2181,-16.356,-16.4804,-16.6931,-16.8487,-16.4857,-16.4444,-16.497,-16.3019,-16.2016,-16.1111,-15.8833,-15.7865,-15.7189,-15.5833,-15.5262,-15.4763,-15.3478,-15.3193,-15.2836,-15.1409,-15.2194,-15.2765,-15.1409,-15.2265,-15.2765,-15.1338,-15.2265,-15.3193,-15.3193,-15.4263,-15.569,-15.726,-15.7474,-15.8045,-15.9615,-15.9543,-15.9472,-15.9757,-15.9543,-15.94,-15.94,-15.94,-15.94,-15.94,-15.9615,-15.9615,-15.94,-15.9615,-15.9615,-15.94,-15.9615,-15.9757,-15.9757,-15.9757,-15.9757,-13.7441,-13.7815,-13.7815,-13.7815,-13.7965,-13.7666,-13.5871,-13.5497,-13.4974,-13.3029,-13.2656,-13.3104,-13.4525,-13.7516,-14.1255,-14.5966,-14.9481,-15.2322,-15.4491,-15.6285,-15.5612,-15.1126,-15.1799,-15.2501,-15.2322,-15.2472,-15.3967,-15.7407,-15.3668,-15.1724,-15.2846,-15.292,-15.4565,-15.8155,-15.8529,-16.0772,-16.5333,-16.6679,-16.7352,-16.7352,-16.7352,-16.7352,-16.7352,-16.7352,-16.7352,-16.7352,-16.7352,-16.7352,-16.7288,-16.5964,-16.5461,-16.5144,-16.2687,-16.1707,-16.1595,-16.0483,-16.0878,-16.2037,-16.2255,-16.3972,-16.5758,-16.4172,-16.4329,-16.5046,-16.4936,-16.3205,-16.1215,-16.1166,-15.9359,-15.7403,-15.7189,-15.6118,-15.5048,-15.4834,-15.4763,-15.4691,-15.4477,-15.462,-15.4691,-15.4477,-15.462,-15.4691,-15.4477,-15.462,-15.4763,-15.4763,-15.4977,-15.569,-15.726,-15.7474,-15.8045,-15.9615,-15.8544,-15.833,-15.9686,-15.8544,-15.7759,-15.7759,-15.7759,-15.7759,-15.7759,-15.9044,-15.9115,-15.7759,-15.9044,-15.9115,-15.7759,-15.9115,-15.9757,-15.9757,-15.9757,-15.9757,-13.5796,-13.7142,-13.7815,-13.7815,-13.8563,-13.8787,-13.7142,-13.7516,-13.774,-13.6021,-13.7217,-13.8488,-13.8264,-14.1629,-14.4919,-14.6116,-14.8284,-15.0453,-15.2173,-15.3818,-15.3967,-15.1799,-15.2995,-15.3668,-15.2696,-15.1799,-15.2247,-15.464,-15.1948,-15.0154,-14.9854,-15.0752,-15.1948,-15.3444,-15.6211,-15.9127,-16.2193,-16.5633,-16.7352,-16.7352,-16.7352,-16.7352,-16.7352,-16.7352,-16.7352,-16.7352,-16.7352,-16.7352,-16.7255,-16.5259,-16.446,-16.419,-16.1651,-16.0653,-16.0532,-16.0,-16.0592,-16.1595,-16.0878,-16.18,-16.3364,-16.3582,-16.3929,-16.4411,-16.5199,-16.4075,-16.2461,-16.1928,-16.0823,-15.9706,-15.8937,-15.8259,-15.7474,-15.6618,-15.6404,-15.619,-15.5262,-15.5119,-15.4834,-15.3978,-15.3835,-15.3835,-15.3835,-15.5262,-15.6404,-15.6404,-15.7189,-15.7973,-15.8687,-15.8758,-15.9044,-15.9686,-15.9186,-15.8687,-15.8473,-15.7831,-15.7117,-15.619,-15.6118,-15.6118,-15.6118,-15.676,-15.6832,-15.6118,-15.6832,-15.726,-15.7474,-15.8116,-15.8901,-15.9757,-15.9757,-15.9757,-13.46,-13.632,-13.7292,-13.774,-13.8787,-13.9386,-13.8114,-13.8787,-13.946,-13.8638,-14.0133,-14.1479,-14.1031,-14.4022,-14.6489,-14.6489,-14.791,-14.9406,-15.0677,-15.2247,-15.292,-15.2098,-15.3444,-15.3967,-15.2696,-15.15,-15.15,-15.3145,-15.1724,-15.0303,-14.9032,-14.978,-15.0453,-15.0827,-15.4042,-15.6734,-15.8678,-16.2417,-16.4885,-16.6156,-16.6979,-16.7352,-16.7352,-16.7352,-16.7352,-16.732,-16.7048,-16.7081,-16.7114,-16.4326,-16.334,-16.3389,-16.0759,-15.9757,-15.9757,-15.9757,-16.0422,-16.1112,-16.0125,-16.0653,-16.1928,-16.284,-16.3389,-16.382,-16.4722,-16.4145,-16.2942,-16.1965,-16.1499,-16.0995,-16.0,-15.9757,-15.9472,-15.833,-15.8045,-15.7688,-15.6546,-15.6261,-15.5833,-15.4263,-15.3978,-15.3978,-15.3978,-15.6261,-15.8045,-15.8045,-15.9044,-15.9757,-15.9757,-15.9044,-15.8758,-15.9115,-15.883,-15.8259,-15.7545,-15.7117,-15.6332,-15.5191,-15.4691,-15.4477,-15.4477,-15.4905,-15.4905,-15.4549,-15.4905,-15.5476,-15.6261,-15.7046,-15.8045,-15.9186,-15.9615,-15.9543,-13.46,-13.5572,-13.5946,-13.7441,-13.789,-13.789,-13.7815,-13.789,-13.8413,-13.9909,-13.9086,-13.9012,-14.2152,-14.2975,-14.462,-14.9256,-15.1275,-15.2397,-15.2472,-15.3967,-15.3818,-15.0752,-15.1724,-15.2696,-15.2546,-15.2501,-15.3145,-15.4865,-15.3444,-15.2397,-15.2322,-15.0976,-15.0901,-15.2397,-15.1275,-15.2173,-15.5313,-15.5612,-15.808,-16.2791,-16.5857,-16.7352,-16.7352,-16.7352,-16.7352,-16.7288,-16.6039,-16.6225,-16.7081,-16.3389,-16.2604,-16.3389,-16.0759,-15.9757,-15.9757,-15.9757,-15.9821,-15.9884,-15.9821,-16.0653,-16.1763,-16.1818,-16.2708,-16.3678,-16.3751,-16.2862,-16.1818,-16.1763,-16.0819,-15.9884,-15.9821,-15.9757,-15.9757,-15.9686,-15.9686,-15.9615,-15.9543,-15.9543,-15.9044,-15.7545,-15.726,-15.726,-15.726,-15.8544,-15.9686,-15.9686,-15.9686,-15.9757,-15.9757,-15.7189,-15.5904,-15.7403,-15.6261,-15.5904,-15.7331,-15.6047,-15.5191,-15.5119,-15.3692,-15.2907,-15.2907,-15.4334,-15.4406,-15.2907,-15.4334,-15.4406,-15.305,-15.6047,-15.7474,-15.7617,-15.9044,-15.8972,-13.2656,-13.4675,-13.5871,-13.7441,-13.7815,-13.7815,-13.7815,-13.7815,-13.7666,-13.7292,-13.9311,-14.1105,-14.1255,-14.2975,-14.5293,-14.8209,-14.8209,-14.8209,-14.9331,-15.0901,-15.1574,-15.0378,-15.2621,-15.4192,-15.4192,-15.5164,-15.5612,-15.5164,-15.4565,-15.3743,-15.2621,-15.2052,-15.1574,-15.1126,-15.15,-15.2322,-15.3519,-15.4565,-15.6584,-15.9426,-16.2641,-16.5333,-16.7352,-16.7352,-16.7352,-16.7288,-16.5964,-16.5659,-16.5888,-16.2942,-16.1965,-16.2234,-16.0483,-15.9757,-15.9757,-15.9757,-15.9757,-15.9757,-15.9757,-16.0063,-16.0592,-16.1499,-16.1499,-16.1499,-16.3142,-16.2811,-16.1707,-16.1707,-16.1385,-16.0819,-16.0,-15.9757,-15.9757,-15.9757,-15.9757,-15.9757,-15.9757,-15.9757,-15.9044,-15.6475,-15.5976,-15.5976,-15.5976,-15.6404,-15.7474,-15.9472,-15.9757,-15.9757,-15.9757,-15.7902,-15.6832,-15.7403,-15.6047,-15.4905,-15.4477,-15.3906,-15.3121,-15.2051,-15.148,-15.1195,-15.1195,-15.1694,-15.1766,-15.1195,-15.0695,-15.0695,-15.1195,-15.1266,-15.2408,-15.4477,-15.5048,-15.5547,-12.9739,-13.2506,-13.4899,-13.5946,-13.6993,-13.7815,-13.7815,-13.7551,-13.6917,-13.5744,-13.8223,-14.02,-13.8985,-14.1405,-14.3947,-14.5069,-14.5218,-14.5592,-14.6714,-14.8359,-14.963,-15.0154,-15.2621,-15.4491,-15.5089,-15.6136,-15.6584,-15.5986,-15.5986,-15.5463,-15.4341,-15.3743,-15.292,-15.1948,-15.2322,-15.2546,-15.2546,-15.3668,-15.5388,-15.7631,-15.98,-16.2567,-16.5782,-16.6306,-16.6367,-16.5878,-16.5159,-16.4851,-16.4635,-16.2127,-16.1328,-16.1595,-16.03,-15.9757,-15.9757,-15.9757,-15.9757,-15.9757,-15.9757,-15.9757,-15.9947,-16.0759,-16.0472,-16.0125,-16.1873,-16.1763,-16.1112,-16.1112,-16.1112,-16.0878,-16.0,-15.9757,-15.9757,-15.9757,-15.9757,-15.9757,-15.9757,-15.9757,-15.8972,-15.6404,-15.5476,-15.5119,-15.5119,-15.5119,-15.5976,-15.8616,-15.9472,-15.9757,-15.9757,-15.8402,-15.726,-15.676,-15.619,-15.5048,-15.2979,-15.3264,-15.2836,-15.1266,-15.0564,-14.9994,-14.9554,-14.9483,-14.9209,-14.871,-14.7699,-14.7699,-14.8639,-14.8698,-14.9839,-15.198,-15.305,-15.3835,-12.6225,-12.9291,-13.288,-13.288,-13.5273,-13.7591,-13.7564,-13.6701,-13.5843,-13.546,-13.5778,-13.5992,-13.5514,-13.804,-14.0208,-14.0283,-14.305,-14.5143,-14.5218,-14.6639,-14.8359,-15.0004,-15.1574,-15.3145,-15.479,-15.5089,-15.5837,-15.7482,-15.7631,-15.7631,-15.7631,-15.6061,-15.5164,-15.5164,-15.3519,-15.2621,-15.2546,-15.2546,-15.4266,-15.7482,-15.7557,-15.9276,-16.2417,-16.4137,-16.4272,-16.3163,-16.3454,-16.3678,-16.3438,-16.0819,-16.0532,-16.1612,-16.0239,-15.9757,-15.9757,-15.9757,-15.9757,-15.9757,-15.9757,-15.9757,-15.9757,-15.9757,-15.9757,-15.9757,-15.9757,-15.9757,-15.9757,-15.9757,-15.9757,-15.9686,-15.9757,-15.9757,-15.9686,-15.9757,-15.9757,-15.9757,-15.9757,-15.9757,-15.9329,-15.7759,-15.619,-15.5119,-15.5119,-15.5119,-15.5619,-15.726,-15.8758,-15.9757,-15.9757,-15.8473,-15.6903,-15.5333,-15.6475,-15.619,-15.3121,-15.4192,-15.4406,-15.2907,-15.1195,-14.9554,-14.8055,-14.7913,-14.7199,-14.5701,-14.563,-14.563,-14.563,-14.8639,-15.0136,-15.0208,-15.3407,-15.412,-13.0113,-13.101,-13.116,-13.116,-13.1833,-13.2302,-13.1493,-13.0256,-12.9867,-13.2086,-13.2631,-13.2978,-13.3572,-13.5422,-13.7591,-13.9984,-14.2152,-14.3947,-14.5069,-14.6639,-14.791,-14.8359,-14.9854,-15.1051,-15.1574,-15.3743,-15.5313,-15.5762,-15.6958,-15.7631,-15.7631,-15.7183,-15.636,-15.5164,-15.4715,-15.3818,-15.2621,-15.2546,-15.307,-15.3967,-15.651,-15.808,-15.9052,-16.1894,-16.3636,-16.4422,-16.263,-16.253,-16.3438,-16.0819,-16.0,-16.0239,-15.9947,-15.9757,-15.9757,-15.9757,-15.9757,-15.9757,-15.9757,-15.9757,-15.9757,-15.9757,-15.9757,-15.9757,-15.9757,-15.9757,-15.9757,-15.9757,-15.8972,-15.8402,-15.9472,-15.8972,-15.8402,-15.9472,-15.9757,-15.9757,-15.9757,-15.9757,-15.9329,-15.7759,-15.619,-15.5119,-15.5119,-15.5119,-15.5619,-15.726,-15.8758,-15.9757,-15.9757,-15.94,-15.8544,-15.6974,-15.619,-15.5405,-15.4549,-15.3835,-15.3264,-15.2765,-15.0125,-14.8912,-14.9566,-14.7485,-14.6557,-14.7271,-14.62,-14.563,-14.563,-14.6486,-14.7485,-14.8626,-14.9483,-15.0267,-12.2935,-12.3458,-12.3757,-12.5851,-12.5327,-12.523,-12.9099,-12.7296,-12.573,-12.8852,-13.014,-13.0978,-13.1726,-13.3852,-13.6095,-13.804,-14.0283,-14.2152,-14.305,-14.5218,-14.6714,-14.6714,-14.7536,-14.8733,-15.0079,-15.1948,-15.3668,-15.5014,-15.6061,-15.6884,-15.7631,-15.7631,-15.7183,-15.6211,-15.6136,-15.5687,-15.4715,-15.4715,-15.4715,-15.4715,-15.6734,-15.7631,-15.7706,-15.9576,-16.137,-16.2846,-16.1516,-16.1204,-16.1739,-16.0146,-15.9666,-15.9757,-15.9757,-15.9757,-15.9686,-15.9044,-15.9186,-15.9757,-15.9757,-15.9757,-15.9757,-15.9757,-15.9757,-15.9757,-15.9757,-15.9757,-15.9757,-15.9757,-15.9115,-15.8616,-15.9543,-15.9115,-15.8687,-15.9543,-15.9757,-15.9757,-15.9757,-15.9757,-15.9472,-15.8616,-15.7189,-15.5833,-15.5191,-15.5619,-15.6404,-15.7331,-15.8758,-15.9757,-15.9757,-15.9757,-15.94,-15.8544,-15.7046,-15.5547,-15.4263,-15.3336,-15.2479,-15.1766,-14.9982,-14.9054,-14.9268,-14.6914,-14.5701,-14.5986,-14.4488,-14.3346,-14.2704,-14.3988,-14.4773,-14.5059,-14.6343,-14.7128,-10.9346,-11.0746,-11.3438,-11.7476,-11.6205,-11.6493,0.0,-12.4056,-12.1041,-12.4345,-12.6671,-12.8373,-12.9434,-13.2207,-13.46,-13.5348,-13.804,-14.0133,-14.0283,-14.2975,-14.4919,-14.4695,-14.4994,-14.6415,-14.9406,-15.0004,-15.1425,-15.4341,-15.4715,-15.5463,-15.7033,-15.7257,-15.7332,-15.7332,-15.7557,-15.7631,-15.7631,-15.7631,-15.7631,-15.7631,-15.7631,-15.7631,-15.7631,-15.7631,-15.8379,-15.9769,-16.0275,-15.9936,-15.9062,-15.901,-15.9078,-15.9258,-15.9258,-15.9258,-15.9044,-15.7688,-15.8045,-15.9258,-15.9258,-15.9258,-15.9258,-15.9472,-15.9543,-15.9543,-15.9686,-15.9757,-15.9757,-15.9757,-15.9686,-15.9543,-15.9757,-15.9615,-15.9543,-15.9757,-15.9757,-15.9757,-15.9757,-15.9757,-15.9757,-15.9757,-15.8544,-15.7046,-15.5619,-15.6546,-15.7331,-15.6974,-15.8259,-15.9258,-15.9258,-15.9258,-15.9258,-15.9258,-15.8045,-15.6047,-15.3264,-15.2907,-15.2123,-15.0636,-15.0208,-14.9483,-14.827,-14.6343,-14.4702,-14.3275,-14.1705,-14.0135,-13.8582,-14.1562,-14.2276,-14.0992,-14.3774,-14.3988,0.0,0.0,0.0,0.0,0.0,0.0,0.0,-10.6698,-10.7529,-11.3448,-11.6053,-11.8804,-12.3612,-12.615,-12.9216,-13.46,-13.7067,-13.8787,-14.0133,-14.2078,-14.2825,-14.1479,-14.3648,-14.5443,-14.6116,-14.8658,-15.0527,-15.1126,-15.2397,-15.3219,-15.3519,-15.4865,-15.5612,-15.5612,-15.6958,-15.7631,-15.7631,-15.7631,-15.7631,-15.7631,-15.7631,-15.7631,-15.7631,-15.7631,-15.7856,-15.8155,-15.9463,-15.9421,-15.8236,-15.7621,-15.6775,-15.5976,-15.5976,-15.5976,-15.5976,-15.569,-15.5761,-15.5976,-15.5976,-15.5976,-15.619,-15.7474,-15.7902,-15.8116,-15.94,-15.9757,-15.9757,-15.9757,-15.8901,-15.8187,-15.9472,-15.883,-15.8259,-15.9472,-15.9757,-15.9757,-15.9757,-15.9757,-15.9757,-15.9757,-15.8544,-15.7331,-15.7046,-15.726,-15.6618,-15.4049,-15.4977,-15.5976,-15.5976,-15.5976,-15.5976,-15.5976,-15.5761,-15.5333,-15.4691,-15.3478,-15.2622,-15.2337,-14.9839,-14.884,-14.9768,-14.5915,-14.356,-14.3275,-14.1705,-14.0135,-13.8582,-14.0492,-14.1206,-14.092,-14.1562,-13.8994,0.0,0.0,0.0,0.0,0.0,0.0,0.0,0.0,0.0,0.0,0.0,-11.1155,-11.7114,0.0,-12.4804,-12.9739,-13.3254,-13.6021,-13.7666,-13.9311,-13.9759,-13.8114,-14.0806,-14.3124,-14.3947,-14.6265,-14.806,-14.8957,-15.0527,-15.1799,-15.2546,-15.3369,-15.4266,-15.5089,-15.5911,-15.6809,-15.7631,-15.7631,-15.7631,-15.7631,-15.7631,-15.7631,-15.7631,-15.7631,-15.7631,-15.7706,-15.8454,-15.8428,-15.7817,-15.755,-15.6915,-15.5825,-15.4301,-15.3766,-15.3906,-15.3906,-15.4406,-15.5119,-15.5119,-15.5119,-15.5262,-15.6047,-15.6261,-15.6404,-15.7189,-15.7403,-15.7403,-15.7403,-15.7474,-15.7617,-15.8402,-15.8616,-15.883,-15.9615,-15.9757,-15.9757,-15.9757,-15.9757,-15.9757,-15.9757,-15.8544,-15.7189,-15.6404,-15.6261,-15.5761,-15.4192,-15.462,-15.5119,-15.5119,-15.5119,-15.4477,-15.2836,-15.198,-15.148,-15.148,-15.0053,-14.9839,-15.1409,-14.9268,-14.827,-14.9054,-14.4559,-14.2062,-14.2062,-13.9779,-13.7424,-13.5069,-13.6711,-13.6639,-13.5069,-13.4285,-13.2715,0.0,0.0,0.0,0.0,0.0,0.0,0.0,0.0,0.0,0.0,0.0,0.0,0.0,0.0,0.0,-12.4355,-12.9216,-13.2955,-13.4301,-13.5348,-13.5721,-13.5048,-13.789,-14.0507,-14.2227,-14.3872,-14.5443,-14.7088,-14.8508,-14.9929,-15.1574,-15.1948,-15.2771,-15.4117,-15.4491,-15.5463,-15.7108,-15.7183,-15.7332,-15.7631,-15.7631,0.0,-15.7631,-15.7631,-15.7631,-15.7631,-15.7631,-15.7631,-15.7645,-15.7604,-15.7242,-15.6304,-15.2902,-15.1886,-15.2183,-15.1957,-15.2622,-15.3764,-15.4049,-15.4192,-15.4192,-15.4549,-15.462,-15.4691,-15.4977,-15.5119,0.0,-15.5119,-15.6047,-15.6974,-15.6974,-15.7902,-15.8901,-15.8901,-15.8901,-15.8901,-15.8901,-15.8901,-15.8901,-15.8901,-15.7831,-15.6618,-15.5333,-15.4549,-15.3978,-15.3336,-15.3764,-15.3906,-15.3336,-15.3764,-15.3193,-15.0493,-14.9126,-14.8412,-14.8412,-14.6414,-14.6486,-14.9566,-14.777,-14.6414,-14.6129,-14.2205,-13.9636,-13.8708,-13.5926,-13.3214,-13.0717,-13.2001,-13.1288,-12.8719,-12.4438,-12.3582,0.0,0.0,0.0,0.0,0.0,0.0,0.0,0.0,0.0,0.0,0.0,0.0,0.0,0.0,0.0,0.0,-12.7496,-13.0786,-13.0936,-12.9964,-13.0188,-13.2955,-13.6095,-13.8787,-14.0432,-14.2152,-14.3797,-14.5368,-14.5667,-14.6489,-14.8209,-14.9705,0.0,0.0,0.0,-15.3668,-15.5388,-15.5388,-15.6136,-15.7631,-15.7631,-15.7631,-15.7631,-15.7631,-15.7631,-15.7631,-15.7631,-15.7631,-15.757,-15.645,-15.5894,-15.5433,-15.1117,-14.9757,-15.0043,-14.8864,-14.8555,-14.8912,-15.0339,0.0,0.0,-15.2551,-15.305,-15.3336,-15.4691,-15.5119,-15.5119,-15.5119,-15.5262,-15.5333,-15.5333,-15.5476,-15.5619,-15.5619,-15.5619,-15.5619,-15.5619,-15.5619,-15.5619,-15.5619,-15.5476,-15.5333,-15.5119,-15.2765,-14.9851,-14.7128,-14.9054,-14.978,-14.7057,-14.9126,-15.0636,-15.0279,0.0,0.0,-14.9994,-14.6058,-14.4845,-14.7984,-14.4131,-14.1134,-13.9707,-13.7781,-13.4855,-13.0646,-12.8862,-12.7792,-12.7506,-12.7649,-12.7577,-12.6864,-11.2665,-10.8341,0.0,0.0,0.0,0.0,0.0,0.0,0.0,0.0,0.0,0.0,0.0,0.0,0.0,0.0,0.0,0.0,-11.8597,-12.1215,-11.927,-12.3383,-12.7122,-12.8543,-13.1534,-13.4151,-13.5871,-13.8413,-14.0208,-14.0881,-14.2751,-14.4545,-14.619,-14.6938,-14.8209,-15.0228,-15.0901,-15.2023,-15.3668,-15.3668,-15.3967,-15.4715,-15.4715,-15.4715,-15.4715,-15.4715,-15.4715,-15.479,-15.5762,-15.5612,-15.476,-15.5165,-15.4995,-15.4082,0.0,0.0,0.0,0.0,-14.7155,-14.67,-14.7342,-14.7497,-14.764,-14.8412,-14.8626,-14.8769,-14.9411,-15.0196,-15.091,-15.091,-15.2265,-15.3764,-15.3764,-15.4406,-15.5119,-15.5119,-15.5119,-15.5119,-15.5119,-15.5119,-15.5119,-15.5119,-15.4334,0.0,-15.2479,-15.041,-14.8769,-14.8353,-14.9423,-14.978,-14.8425,-14.9423,-14.9566,-14.777,-14.6771,-14.62,-14.62,-14.356,0.0,0.0,0.0,-14.2918,-14.1348,-13.9779,0.0,0.0,0.0,0.0,0.0,0.0,0.0,0.0,-10.4703,-10.2961,0.0,0.0,0.0,0.0,0.0,0.0,0.0,0.0,0.0,0.0,0.0,0.0,0.0,0.0,0.0,0.0,-11.0297,-11.4036,-11.1173,-11.7401,-12.2561,-12.3458,-12.7272,-13.0113,-13.0861,-13.4301,-13.6843,-13.774,-14.0133,-14.2377,-14.447,-14.4545,-14.5667,-14.8135,-14.8658,-14.963,-15.12,-15.1724,-15.2173,-15.2546,-15.2546,-15.2546,-15.2546,-15.2546,-15.2546,-15.2621,-15.3892,-15.3743,-15.2696,-15.3892,-15.3897,-15.2922,-15.0411,-14.903,-14.8244,-14.6655,-14.5564,-14.5059,-14.5487,-14.563,-14.563,-14.563,-14.563,-14.563,-14.563,-14.6414,-14.7271,-14.7271,-14.8983,-15.0838,-15.0838,-15.198,-15.3121,-15.3121,-15.3478,-15.3764,-15.3764,-15.3764,-15.3764,-15.3764,-15.2194,-15.041,-14.9138,-14.8055,-14.7413,-14.7699,-14.8425,-14.8639,-14.7783,-14.8425,-14.8068,-14.5844,-14.4559,-14.3917,-14.3917,-14.1705,-14.1634,-14.4773,-14.3774,-14.2704,-14.1991,-13.9636,-13.564,-12.9841,-12.2297,-11.5162,0.0,0.0,0.0,0.0,0.0,0.0,0.0,0.0,0.0,0.0,0.0,0.0,0.0,0.0,0.0,0.0,0.0,0.0,0.0,0.0,0.0,0.0,0.0,0.0,-11.1023,-11.2444,-11.4859,-11.8074,-12.4206,-12.7571,-12.5926,-13.0263,-13.445,-13.7591,-13.789,-13.946,-14.2751,-14.2947,-14.2975,-14.3124,-14.4545,-14.619,-14.7835,-14.9481,-15.1051,-15.2546,-15.2546,-15.2546,-15.2546,-15.2546,-15.2546,-15.2546,-15.2621,-15.2621,-15.2546,-15.2621,-15.2621,-15.2159,-14.7829,-14.6411,-14.6529,-14.3845,-14.3026,-14.356,-14.5059,-14.563,-14.563,-14.563,-14.563,-14.563,-14.563,-14.563,-14.5701,-14.5701,-14.5772,-14.5844,-14.5844,-14.6985,-14.8127,-14.8127,-14.934,-15.0422,-15.0422,-15.0422,-15.0422,-15.0422,-14.7925,-14.5844,-14.5772,-14.5701,-14.4702,-14.1705,-14.3846,0.0,-14.1634,-14.3917,-14.5701,-14.563,-14.5558,-14.5558,-14.5558,-14.1348,-13.9993,-14.3132,-13.9065,-13.721,-13.8653,-13.4356,-12.9647,-12.4866,-11.8516,-11.1408,-10.3633,0.0,0.0,0.0,0.0,0.0,0.0,0.0,0.0,0.0,0.0,0.0,0.0,0.0,0.0,0.0,0.0,0.0,0.0,0.0,0.0,0.0,0.0,0.0,0.0,-10.7829,-11.2466,-11.4709,-11.6952,-11.7177,-11.441,-12.0616,-12.5327,-12.6374,-13.1534,-13.6021,-13.9386,-13.9535,-14.0582,-14.2825,-14.3424,-14.3947,-14.4545,-14.5069,-14.619,-14.7686,-14.7686,-14.8284,-14.9331,-14.9331,-14.9331,-14.9406,-15.0527,-15.0378,-14.9481,-15.0602,-14.9107,-14.5881,-14.3667,-14.2462,-14.1837,-14.0211,-13.919,-13.8708,-13.9208,-13.9422,-13.9422,-13.9422,-13.9422,-13.9208,-13.8209,-13.8637,-13.9636,-14.0706,-14.1705,-14.2989,-14.5059,-14.5986,-14.6414,-14.6414,-14.6771,-14.7199,-14.7199,-14.7199,-14.7199,-14.7199,-14.4631,-14.1206,-13.7067,-14.0635,-14.2276,-13.7067,-14.1634,-14.5201,-14.4202,-14.4987,-14.563,-14.563,-14.563,-14.5201,-14.4131,-14.2633,-14.1277,-14.0278,-13.8708,-13.7567,-13.7067,-13.35,-13.036,-12.772,-12.351,-11.4948,-10.1819,0.0,0.0,0.0,0.0,0.0,0.0,0.0,0.0,0.0,0.0,0.0,0.0,0.0,0.0,0.0,0.0,0.0,0.0,0.0,0.0,0.0,0.0,0.0,0.0,0.0,0.0,-11.1344,-11.2092,0.0,-10.7755,-11.2765,-11.6526,-11.7124,-12.2635,-12.787,-13.2356,-13.3104,-13.5273,-13.9209,-14.0507,-14.1105,-14.1105,-14.2302,-14.3424,-14.4396,-14.4396,-14.4994,-14.6041,-14.6041,-14.6041,-14.6041,-14.7162,-14.7013,-14.6013,-14.6124,-14.4288,-14.135,-14.0319,-13.9092,-13.7732,-13.7091,-13.586,-13.4499,-13.3928,-13.3785,-13.3642,-13.3143,-13.1787,-13.0289,-12.9861,-12.9647,-13.0075,-13.2857,-13.5141,-13.7495,-14.0635,-14.2276,-14.3132,-14.3132,-14.356,-14.3917,-14.3917,-14.3917,-14.3632,-14.249,-14.0635,-13.7281,-13.1002,-13.407,-13.6282,-13.2786,-13.6568,-14.0778,-14.356,-14.3917,-14.3917,-14.3917,-14.3917,-14.3346,-14.1705,-14.1562,-14.0492,-13.7923,-13.7781,-13.6782,-13.4641,-13.2643,-12.9004,-12.351,-12.03,-11.1737,0.0,0.0,0.0,0.0,0.0,0.0,0.0,0.0,0.0,0.0,0.0,0.0,0.0,0.0,0.0,0.0,0.0,0.0,0.0,0.0,0.0,0.0,0.0,0.0,0.0,0.0,0.0,-10.7605,-10.9122,0.0,0.0,0.0,0.0,-10.9795,-11.1793,-11.5681,-12.1939,-12.3907,-12.7197,-13.2256,-13.5497,-13.7217,-13.7591,-14.0806,-14.2451,-14.2601,-14.2601,-14.2751,-14.29,-14.29,-14.2873,-14.277,-14.277,-14.2742,-14.2433,-13.9398,-13.8107,-13.7984,-13.7038,-13.5441,-13.3672,-13.3594,-13.2358,-13.0535,-12.9321,-12.8841,-12.8505,-12.6864,-12.3154,-11.9586,-12.0799,-11.8944,0.0,0.0,-12.5865,-12.9004,-13.2358,-13.5569,-13.794,-13.8154,-13.9422,-14.0635,-14.0706,-14.0706,-13.9636,-13.614,-13.5498,-13.3428,-12.6793,0.0,-12.6721,-12.7934,-12.8648,-13.1787,-13.9351,-14.0564,-14.0706,-14.0706,-14.0706,-14.0135,-13.8582,-13.8494,-13.7781,-13.614,-13.5997,-13.457,-13.1378,-13.0879,-12.4959,-11.2718,-10.9082,0.0,0.0,0.0,0.0,0.0,0.0,0.0,0.0,0.0,0.0,0.0,0.0,0.0,0.0,0.0,0.0,0.0,0.0,0.0,0.0,0.0,0.0,0.0,0.0,0.0,0.0,-9.4594,-9.7809,-10.067,-10.0277,-9.751,0.0,0.0,0.0,0.0,0.0,0.0,-11.1867,-11.3662,-11.7924,-12.5378,-12.6374,-12.9216,-13.4151,-13.5048,-13.6694,-13.9161,-13.9161,-14.0432,-14.29,-14.29,-14.2438,-14.1586,-14.1586,-14.1146,-13.9877,-13.2607,-12.8914,-12.7284,-12.2166,-11.9857,-11.9262,-11.8493,-11.8215,-11.8753,-12.2053,-12.2748,-12.1727,-11.9015,-11.6518,-11.3735,-10.9525,0.0,0.0,0.0,0.0,-11.5019,-12.1655,-12.5794,-12.9076,-13.2572,-13.457,-13.6068,-13.721,-13.7424,-13.4784,-12.5722,-12.4937,-12.1869,-10.9739,-11.3521,0.0,-11.2379,-11.9729,-12.7363,-13.1716,-13.5283,-13.7424,-13.7424,-13.7424,-13.7281,-13.6853,-13.6853,-13.5712,-13.2929,-13.2786,-13.0795,-12.6382,-12.102,-11.5368,-10.9405,0.0,0.0,0.0,0.0,0.0,0.0,0.0,0.0,0.0,0.0,0.0,0.0,0.0,0.0,0.0,0.0,0.0,0.0,0.0,0.0,0.0,0.0,0.0,0.0,0.0,0.0,0.0,-8.8761,-9.3696,-9.7061,-9.4669,-9.1603,0.0,0.0,0.0,0.0,0.0,0.0,0.0,0.0,0.0,-11.5307,-11.6205,-11.8747,-12.321,-12.6823,-12.9515,-13.1384,-13.4301,-13.6694,-13.8536,-13.8536,-13.8167,-13.7534,-13.7042,-13.5446,-13.2571,-12.5951,-12.1783,-11.9071,0.0,0.0,0.0,0.0,-10.7873,-10.8193,-11.0297,-11.0244,-10.8763,-10.6316,0.0,0.0,0.0,0.0,0.0,0.0,0.0,-10.6315,-11.2094,-11.8516,-12.4153,-12.6793,-12.9219,-13.1145,-13.2001,-12.7292,-12.1084,-11.4805,-11.3806,-11.031,-9.8894,-10.1891,0.0,0.0,0.0,-12.0799,-12.7435,-13.2929,-13.6496,-13.721,-13.7281,-13.6996,-13.6282,-13.564,-13.3928,-13.0788,-12.9266,-12.579,-11.9859,-11.3752,-10.6598,0.0,0.0,0.0,0.0,0.0,0.0,0.0,0.0,0.0,0.0,0.0,0.0,0.0,0.0,0.0,0.0,0.0,0.0,0.0,0.0,0.0,0.0,0.0,0.0,0.0,0.0,0.0,0.0,0.0,-9.0032,-9.3921,0.0,0.0,0.0,0.0,0.0,0.0,0.0,0.0,0.0,0.0,0.0,0.0,0.0,-10.7456,-10.9827,-11.7079,-12.0916,-12.1215,-12.7421,-13.0487,-13.0711,-13.0936,-13.1334,-13.1652,-12.9441,0.0,-12.3365,-11.884,0.0,0.0,0.0,0.0,0.0,0.0,0.0,0.0,0.0,0.0,0.0,0.0,0.0,0.0,0.0,0.0,0.0,0.0,0.0,0.0,0.0,0.0,-11.9301,-11.9301,-12.2391,-12.5009,-12.3582,-11.3378,-10.4317,-10.3675,-10.2319,-9.8783,0.0,0.0,0.0,0.0,0.0,0.0,-12.3724,-13.1074,-13.5997,-13.7852,-13.7852,-13.7139,-13.5783,-13.4213,-13.1896,-12.8533,-12.4535,-11.905,-11.2012,-10.7082,0.0,0.0,0.0,0.0,0.0,0.0,0.0,0.0,0.0,0.0,0.0,0.0,0.0,0.0,0.0,0.0,0.0,0.0,0.0,0.0,0.0,0.0,0.0,0.0,0.0,0.0,0.0,0.0,0.0,0.0,0.0,0.0,0.0,0.0,0.0,0.0,0.0,0.0,0.0,0.0,0.0,0.0,0.0,0.0,0.0,0.0,0.0,0.0,0.0,0.0,-11.4859,-11.7401,-11.8747,-12.0093,-12.254,-12.5105,-11.67,-11.5002,-11.7473,-10.9988,0.0,0.0,0.0,0.0,0.0,0.0,0.0,0.0,0.0,0.0,0.0,0.0,0.0,0.0,0.0,0.0,0.0,0.0,0.0,0.0,0.0,0.0,-10.4745,-10.4745,-11.1095,-11.4617,-10.5601,0.0,0.0,0.0,0.0,0.0,0.0,0.0,0.0,0.0,0.0,0.0,-11.4163,-12.4153,-13.1573,-13.4427,-13.3571,-13.2715,-13.2429,-13.1002,-12.8111,-12.361,-11.557,-10.8324,0.0,0.0,0.0,0.0,0.0,0.0,0.0,0.0,0.0,0.0,0.0,0.0,0.0,0.0,0.0,0.0,0.0,0.0,0.0,0.0,0.0,0.0,0.0,0.0,0.0,0.0,0.0,0.0,0.0,0.0,0.0,0.0,0.0,0.0,0.0,0.0,0.0,0.0,0.0,0.0,0.0,0.0,0.0,0.0,0.0,0.0,0.0,0.0,0.0,0.0,0.0,0.0,0.0,0.0,0.0,0.0,0.0,0.0,-10.9849,-10.5011,0.0,0.0,0.0,0.0,0.0,0.0,0.0,0.0,0.0,0.0,0.0,0.0,0.0,0.0,0.0,0.0,0.0,0.0,0.0,0.0,0.0,0.0,0.0,0.0,0.0,0.0,0.0,0.0,0.0,0.0,0.0,0.0,0.0,0.0,0.0,0.0,0.0,0.0,0.0,0.0,-10.9383,-12.137,-13.0146,-13.2429,-13.2786,-13.2429,-13.1697,-13.0146,-12.5622,-11.706,-10.9715,0.0,0.0,0.0,0.0,0.0,0.0,0.0,0.0,0.0,0.0,0.0,0.0,0.0,0.0,0.0,0.0,0.0,0.0,0.0,0.0,0.0,0.0,0.0,0.0,0.0,0.0,0.0,0.0,0.0,0.0,0.0,0.0,0.0,0.0,0.0,0.0,0.0,0.0,0.0,0.0,0.0,0.0,0.0,0.0,0.0,0.0,0.0,0.0,0.0,0.0,0.0,0.0,0.0,0.0,0.0,0.0,0.0,0.0,0.0,-10.252,-9.6033,0.0,0.0,0.0,0.0,0.0,0.0,0.0,0.0,0.0,0.0,0.0,0.0,0.0,0.0,0.0,0.0,0.0,0.0,0.0,0.0,0.0,0.0,0.0,0.0,0.0,0.0,0.0,0.0,0.0,0.0,0.0,0.0,0.0,0.0,0.0,0.0,0.0,0.0,0.0,0.0,-10.6743,-11.9657,-12.9147,-13.1359,-13.2073,-13.2073,-13.1145,-12.9031,-12.2758,-11.1067,-10.3588,0.0,0.0,0.0,0.0,0.0,0.0,0.0,0.0,0.0,0.0,0.0,0.0,0.0,0.0,0.0,0.0,0.0,0.0,0.0,0.0,0.0,0.0,0.0,0.0,0.0,0.0,0.0,0.0,0.0,0.0,0.0,0.0,0.0,0.0,0.0,0.0,0.0,0.0,0.0,0.0,0.0,0.0,0.0,0.0,0.0,0.0,0.0,0.0,0.0,0.0,0.0,0.0,0.0,0.0,0.0,0.0,0.0,0.0,0.0,0.0,0.0,0.0,0.0,0.0,0.0,0.0,0.0,0.0,0.0,0.0,0.0,0.0,0.0,0.0,0.0,0.0,0.0,0.0,0.0,0.0,0.0,0.0,0.0,0.0,0.0,0.0,0.0,0.0,0.0,0.0,0.0,0.0,0.0,0.0,0.0,0.0,0.0,0.0,0.0,0.0,0.0,-10.4959,-11.7089,-12.6721,-13.1126,-12.9219,-12.8148,-12.9361,-12.5295,-11.82,-10.7674,0.0,0.0,0.0,0.0,0.0,0.0,0.0,0.0,0.0,0.0,0.0,0.0,0.0,0.0,0.0,0.0,0.0,0.0,0.0,0.0,0.0,0.0,0.0,0.0,0.0,0.0,0.0,0.0,0.0,0.0,0.0,0.0,0.0,0.0,0.0,0.0,0.0,0.0,0.0,0.0,0.0,0.0,0.0,0.0,0.0,0.0,0.0,0.0,0.0,0.0,0.0,0.0,0.0,0.0,0.0,0.0,0.0,0.0,0.0,0.0,0.0,0.0,0.0,0.0,0.0,0.0,0.0,0.0,0.0,0.0,0.0,0.0,0.0,0.0,0.0,0.0,0.0,0.0,0.0,0.0,0.0,0.0,0.0,0.0,0.0,0.0,0.0,0.0,0.0,0.0,0.0,0.0,0.0,0.0,0.0,0.0,0.0,0.0,0.0,0.0,0.0,0.0,-10.2176,-11.6447,-12.6721,-12.8576,-12.8505,-12.822,-12.7863,-12.4292,-11.5753,-10.0908,0.0,0.0,0.0,0.0,0.0,0.0,0.0,0.0,0.0,0.0,0.0,0.0,0.0,0.0,0.0,0.0,0.0,0.0,0.0,0.0,0.0,0.0,0.0,0.0,0.0,0.0,0.0,0.0,0.0,0.0,0.0,0.0,0.0,0.0,0.0,0.0,0.0,0.0,0.0,0.0,0.0,0.0,0.0,0.0,0.0,0.0,0.0,0.0,0.0,0.0,0.0,0.0,0.0,0.0,0.0,0.0,0.0,0.0,0.0,0.0,0.0,0.0,0.0,0.0,0.0,0.0,0.0,0.0,0.0,0.0,0.0,0.0,0.0,0.0,0.0,0.0,0.0,0.0,0.0,0.0,0.0,0.0,0.0,0.0,0.0,0.0,0.0,0.0,0.0,0.0,0.0,0.0,0.0,0.0,0.0,0.0,0.0,0.0,0.0,0.0,0.0,0.0,-10.0464,-11.5804,-12.6436,-12.6864,-12.7934,-12.7934,-12.6364,-12.288,-11.3368,-9.6096,0.0,0.0,0.0,0.0,0.0,0.0,0.0,0.0,0.0,0.0,0.0,0.0,0.0,0.0,0.0,0.0,0.0,0.0,0.0,0.0,0.0,0.0,0.0,0.0,0.0,0.0,0.0,0.0,0.0,0.0,0.0,0.0,0.0,0.0,0.0,0.0,0.0,0.0,0.0,0.0,0.0,0.0,0.0,0.0,0.0,0.0,0.0,0.0,0.0,0.0,0.0,0.0,0.0,0.0,0.0,0.0,0.0,0.0,0.0,0.0,0.0,0.0,0.0,0.0,0.0,0.0,0.0,0.0,0.0,0.0,0.0,0.0,0.0,0.0,0.0,0.0,0.0,0.0,0.0,0.0,0.0,0.0,0.0,0.0,0.0,0.0,0.0,0.0,0.0,0.0,0.0,0.0,0.0,0.0,0.0,0.0,0.0,0.0,0.0,0.0,0.0,0.0,-10.0464,-11.4877,-12.5223,-12.6793,-12.6935,-12.6364,-12.4723,-12.0345,-11.0703,0.0,0.0,0.0,0.0,0.0,0.0,0.0,0.0,0.0,0.0,0.0,0.0,0.0,0.0,0.0,0.0,0.0,0.0,0.0,0.0,0.0,0.0,0.0,0.0,0.0,0.0,0.0,0.0,0.0,0.0,0.0,0.0,0.0,0.0,0.0,0.0,0.0,0.0,0.0,0.0,0.0,0.0,0.0,0.0,0.0,0.0,0.0,0.0,0.0,0.0,0.0,0.0,0.0,0.0,0.0,0.0,0.0,0.0,0.0,0.0,0.0,0.0,0.0,0.0,0.0,0.0,0.0,0.0,0.0,0.0,0.0,0.0,0.0,0.0,0.0,0.0,0.0,0.0,0.0,0.0,0.0,0.0,0.0,0.0,0.0,0.0,0.0,0.0,0.0,0.0,0.0,0.0,0.0,0.0,0.0,0.0,0.0,0.0,0.0,0.0,0.0,0.0,0.0,-9.8323,-11.1309,-12.1584,-12.6436,-12.6008,-12.4729,-12.3139,-11.6802,-10.691,-9.2738,0.0,0.0,0.0,0.0,0.0,0.0,0.0,0.0,0.0,0.0,0.0,0.0,0.0,0.0,0.0,0.0,0.0,0.0,0.0,0.0,0.0,0.0,0.0,0.0,0.0,0.0,0.0,0.0,0.0,0.0,0.0,0.0,0.0,0.0,0.0,0.0,0.0,0.0,0.0,0.0,0.0,0.0,0.0,0.0,0.0,0.0,0.0,0.0,0.0,0.0,0.0,0.0,0.0,0.0,0.0,0.0,0.0,0.0,0.0,0.0,0.0,0.0,0.0,0.0,0.0,0.0,0.0,0.0,0.0,0.0,0.0,0.0,0.0,0.0,0.0,0.0,0.0,0.0,0.0,0.0,0.0,0.0,0.0,0.0,0.0,0.0,0.0,0.0,0.0,0.0,0.0,0.0,0.0,0.0,0.0,0.0,0.0,0.0,0.0,0.0,0.0,0.0,0.0,-11.0524,-12.1156,-12.3938,-12.4937,-12.3865,-11.9947,-11.4227,-10.4693,-9.0415,0.0,0.0,0.0,0.0,0.0,0.0,0.0,0.0,0.0,0.0,0.0,0.0,0.0,0.0,0.0,0.0,0.0,0.0,0.0,0.0,0.0,0.0,0.0,0.0,0.0,0.0,0.0,0.0,0.0,0.0,0.0,0.0,0.0,0.0,0.0,0.0,0.0,0.0,0.0,0.0,0.0,0.0,0.0,0.0,0.0,0.0,0.0,0.0,0.0,0.0,0.0,0.0,0.0,0.0,0.0,0.0,0.0,0.0,0.0,0.0,0.0,0.0,0.0,0.0,0.0,0.0,0.0,0.0,0.0,0.0,0.0,0.0,0.0,0.0,0.0,0.0,0.0,0.0,0.0,0.0,0.0,0.0,0.0,0.0,0.0,0.0,0.0,0.0,0.0,0.0,0.0,0.0,0.0,0.0,0.0,0.0,0.0,0.0,0.0,0.0,0.0,0.0,0.0,-11.1523,-12.2583,-12.0014,-12.3653,-12.3175,-11.5573,-11.2066,-10.3495,-8.7391,-7.8174,0.0,0.0,0.0,0.0,0.0,0.0,0.0,0.0,0.0,0.0,0.0,0.0,0.0,0.0,0.0,0.0,0.0,0.0,0.0,0.0,0.0,0.0,0.0,0.0,0.0,0.0,0.0,0.0,0.0,0.0,0.0,0.0,0.0,0.0,0.0,0.0,0.0,0.0,0.0,0.0,0.0,0.0,0.0,0.0,0.0,0.0,0.0,0.0,0.0,0.0,0.0,0.0,0.0,0.0,0.0,0.0,0.0,0.0,0.0,0.0,0.0,0.0,0.0,0.0,0.0,0.0,0.0,0.0,0.0,0.0,0.0,0.0,0.0,0.0,0.0,0.0,0.0,0.0,0.0,0.0,0.0,0.0,0.0,0.0,0.0,0.0,0.0,0.0,0.0,0.0,0.0,0.0,0.0,0.0,0.0,0.0,0.0,0.0,0.0,0.0,0.0,0.0,-10.8526,-11.5305,-11.9301,-11.9657,-11.7504,-11.2275,-10.7995,-9.9199,-8.4209,-7.5134,0.0,0.0,0.0,0.0,0.0,0.0,0.0,0.0,0.0,0.0,0.0,0.0,0.0,0.0,0.0,0.0,0.0,0.0,0.0,0.0,0.0,0.0,0.0,0.0,0.0,0.0,0.0,0.0,0.0,0.0,0.0,0.0,0.0,0.0,0.0,0.0,0.0,0.0,0.0,0.0,0.0,0.0,0.0,0.0,0.0,0.0,0.0,0.0,0.0,0.0,0.0,0.0,0.0,0.0,0.0,0.0,0.0,0.0,0.0,0.0,0.0,0.0,0.0,0.0,0.0,0.0,0.0,0.0,0.0,0.0,0.0,0.0,0.0,0.0,0.0,0.0,0.0,0.0,0.0,0.0,0.0,0.0,0.0,0.0,0.0,0.0,0.0,0.0,0.0,0.0,0.0,0.0,0.0,0.0,0.0,0.0,0.0,0.0,0.0,0.0,0.0,0.0,-9.5859,-10.396,-11.5305,-11.5906,-11.3629,-10.9046,-10.3952,-9.5311,-8.2089,-7.3058,0.0,0.0,0.0,0.0,0.0,0.0,0.0,0.0,0.0,0.0,0.0,0.0,0.0,0.0,0.0,0.0,0.0,0.0,0.0,0.0,0.0,0.0,0.0,0.0,0.0,0.0,0.0,0.0,0.0,0.0,0.0,0.0,0.0,0.0,0.0,0.0,0.0,0.0,0.0,0.0,0.0,0.0,0.0,0.0,0.0,0.0,0.0,0.0,0.0,0.0,0.0,0.0,0.0,0.0,0.0,0.0,0.0,0.0,0.0,0.0,0.0,0.0,0.0,0.0,0.0,0.0,0.0,0.0,0.0,0.0,0.0,0.0,0.0,0.0,0.0,0.0,0.0,0.0,0.0,0.0,0.0,0.0,0.0,0.0,0.0,0.0,0.0,0.0,0.0,0.0,0.0,0.0,0.0,0.0,0.0,0.0,0.0,0.0,0.0,0.0,0.0,0.0,0.0,-9.3899,-10.9311,-11.1648,-11.0206,-10.5556,-10.0394,-9.2185,-7.9865,0.0,0.0,0.0,0.0,0.0,0.0,0.0,0.0,0.0,0.0,0.0,0.0,0.0,0.0,0.0,0.0,0.0,0.0,0.0,0.0,0.0,0.0,0.0,0.0,0.0,0.0,0.0,0.0,0.0,0.0,0.0,0.0,0.0,0.0,0.0,0.0,0.0,0.0,0.0,0.0,0.0,0.0,0.0,0.0,0.0,0.0,0.0,0.0,0.0,0.0,0.0,0.0,0.0,0.0,0.0,0.0,0.0,0.0,0.0,0.0,0.0,0.0,0.0,0.0,0.0,0.0,0.0,0.0,0.0,0.0,0.0,0.0,0.0,0.0,0.0,0.0,0.0,0.0,0.0,0.0,0.0,0.0,0.0,0.0,0.0,0.0,0.0,0.0,0.0,0.0,0.0,0.0,0.0,0.0,0.0,0.0,0.0,0.0,0.0,0.0,0.0,0.0,0.0,0.0,-9.5398,-10.2176,-10.5452,-10.5402,-10.0915,-9.8625,-9.0844,-7.5651,0.0,0.0,0.0,0.0,0.0,0.0,0.0,0.0,0.0,0.0,0.0,0.0,0.0,0.0]}],[{"header":{"parameterUnit":"kt","parameterCategory":2,"dx":1,"dy":1,"la1":29.285339999999998,"la2":30.599998999999997,"lo1":-89.70041500000002,"lo2":-87.6738589999976,"nx":112,"ny":82,"refTime":"2022-10-23T12:00:00:Z","depth":0,"parameterNumber":2,"parameterNumberName":"V-component_of_WINDS"},"data":[2.5764,2.5922,0.0,2.3575,2.3048,0.0,2.0134,0.0,1.9989,0.0,0.0,0.0,0.0,0.0,0.0,0.0,0.0,0.0,0.0,0.0,0.0,0.0,0.0,0.0,0.0,0.0,0.0,0.0,0.0,0.0,0.0,0.0,2.7795,2.7795,2.7795,2.7795,2.7795,2.7795,2.7795,2.7808,2.8375,2.8652,2.8678,2.9245,2.9509,2.9509,2.9509,2.9509,2.9509,2.9509,2.9509,2.9509,2.9509,2.9509,3.0407,3.6862,4.3289,4.975,5.6001,5.4925,5.1339,5.4575,5.028,4.5271,5.3146,5.3322,5.189,5.6725,5.8147,5.8147,5.8147,5.8147,5.8147,5.8147,5.8147,5.8147,5.8147,5.8147,5.8147,5.8147,5.8147,5.8147,5.8147,5.8147,5.8147,5.8147,5.8147,5.8147,5.8147,5.8147,5.8147,5.8147,5.7134,5.6277,5.5862,5.5134,5.4857,5.4857,5.5065,5.503,5.503,5.5212,5.5602,5.6199,5.6199,5.6667,5.7601,5.7601,5.7783,5.8147,5.8147,5.8147,0.0,0.0,2.4709,2.2191,0.0,0.0,0.0,1.8525,1.8604,1.8043,1.8407,0.0,0.0,0.0,0.0,0.0,0.0,0.0,0.0,0.0,0.0,0.0,0.0,0.0,0.0,0.0,0.0,0.0,0.0,0.0,0.0,2.7742,2.7795,2.7795,2.7795,2.7795,2.7795,2.7795,2.7847,2.794,2.8428,2.8704,2.8823,2.9298,2.9456,2.9377,2.9469,2.9456,2.9377,2.9469,2.9509,2.9509,2.9509,2.9509,3.0407,3.6682,4.1161,4.5093,5.475,5.6001,5.3849,5.7075,5.3849,4.975,5.6176,5.5826,5.4024,5.7249,5.8147,5.8147,5.8147,5.8147,5.8147,5.8147,5.8147,5.8147,5.8147,5.8147,5.8147,5.8147,5.8147,5.8147,5.8147,5.8147,5.8147,5.8147,5.8147,5.8147,5.8147,5.8147,5.8095,5.7887,5.703,5.6381,5.6173,5.5264,5.4857,5.4857,5.4857,5.4857,5.4857,5.4857,5.4979,5.5602,5.581,5.6251,5.703,5.742,5.7679,5.7861,5.8069,5.8147,2.3839,0.0,2.3127,2.014,1.9765,1.9527,1.78,1.7813,1.813,1.7963,1.8248,1.8552,0.0,0.0,0.0,0.0,0.0,0.0,0.0,0.0,0.0,0.0,0.0,0.0,0.0,0.0,0.0,0.0,0.0,0.0,2.7215,2.7636,2.7795,2.7795,2.7795,2.7795,2.7795,2.7795,2.794,2.8217,2.8507,2.8797,2.9113,2.9377,2.9364,2.9126,2.939,2.9364,2.914,2.9403,2.9509,2.9509,2.9509,2.9509,3.059,3.9923,4.3488,4.5093,5.4375,5.7798,5.8147,5.8147,5.8147,5.8147,5.8147,5.8147,5.8147,5.8147,5.8147,5.8147,5.8147,5.8147,5.8147,5.8147,5.8147,5.8147,5.8147,5.8147,5.8147,5.8147,5.8147,5.8147,5.8147,5.8147,5.8147,5.8147,5.8147,5.8147,5.8147,5.8147,5.7939,5.7368,5.6796,5.6225,5.5654,5.5056,5.4857,5.4857,5.4857,5.4857,5.4857,5.4857,5.4979,5.5576,5.6121,5.6407,5.6433,5.755,5.7835,5.7316,5.7887,5.8147,2.1914,2.1914,2.1901,2.0266,1.9923,1.9633,1.8301,1.78,1.7642,1.787,1.7761,0.0,0.0,0.0,0.0,0.0,0.0,0.0,0.0,0.0,0.0,0.0,0.0,0.0,0.0,0.0,0.0,0.0,0.0,0.0,2.7571,2.7755,2.7795,2.7795,2.7795,2.7795,2.7795,2.7795,2.794,2.8203,2.8296,2.8599,2.91,2.9179,2.9285,2.9403,2.9482,2.9469,2.9403,2.9482,2.9509,2.9509,2.9509,2.9509,2.9874,3.2563,3.7764,4.4023,4.6694,5.2243,5.8147,5.8147,5.8147,5.8147,5.8147,5.8147,5.8147,5.8147,5.8147,5.8147,5.8147,5.8147,5.8147,5.8147,5.8147,5.8147,5.8147,5.8147,5.8147,5.8147,5.8147,5.8147,5.8147,5.8147,5.8147,5.8147,5.8147,5.8147,5.8147,5.8147,5.7939,5.7368,5.6796,5.6225,5.5654,5.5056,5.4857,5.4857,5.4857,5.4857,5.4857,5.4857,5.4935,5.4953,5.5108,5.5394,5.5836,5.6563,5.7056,5.7316,5.7887,5.8147,2.107,2.1083,2.1189,1.9791,1.9804,1.9752,1.8222,1.78,1.7708,1.7629,0.0,0.0,0.0,0.0,0.0,0.0,1.9277,0.0,0.0,0.0,0.0,0.0,0.0,0.0,0.0,0.0,0.0,0.0,0.0,2.5764,2.7518,2.7729,2.7795,2.7795,2.7795,2.7795,2.7795,2.7795,2.794,2.8203,2.8335,2.8639,2.91,2.9219,2.9298,2.9351,2.9456,2.9443,2.9351,2.9469,2.9509,2.9509,2.9509,2.9509,2.9874,3.185,3.7403,4.4023,4.5983,5.1714,5.8147,5.8147,5.8147,5.8147,5.8147,5.8147,5.8147,5.8147,5.8147,5.8147,5.8147,5.8147,5.8147,5.8147,5.8147,5.8147,5.8147,5.8147,5.8147,5.8147,5.8147,5.8147,5.8147,5.8147,5.8147,5.8147,5.8147,5.8147,5.8147,5.8147,5.7939,5.7368,5.6796,5.6225,5.5654,5.5056,5.4857,5.4857,5.4857,5.4857,5.4857,5.4857,5.4857,5.4857,5.4953,5.5134,5.5238,5.6303,5.6848,5.6978,5.7783,5.8147,2.0688,2.053,2.0442,1.9053,1.9396,1.9686,1.8077,0.0,1.8288,1.7985,0.0,1.7958,1.8348,0.0,0.0,0.0,0.0,0.0,2.0741,0.0,0.0,0.0,0.0,0.0,0.0,0.0,2.558,2.6859,2.5738,2.5698,2.732,2.765,2.7795,2.7795,2.7795,2.7795,2.7795,2.7795,2.794,2.8217,2.848,2.877,2.9113,2.9351,2.9351,2.9166,2.9403,2.9377,2.9166,2.9416,2.9509,2.9509,2.9509,2.9509,3.0056,3.4347,3.9367,4.4578,4.8666,5.3673,5.8147,5.8147,5.8147,5.8147,5.8147,5.8147,5.8147,5.8147,5.8147,5.8147,5.8147,5.8147,5.8147,5.8147,5.8147,5.8147,5.8147,5.8147,5.8147,5.8147,5.8147,5.8147,5.8147,5.8147,5.8147,5.8147,5.8147,5.8147,5.8147,5.8147,5.7939,5.7368,5.6796,5.6225,5.5654,5.5056,5.4857,5.4857,5.4857,5.4857,5.4857,5.4857,5.4857,5.4857,5.5238,5.5238,5.4883,5.6407,5.6978,5.6563,5.7653,5.8147,1.9079,1.8736,1.8802,1.871,1.8486,1.868,0.0,0.0,0.0,2.0951,0.0,0.0,0.0,0.0,0.0,0.0,0.0,0.0,0.0,0.0,0.0,0.0,0.0,0.0,0.0,2.6951,2.6964,2.7241,2.6779,2.6845,2.7663,2.7768,2.7795,2.7795,2.7795,2.7795,2.7795,2.7795,2.794,2.8203,2.8269,2.8573,2.91,2.9153,2.9271,2.9443,2.9482,2.9482,2.9443,2.9496,2.9509,2.9509,2.9509,2.9509,2.9691,3.059,3.6337,4.3845,4.4736,5.081,5.8147,5.8147,5.8147,5.8147,5.8147,5.8147,5.8147,5.8147,5.8147,5.8147,5.8147,5.8147,5.8147,5.8147,5.8147,5.8147,5.8147,5.8147,5.8147,5.8147,5.8147,5.8147,5.8147,5.8147,5.8147,5.8147,5.8147,5.8147,5.8147,5.8147,5.7939,5.7368,5.6796,5.6225,5.5654,5.5056,5.4857,5.4857,5.4857,5.4857,5.4857,5.4857,5.4857,5.4857,5.4987,5.4987,5.4857,5.5991,5.6796,5.716,5.7835,5.8147,1.8591,1.8341,1.842,1.8275,1.8341,0.0,0.0,1.9104,1.9303,2.0754,2.082,2.0925,2.1954,0.0,0.0,0.0,0.0,0.0,0.0,0.0,0.0,0.0,0.0,0.0,0.0,2.7004,2.6977,2.7122,2.7122,2.732,2.7768,2.7795,2.7795,2.7795,2.7795,2.7795,2.7795,2.7795,2.7861,2.8006,2.8296,2.8586,2.8889,2.9179,2.9377,2.9509,2.9509,2.9509,2.9509,2.9509,2.9509,2.9509,2.9509,2.9509,2.9509,2.9509,3.4,4.0624,4.2952,4.8489,5.4925,5.7249,5.8147,5.8147,5.8147,5.8147,5.8147,5.8147,5.8147,5.8147,5.8147,5.8147,5.8147,5.8147,5.8147,5.8147,5.8147,5.8147,5.8147,5.8147,5.8147,5.8147,5.8147,5.8147,5.8147,5.8147,5.8147,5.8147,5.8147,5.8147,5.8043,5.7757,5.6952,5.6329,5.6043,5.5212,5.4857,5.4857,5.4857,5.4857,5.4857,5.4857,5.4857,5.4857,5.4857,5.5013,5.516,5.6017,5.6744,5.7316,5.7887,5.8147,1.8248,1.8196,1.8354,1.8038,1.8367,0.0,1.8802,1.8855,1.9343,0.0,2.0978,2.1097,2.2639,2.3101,0.0,0.0,0.0,0.0,0.0,0.0,0.0,0.0,0.0,0.0,2.6859,2.6621,2.6582,2.6806,2.7096,2.7425,2.7781,2.7795,2.7795,2.7795,2.7795,2.7795,2.7795,2.7795,2.7795,2.7808,2.8322,2.8599,2.8665,2.9192,2.9456,2.9509,2.9509,2.9509,2.9509,2.9509,2.9509,2.9509,2.9509,2.9509,2.9509,2.9509,3.2563,3.7206,4.0982,4.5449,5.028,5.5101,5.6725,5.69,5.7798,5.8147,5.8147,5.8147,5.8147,5.8147,5.8147,5.8147,5.8147,5.8147,5.8147,5.8147,5.8147,5.8147,5.8147,5.8147,5.8147,5.8147,5.8147,5.8147,5.8147,5.8147,5.8147,5.8147,5.8147,5.8147,5.8147,5.8147,5.7134,5.6459,5.6459,5.5368,5.4857,5.4857,5.4857,5.4857,5.4857,5.4857,5.4857,5.4857,5.4857,5.5005,5.5602,5.6173,5.6796,5.7498,5.7939,5.8147,1.718,1.7299,1.7585,1.8407,1.8064,0.0,2.1677,2.1848,2.2085,0.0,2.5355,2.5382,2.558,2.5645,2.5659,0.0,0.0,0.0,0.0,0.0,0.0,0.0,0.0,0.0,2.6568,2.6516,2.6502,2.6542,2.6793,2.7201,2.7768,2.7795,2.7795,2.7795,2.7795,2.7795,2.7795,2.7795,2.7795,2.7795,2.8111,2.8401,2.8665,2.8995,2.9285,2.9509,2.9509,2.9509,2.9509,2.9509,2.9509,2.9509,2.9509,2.9509,2.9509,2.9509,3.2563,3.6862,3.7387,4.0624,4.5271,5.0103,5.1714,5.2595,5.69,5.8147,5.8147,5.8147,5.8147,5.8147,5.8147,5.8147,5.8147,5.8147,5.8147,5.8147,5.8147,5.8147,5.8147,5.8147,5.8147,5.8147,5.8147,5.8147,5.8147,5.8147,5.8147,5.8147,5.8147,5.8147,5.8147,5.8147,5.7134,5.6459,5.6459,5.5368,5.4857,5.4857,5.4857,5.4857,5.4857,5.4857,5.4857,5.4857,5.4857,5.5005,5.5602,5.6173,5.7004,5.8069,5.8121,5.8147,1.7113,1.7179,1.7389,1.8024,0.0,0.0,2.1044,2.1598,2.2336,0.0,2.4907,2.5052,2.5896,2.6186,2.6252,2.6081,0.0,0.0,0.0,0.0,0.0,0.0,0.0,0.0,0.0,2.6239,2.6371,2.6713,2.6832,2.7162,2.7768,2.7795,2.7795,2.7795,2.7795,2.7795,2.7795,2.7795,2.7795,2.7795,2.8072,2.8362,2.8665,2.8968,2.9258,2.9509,2.9509,2.9509,2.9509,2.9509,2.9509,2.9509,2.9509,2.9509,2.9509,2.9509,3.0772,3.2926,3.5779,3.7927,4.0982,4.8489,5.0986,5.1867,5.6725,5.8147,5.8147,5.8147,5.8147,5.8147,5.8147,5.8147,5.8147,5.8147,5.8147,5.8147,5.8147,5.8147,5.8147,5.8147,5.8147,5.8147,5.8147,5.8147,5.8147,5.8147,5.8147,5.8147,5.8147,5.8147,5.8147,5.8147,5.742,5.6822,5.6485,5.5706,5.5082,5.4883,5.4857,5.4857,5.4857,5.4857,5.4857,5.4857,5.4857,5.4987,5.5082,5.5991,5.6693,5.716,5.7835,5.8147,1.714,0.0,0.0,0.0,0.0,0.0,2.1321,2.1967,2.2771,2.4446,2.463,2.4775,2.5751,2.6173,2.6305,2.6081,2.6305,0.0,0.0,0.0,0.0,0.0,0.0,0.0,0.0,0.0,0.0,0.0,2.6898,2.7162,2.7768,2.7795,2.7795,2.7795,2.7795,2.7795,2.7795,2.7795,2.7795,2.7795,2.8006,2.8296,2.8652,2.8876,2.9166,2.9509,2.9509,2.9509,2.9509,2.9509,2.9509,2.9509,2.9509,2.9509,2.9509,2.9509,2.9509,3.0056,3.3456,3.4709,3.6321,4.5805,4.902,5.0103,5.6176,5.8147,5.8147,5.8147,5.8147,5.8147,5.8147,5.8147,5.8147,5.8147,5.8147,5.8147,5.8147,5.8147,5.8147,5.8147,5.8147,5.8147,5.8147,5.8147,5.8147,5.8147,5.8147,5.8147,5.8147,5.8147,5.8147,5.8147,5.7653,5.7082,5.6511,5.5939,5.5342,5.4909,5.4857,5.4857,5.4857,5.4857,5.4857,5.4857,5.4857,5.4857,5.4857,5.5887,5.6459,5.6315,5.7627,5.8147,0.0,0.0,0.0,1.9963,2.0345,2.111,2.3971,2.4208,2.4235,2.5698,2.5988,2.5909,2.5659,2.5856,2.6054,2.6054,2.6305,2.6384,0.0,0.0,0.0,0.0,0.0,0.0,0.0,0.0,0.0,0.0,2.6898,2.7162,2.7768,2.7795,2.7795,2.7795,2.7795,2.7795,2.7795,2.7795,2.7795,2.7795,2.7808,2.8111,2.8652,2.8665,2.8981,2.9509,2.9509,2.9509,2.9509,2.9509,2.9509,2.9509,2.9509,2.9509,2.9509,2.9509,2.9509,2.9509,2.9691,2.9691,3.1304,4.0803,4.4023,4.5805,5.5276,5.8147,5.8147,5.8147,5.8147,5.8147,5.8147,5.8147,5.8147,5.8147,5.8147,5.8147,5.8147,5.8147,5.8147,5.8147,5.8147,5.8147,5.8147,5.8147,5.8147,5.8147,5.8147,5.8147,5.8147,5.8147,5.8147,5.8147,5.7653,5.7082,5.6511,5.5939,5.5342,5.4909,5.4857,5.4857,5.4857,5.4857,5.4857,5.4857,5.4857,5.4857,5.4857,5.5887,5.6459,5.6315,5.7627,5.8147,1.8156,1.8578,1.9158,2.0622,2.1716,2.2731,2.3905,2.4775,2.5461,2.5949,2.6054,2.6015,2.5922,2.5975,2.6054,2.6054,2.6133,2.616,2.6067,0.0,0.0,0.0,0.0,0.0,0.0,0.0,0.0,0.0,0.0,0.0,2.7781,2.7795,2.7795,2.7795,2.7795,2.7795,2.7795,2.7795,2.7795,2.7795,2.7795,2.7992,2.8362,2.8559,2.8863,2.9245,2.943,2.9509,2.9509,2.9509,2.9509,2.9509,2.9509,3.1487,3.4,3.0772,3.1487,3.3819,3.059,2.9509,3.1136,4.0624,4.3666,4.5627,5.5276,5.8147,5.8147,5.8147,5.8147,5.8147,5.8147,5.8147,5.8147,5.8147,5.8147,5.8147,5.8147,5.8147,5.8147,5.8147,5.8147,5.8147,5.8147,5.8147,5.8147,5.8147,5.8147,5.8147,5.8147,5.8147,5.8147,5.8147,5.7991,5.7498,5.6537,5.6277,5.5758,5.4935,5.4857,5.4857,5.4857,5.4857,5.4857,5.4857,5.4857,5.4857,5.4857,5.5498,5.6095,5.6459,5.7238,5.7783,1.8776,1.9251,1.9791,2.1228,2.2758,2.3865,2.4261,2.5237,2.6054,2.6054,2.6054,2.6054,2.6054,2.6133,2.6212,2.6212,2.6212,2.6173,2.6067,2.6054,2.6054,0.0,0.0,0.0,0.0,0.0,0.0,0.0,0.0,2.7478,2.7781,2.7795,2.7795,2.7795,2.7795,2.7795,2.7795,2.7795,2.7795,2.7795,2.7795,2.794,2.8217,2.852,2.8823,2.9113,2.939,2.9509,2.9509,2.9509,2.9509,2.9509,2.9509,3.2563,3.6321,3.3275,3.4,3.6321,3.3275,3.22,3.3456,4.1341,4.4915,4.778,5.5651,5.8147,5.8147,5.8147,5.8147,5.8147,5.8147,5.8147,5.8147,5.8147,5.8147,5.8147,5.8147,5.8147,5.8147,5.8147,5.8147,5.8147,5.8147,5.8147,5.8147,5.8147,5.8147,5.8147,5.8147,5.8147,5.8147,5.8147,5.7965,5.7472,5.6537,5.6277,5.5732,5.4935,5.4857,5.4857,5.4857,5.4857,5.4857,5.4857,5.4857,5.4857,5.4857,5.5316,5.5887,5.6459,5.7056,5.7601,1.8868,1.9659,2.053,2.227,2.3536,2.4498,2.5078,2.5645,2.6054,2.6054,2.6054,2.6054,2.6081,2.6331,2.6516,2.6529,2.6516,2.6397,2.6107,2.6054,2.6054,2.6054,0.0,0.0,0.0,0.0,0.0,0.0,2.7201,2.7505,2.7781,2.7795,2.7795,2.7795,2.7795,2.7795,2.7795,2.7795,2.7795,2.7795,2.7795,2.794,2.8203,2.8507,2.881,2.91,2.9377,2.9496,2.9509,2.9509,2.9509,2.9509,2.9509,3.2563,3.7043,3.6862,3.7043,3.7387,3.6862,3.6862,3.7927,4.2415,4.707,5.1867,5.6725,5.8147,5.8147,5.8147,5.8147,5.8147,5.8147,5.8147,5.8147,5.8147,5.8147,5.8147,5.8147,5.8147,5.8147,5.8147,5.8147,5.8147,5.8147,5.8147,5.8147,5.8147,5.8147,5.8147,5.8147,5.8147,5.8147,5.8147,5.7653,5.7082,5.6511,5.5939,5.5342,5.4909,5.4857,5.4857,5.4857,5.4857,5.4857,5.4857,5.4857,5.4857,5.4857,5.529,5.5862,5.6459,5.7004,5.7576,2.0174,2.1307,2.2296,2.3813,2.4591,2.5065,2.5421,2.579,2.6054,2.6054,2.6054,2.6173,2.6608,2.6753,2.6872,2.7096,2.6779,2.6463,2.6384,2.6186,2.6054,2.6054,2.6054,2.6054,0.0,0.0,0.0,0.0,2.7386,2.7716,2.7795,2.7795,2.7795,2.7795,2.7795,2.7795,2.7795,2.7795,2.7795,2.7795,2.7795,2.7834,2.7913,2.8428,2.8691,2.8784,2.9074,2.9324,2.9509,2.9509,2.9509,2.9509,2.9509,3.4725,4.152,3.8107,4.1143,4.6338,3.9187,3.9007,4.2236,4.3507,4.707,5.1867,5.6725,5.8147,5.8147,5.8147,5.8147,5.8147,5.8147,5.8147,5.8147,5.8147,5.8147,5.8147,5.8147,5.8147,5.8147,5.8147,5.8147,5.8147,5.8147,5.8147,5.8147,5.8147,5.8147,5.8147,5.8147,5.8147,5.8147,5.8147,5.7653,5.7082,5.6511,5.5939,5.5342,5.4909,5.4857,5.4857,5.4857,5.4857,5.4857,5.4857,5.4857,5.4857,5.4857,5.5013,5.5446,5.6459,5.6589,5.7212,1.9963,2.1426,2.2929,2.438,2.4973,2.5419,2.554,2.583,2.6054,2.6054,2.6146,2.6384,2.6819,2.7017,2.7162,2.732,2.6977,2.6634,2.6516,2.6239,2.6054,2.6054,2.6054,2.6054,2.6054,2.6568,0.0,0.0,2.7452,2.7795,2.7795,2.7795,2.7847,2.7979,2.7979,2.7979,2.7979,2.7979,2.7913,2.7795,2.7795,2.7795,2.7808,2.8256,2.8533,2.8665,2.8968,2.9258,2.9509,2.9509,2.9509,2.9509,2.9509,3.5433,4.3488,4.0803,4.313,4.7049,4.1699,4.0265,4.0982,4.313,4.707,5.1867,5.6725,5.8147,5.8147,5.8147,5.8147,5.8147,5.8147,5.8147,5.8147,5.8147,5.8147,5.8147,5.8147,5.8147,5.8147,5.8147,5.8147,5.8147,5.8147,5.8147,5.8147,5.8147,5.8147,5.8147,5.8147,5.8147,5.8147,5.8147,5.742,5.6796,5.6485,5.568,5.5056,5.4883,5.4857,5.4857,5.4857,5.4857,5.4857,5.4857,5.4857,5.4857,5.4857,5.4857,5.5316,5.6459,5.6459,5.7056,1.9422,2.1004,2.2942,2.4432,2.4999,2.5276,2.5593,2.587,2.6054,2.6054,2.6278,2.6582,2.6859,2.7149,2.7373,2.7399,2.7122,2.6819,2.6582,2.6265,2.6054,2.6054,2.6054,2.6067,2.6107,2.6595,2.6924,2.6964,2.7478,2.7795,2.7795,2.7834,2.7966,2.8203,2.8243,2.8269,2.8269,2.823,2.8085,2.7847,2.7808,2.7795,2.7808,2.8045,2.8335,2.8665,2.8929,2.9219,2.9509,2.9509,2.9509,2.9509,2.9509,3.5433,4.3666,4.3666,4.4558,4.5627,4.4915,4.2415,4.0067,4.3666,4.7957,5.2595,5.69,5.8147,5.8147,5.8147,5.8147,5.8147,5.8147,5.8147,5.8147,5.8147,5.8147,5.8147,5.8147,5.8147,5.8147,5.8147,5.8147,5.8147,5.8147,5.8147,5.8147,5.8147,5.8147,5.8147,5.8147,5.8147,5.8147,5.8147,5.7134,5.6459,5.6459,5.5368,5.4857,5.4857,5.4857,5.4857,5.4857,5.4857,5.4857,5.4857,5.4857,5.4857,5.4857,5.4857,5.5316,5.6459,5.6459,5.7056,2.1149,2.2085,2.2995,2.4696,2.5158,2.5329,2.5856,2.6015,2.6054,2.6054,2.6278,2.6582,2.6859,2.7149,2.7439,2.7676,2.7267,2.6885,2.6832,2.6384,2.6054,2.6054,2.6054,2.6146,2.6397,2.6713,2.7004,2.7254,2.7597,2.7795,2.7795,2.8019,2.8164,2.8203,2.8441,2.8573,2.8573,2.8335,2.819,2.8137,2.79,2.7795,2.7795,2.7847,2.8151,2.8652,2.8704,2.9021,2.9509,2.9509,2.9509,2.9509,2.9509,3.5433,4.3666,4.3864,4.8843,5.5101,5.0986,5.1691,5.3849,5.0633,5.2946,5.7075,5.7798,5.8147,5.8147,5.8147,5.8147,5.8147,5.8147,5.8147,5.8147,5.8147,5.8147,5.8147,5.8147,5.8147,5.8147,5.8147,5.8147,5.8147,5.8147,5.8147,5.8147,5.8147,5.8147,5.8147,5.8147,5.8147,5.8147,5.8147,5.7134,5.6459,5.6459,5.5368,5.4857,5.4857,5.4857,5.4857,5.4857,5.4857,5.4857,5.4857,5.4857,5.4857,5.4857,5.4857,5.5316,5.6459,5.6459,5.7056,2.0556,2.1663,2.2824,2.38,2.463,2.5303,2.5725,2.5936,2.6094,2.6252,2.6397,2.6582,2.6859,2.7149,2.7452,2.7755,2.7294,2.6898,2.6898,2.641,2.6054,2.6054,2.6054,2.616,2.6463,2.674,2.703,2.7333,2.7623,2.7861,2.8006,2.8137,2.8348,2.8665,2.881,2.8889,2.8889,2.8744,2.852,2.8203,2.8072,2.794,2.7795,2.7795,2.8032,2.8428,2.8586,2.8902,2.9311,2.9456,2.9509,2.9509,2.9509,3.5433,4.3666,4.3845,4.8312,5.4024,5.1714,5.081,5.0633,5.081,5.2419,5.475,5.7424,5.8147,5.8147,5.8147,5.8147,5.8147,5.8147,5.8147,5.8147,5.8147,5.8147,5.8147,5.8147,5.8147,5.8147,5.8147,5.8147,5.8147,5.8147,5.8147,5.8147,5.8147,5.8147,5.8147,5.8147,5.8147,5.8147,5.8147,5.7134,5.6459,5.6459,5.5368,5.4857,5.4857,5.4857,5.4857,5.4857,5.4857,5.4857,5.4857,5.4857,5.4857,5.4857,5.4857,5.5316,5.6459,5.6459,5.7056,2.0015,2.1268,2.2679,2.3088,2.4063,2.5052,2.558,2.583,2.6041,2.6331,2.6397,2.6502,2.6845,2.7096,2.7373,2.7742,2.7294,2.6898,2.6898,2.641,2.6054,2.6054,2.6054,2.6186,2.6542,2.6779,2.7056,2.7425,2.7716,2.7953,2.8111,2.8296,2.8586,2.8995,2.9126,2.9192,2.9192,2.9126,2.8863,2.8401,2.8269,2.8098,2.7887,2.7887,2.7966,2.8137,2.8493,2.8823,2.9126,2.9403,2.9509,2.9509,2.9509,3.4725,4.2415,4.3309,4.6715,5.1162,5.2067,4.9927,4.7404,5.1162,5.2419,5.3146,5.69,5.8147,5.8147,5.8147,5.8147,5.8147,5.8147,5.8147,5.8147,5.8147,5.8147,5.8147,5.8147,5.8147,5.8147,5.8147,5.8147,5.8147,5.8147,5.8147,5.8147,5.8147,5.8147,5.8147,5.8147,5.8147,5.8147,5.8147,5.7134,5.6459,5.6459,5.5368,5.4857,5.4857,5.4857,5.4857,5.4857,5.4857,5.4857,5.4857,5.4987,5.5065,5.5065,5.503,5.5602,5.6641,5.6641,5.7186,2.1294,2.2033,2.2784,2.3602,2.3905,2.4353,2.5698,2.5817,2.5738,2.6028,2.6094,2.6252,2.6806,2.6924,2.7135,2.7702,2.7294,2.6898,2.6898,2.641,2.6054,2.6054,2.6054,2.6265,2.6819,2.6719,2.7135,2.7716,2.8019,2.8072,2.7847,2.8586,2.8915,2.8704,2.9205,2.9469,2.9469,2.9232,2.9074,2.9008,2.8467,2.819,2.8164,2.8164,2.8045,2.7861,2.8414,2.8823,2.9126,2.9403,2.9509,2.9509,2.9509,3.2745,3.7927,4.2236,4.6715,5.1515,5.6001,5.7249,5.69,5.7249,5.7424,5.7624,5.7973,5.8147,5.8147,5.8147,5.8147,5.8147,5.8147,5.8147,5.8147,5.8147,5.8147,5.8147,5.8147,5.8147,5.8147,5.8147,5.8147,5.8147,5.8147,5.8147,5.8147,5.8147,5.8147,5.8147,5.8147,5.8147,5.8147,5.8147,5.7134,5.6459,5.6459,5.5368,5.4857,5.4857,5.4857,5.4857,5.4857,5.4857,5.4857,5.4857,5.5238,5.5524,5.5524,5.6043,5.6615,5.7238,5.7238,5.755,1.9567,2.0556,2.1611,2.1967,2.2982,2.409,2.4828,2.5184,2.554,2.6186,2.6318,2.6384,2.6608,2.6793,2.7043,2.7465,2.7175,2.6898,2.6898,2.641,2.6054,2.6054,2.6212,2.6476,2.6872,2.7069,2.7346,2.7768,2.8058,2.8164,2.8045,2.8718,2.9047,2.8929,2.9311,2.9509,2.9509,2.9403,2.9271,2.91,2.8863,2.8744,2.8731,2.8375,2.8151,2.8045,2.8111,2.8296,2.8599,2.9074,2.9364,2.9509,2.9509,3.2563,3.7043,3.8827,4.438,5.1162,5.3146,5.5651,5.8147,5.8147,5.8147,5.8147,5.8147,5.8147,5.8147,5.8147,5.8147,5.8147,5.8147,5.8147,5.8147,5.8147,5.8147,5.8147,5.8147,5.8147,5.8147,5.8147,5.8147,5.8147,5.8147,5.8147,5.8147,5.8147,5.8147,5.8147,5.8147,5.8147,5.8147,5.8147,5.7134,5.6459,5.6459,5.5368,5.4857,5.4857,5.4857,5.4857,5.4857,5.4857,5.5039,5.5238,5.5472,5.5784,5.6121,5.6329,5.6744,5.7316,5.7316,5.7601,1.8565,1.958,2.0754,2.0925,2.2178,2.3509,2.405,2.4432,2.4947,2.5909,2.6239,2.6384,2.6476,2.6713,2.6977,2.7188,2.7043,2.6872,2.6793,2.6357,2.6054,2.6054,2.6318,2.6608,2.6872,2.7175,2.7478,2.7768,2.8137,2.8296,2.8217,2.8849,2.9192,2.91,2.9364,2.9509,2.9509,2.9509,2.9416,2.9219,2.914,2.91,2.9087,2.8573,2.8296,2.819,2.7913,2.7953,2.8243,2.8757,2.9179,2.9509,2.9509,3.1668,3.4709,3.614,4.0964,4.7049,4.9904,5.3122,5.6176,5.7624,5.8147,5.8147,5.8147,5.8147,5.8147,5.8147,5.8147,5.8147,5.8147,5.8147,5.8147,5.8147,5.8147,5.8147,5.8147,5.8147,5.8147,5.8147,5.8147,5.8147,5.8147,5.8147,5.8147,5.8147,5.8147,5.8147,5.8147,5.8147,5.8095,5.7913,5.703,5.6381,5.6199,5.529,5.4857,5.4857,5.4857,5.4857,5.4857,5.5039,5.516,5.5602,5.5939,5.6303,5.6719,5.6874,5.716,5.7576,5.7576,5.7783,1.9158,1.9725,2.0543,2.1005,2.1716,2.2468,2.3628,2.3668,2.3947,2.496,2.5659,2.6146,2.6437,2.6713,2.6898,2.6911,2.6911,2.6806,2.6529,2.6239,2.6054,2.6054,2.6318,2.6608,2.6872,2.7175,2.7478,2.7768,2.8322,2.852,2.823,2.9034,2.9377,2.9113,2.9364,2.9509,2.9509,2.9509,2.9509,2.9509,2.9232,2.91,2.9087,2.8784,2.8493,2.819,2.7913,2.7953,2.823,2.8533,2.8995,2.9509,2.9509,2.9509,3.0225,3.489,3.6862,3.8287,4.7581,5.0986,5.1714,5.655,5.8147,5.8147,5.8147,5.8147,5.8147,5.8147,5.8147,5.8147,5.8147,5.8147,5.8147,5.8147,5.8147,5.8147,5.8147,5.8147,5.8147,5.8147,5.8147,5.8147,5.8147,5.8147,5.8147,5.8147,5.8147,5.8147,5.8147,5.8147,5.7939,5.7394,5.6796,5.6225,5.5654,5.5056,5.4857,5.4857,5.4857,5.4857,5.4857,5.529,5.5602,5.5602,5.6719,5.729,5.7316,5.7861,5.8147,5.8147,5.8147,5.8147,1.8222,1.9132,2.02,2.0582,2.1413,2.2402,2.3364,2.3813,2.4195,2.4762,2.5026,2.525,2.5553,2.6318,2.6845,2.6648,2.6779,2.6806,2.6529,2.6239,2.6054,2.6054,2.6476,2.6806,2.6898,2.736,2.7689,2.7795,2.8322,2.852,2.823,2.9034,2.939,2.9113,2.9364,2.9509,2.9509,2.9509,2.9509,2.9509,2.943,2.9377,2.9377,2.9087,2.8797,2.8493,2.8203,2.8019,2.7953,2.823,2.8573,2.9313,3.293,3.4528,3.5071,3.9726,4.152,4.1878,4.4915,4.5983,4.6871,5.1691,5.3122,5.3849,5.7075,5.8147,5.8147,5.8147,5.8147,5.8147,5.8147,5.8147,5.8147,5.8147,5.8147,5.8147,5.8147,5.8147,5.8147,5.8147,5.8147,5.8147,5.8147,5.8147,5.8147,5.8147,5.8147,5.8147,5.8147,5.8147,5.8095,5.7913,5.703,5.6225,5.5654,5.5056,5.4857,5.4857,5.4857,5.4901,5.5316,5.5498,5.5965,5.677,5.7134,5.7498,5.7887,5.8069,5.8147,5.8147,5.8147,5.8147,1.8196,1.9119,2.0108,2.0609,2.1189,2.1874,2.2758,2.3061,2.3338,2.3958,2.409,2.4274,2.4907,2.6054,2.6779,2.6384,2.6648,2.6766,2.6384,2.616,2.6054,2.6054,2.6555,2.6898,2.6898,2.7452,2.7795,2.7795,2.8322,2.8573,2.8388,2.91,2.943,2.9258,2.943,2.9509,2.9509,2.9509,2.9509,2.9509,2.9509,2.9509,2.9496,2.9232,2.8995,2.8797,2.8388,2.8111,2.7966,2.8137,2.8388,2.8869,3.2543,3.4961,3.7223,4.2057,4.2594,4.1341,4.313,4.2594,4.2236,4.8843,5.0986,5.1867,5.6725,5.8147,5.8147,5.8147,5.8147,5.8147,5.8147,5.8147,5.8147,5.8147,5.8147,5.8147,5.8147,5.8147,5.8147,5.8147,5.8147,5.8147,5.8147,5.8147,5.8147,5.8147,5.8147,5.8147,5.8147,5.8147,5.8147,5.8147,5.7134,5.6121,5.5342,5.5091,5.4857,5.4857,5.5091,5.5212,5.5602,5.6017,5.6589,5.729,5.7524,5.7809,5.8147,5.8147,5.8147,5.8147,5.8147,5.8147,1.875,1.9448,2.0147,2.0951,2.0927,2.1176,2.1993,2.1729,2.1477,2.2652,2.2877,2.3219,2.4353,2.5711,2.6529,2.6146,2.6516,2.6674,2.6173,2.6094,2.6081,2.6081,2.6582,2.6924,2.6911,2.7452,2.7795,2.7795,2.8322,2.8652,2.8652,2.9205,2.9509,2.9509,2.9509,2.9509,2.9509,2.9509,2.9509,2.9509,2.9509,2.9509,2.9496,2.9245,2.9113,2.9074,2.8493,2.823,2.8203,2.819,2.8362,2.8678,2.8955,3.2452,3.7927,4.2952,4.152,3.7927,4.2236,4.0624,3.8287,4.7404,5.0633,5.1867,5.6725,5.8147,5.8147,5.8147,5.8147,5.8147,5.8147,5.8147,5.8147,5.8147,5.8147,5.8147,5.8147,5.8147,5.8147,5.8147,5.8147,5.8147,5.8147,5.8147,5.8147,5.8147,5.8147,5.8147,5.8147,5.8147,5.8147,5.8095,5.7108,5.5991,5.5039,5.4909,5.4857,5.4857,5.5264,5.5628,5.5654,5.6719,5.7342,5.7368,5.7887,5.8147,5.8147,5.8147,5.8147,5.8147,5.8147,5.8147,1.7611,1.8568,1.9686,1.9897,2.107,2.223,2.2441,2.2019,2.1624,2.1543,2.1543,2.1765,2.2626,2.3575,2.4722,2.616,2.6305,2.6357,2.6661,2.6516,2.6384,2.6384,2.6898,2.7162,2.6924,2.7452,2.7795,2.7795,2.8322,2.8652,2.8652,2.9205,2.9509,2.9509,2.9509,2.9509,2.9509,2.9509,2.9509,2.9509,2.9509,2.9509,2.9509,2.9443,2.9298,2.9087,2.8704,2.8414,2.819,2.7979,2.819,2.8652,2.8731,3.4196,4.313,5.1691,4.9374,4.2236,4.3488,4.0803,3.7747,4.3488,4.7957,5.1867,5.6725,5.8147,5.8147,5.8147,5.8147,5.8147,5.8147,5.8147,5.8147,5.8147,5.8147,5.8147,5.8147,5.8147,5.8147,5.8147,5.8147,5.8147,5.8147,5.8147,5.8147,5.8147,5.8147,5.8147,5.8147,5.8147,5.7991,5.755,5.6874,5.6173,5.5446,5.4979,5.4857,5.4857,5.5264,5.581,5.6225,5.6926,5.7524,5.7939,5.8095,5.8147,5.8147,5.8147,5.8147,5.8147,5.8147,5.8147,1.7866,1.8934,1.9804,1.9277,2.0279,2.1347,2.1215,2.0938,2.0701,2.0688,2.0688,2.0978,2.1967,2.2415,2.3312,2.5355,2.5777,2.5909,2.6094,2.6212,2.6344,2.6476,2.6885,2.7135,2.7109,2.7531,2.7847,2.7979,2.8401,2.8704,2.8849,2.9271,2.9509,2.9509,2.9509,2.9509,2.9509,2.9509,2.9509,2.9509,2.9509,2.9509,2.9509,2.9509,2.943,2.9271,0.0,2.8691,2.8388,2.8111,2.8164,2.8454,2.8599,3.4719,4.4279,4.9661,5.0986,5.0081,4.7957,4.4023,4.0803,4.5449,4.8843,5.1867,5.6725,5.8147,5.8147,5.8147,5.8147,5.8147,5.8147,5.8147,5.8147,5.8147,5.8147,5.8147,5.8147,5.8147,5.8147,5.8147,5.8147,5.8147,5.8147,5.8147,5.8147,5.8147,5.8147,5.8147,5.8147,5.7939,5.7653,5.7342,5.6563,5.5939,5.5628,5.5056,5.4857,5.4857,5.5264,5.5991,5.6796,5.7394,5.7835,5.8147,5.8147,5.8147,5.8147,5.8147,5.8147,5.8147,5.8147,5.8147,1.8394,1.9514,2.0226,1.9251,1.9607,2.0121,1.9734,1.9577,1.9659,1.987,1.991,2.0292,2.1518,2.165,2.2151,2.3931,2.4854,2.5342,2.5329,2.5777,2.6212,2.6463,2.6779,2.7056,2.7267,2.7597,2.7887,2.8124,2.8454,2.8757,2.9021,2.9337,2.9509,2.9509,2.9509,2.9509,2.9509,2.9509,2.9509,2.9509,2.9509,2.9509,2.9509,2.9509,2.9509,2.9496,0.0,2.8929,2.8625,2.8335,2.8203,2.8243,2.8533,3.4078,4.2374,4.351,4.9396,5.635,5.2419,4.8312,4.5449,4.9551,5.1339,5.2771,5.69,5.8147,5.8147,5.8147,5.8147,5.8147,5.8147,5.8147,5.8147,5.8147,5.8147,5.8147,5.8147,5.8147,5.8147,5.8147,5.8147,5.8147,5.8147,5.8147,5.8147,5.8147,5.8147,5.8147,5.8147,5.7731,5.7368,5.7186,5.6329,5.5654,5.5472,5.5005,5.4909,5.5013,5.5316,5.6121,5.7264,5.7757,5.8069,5.8147,5.8147,5.8147,5.8147,5.8147,5.8147,5.8147,5.8147,5.8147,1.8196,1.9514,2.0727,2.0556,2.0793,2.094,2.09,2.045,1.9857,1.9525,1.9485,1.9551,1.9774,2.0503,2.1149,2.1582,2.3127,2.4564,2.5751,2.6212,2.6437,2.6489,2.6964,2.7201,2.699,2.7465,2.7808,2.7861,2.8348,2.8678,2.8718,2.9219,2.9509,2.9509,2.9509,2.9509,2.9509,2.9509,2.9509,2.9509,2.9509,2.9509,2.9509,2.9509,2.9509,2.9496,0.0,0.0,2.8625,2.8335,2.8203,2.8243,2.8533,3.216,3.779,4.2085,4.7248,5.189,5.1162,5.0457,4.9927,5.0633,5.3673,5.7249,5.7973,5.8147,5.8147,5.8147,5.8147,5.8147,5.8147,5.8147,5.8147,5.8147,5.8147,5.8147,5.8147,5.8147,5.8147,5.8147,5.8147,5.8147,5.8147,5.8147,5.8147,5.8147,5.8147,5.8147,5.8147,5.8069,5.7653,5.6693,5.6433,5.5913,5.5091,5.4935,5.5091,5.5446,5.555,5.6121,5.7264,5.7394,5.7653,5.8147,5.8147,5.8147,5.8147,5.8147,5.8147,5.8147,5.8147,5.8147,1.8433,1.9752,2.0914,2.0886,2.0938,2.1004,2.0833,2.049,2.0081,1.9511,1.9407,1.9459,1.9752,2.0108,2.0727,2.1809,2.2666,2.3628,2.492,2.55,2.5962,2.6437,2.6859,2.7188,2.7373,2.7636,2.7927,2.823,2.8507,2.8731,2.8889,2.9285,2.9509,2.9509,2.9509,2.9509,2.9509,2.9509,2.9509,2.9509,2.9509,2.9509,2.9509,2.9509,2.9509,2.9509,2.9377,2.9074,2.8639,2.8507,2.8269,2.8032,2.848,3.1527,3.6279,3.8976,4.4877,5.1397,5.1397,5.3196,5.5318,5.5024,5.635,5.8147,5.8147,5.8147,5.8147,5.8147,5.8147,5.8147,5.8147,5.8147,5.8147,5.8147,5.8147,5.8147,5.8147,5.8147,5.8147,5.8147,5.8147,5.8147,5.8147,5.8147,5.8147,5.8147,5.8147,5.8147,5.8147,5.7601,5.703,5.6511,5.5887,5.529,5.4909,5.4857,5.4953,5.5576,5.5887,5.6433,5.7264,5.7601,5.7887,5.8147,5.8147,5.8147,5.8147,5.8147,5.8147,5.8147,5.8147,5.8147,1.933,0.0,2.1503,2.14,2.1347,2.1255,0.0,2.0754,2.0516,1.9747,1.9564,1.9712,1.9936,1.9923,2.0385,2.1927,2.223,2.2705,2.3931,2.4551,2.521,2.6081,2.6437,2.6832,2.7439,2.761,2.79,2.8414,2.8573,2.8757,2.8981,2.9324,2.9509,2.9509,2.9509,2.9509,2.9509,2.9509,2.9509,2.9509,2.9509,2.9509,2.9509,2.9509,2.9509,2.9509,2.9509,2.9232,2.8757,2.8757,2.8414,2.794,2.8454,3.0748,3.4289,3.5963,4.1687,4.8825,5.1023,5.4287,5.7486,5.8134,5.8251,5.8147,5.8147,5.8147,5.8147,5.8147,5.8147,5.8147,5.8147,5.8147,5.8147,5.8147,5.8147,5.8147,5.8147,5.8147,5.8147,5.8147,5.8147,5.8147,5.8147,5.8147,5.8147,5.8147,5.8147,5.8095,5.7965,5.7186,5.6537,5.6277,5.5446,5.5013,5.4883,5.5013,5.516,5.5758,5.6329,5.69,5.7498,5.7913,5.8147,5.8147,5.8147,5.8147,5.8147,5.8147,5.8147,5.8147,5.8147,5.8147,0.0,2.2165,2.2863,2.285,2.2837,2.2705,2.2151,2.1809,0.0,2.0503,2.0134,1.9963,1.9976,1.9752,1.9747,2.0806,2.1189,2.1874,2.3312,2.3786,2.4314,2.5184,2.5527,2.5936,2.6529,2.7069,2.7518,2.7834,2.8348,2.8665,2.8678,2.9205,2.9509,2.9509,2.9509,2.9509,2.9509,2.9509,2.9509,2.9509,2.9509,2.9509,2.9509,2.9509,2.9509,2.9509,2.9509,2.9351,2.9074,2.9074,2.8718,2.8217,2.8533,2.8829,2.9742,3.4459,3.6993,3.9584,4.8645,5.1918,5.2789,5.7511,5.8588,5.8147,5.8147,5.8147,5.8147,5.8147,5.8147,5.8147,5.8147,5.8147,5.8147,5.8147,5.8147,5.8147,5.8147,5.8147,5.8147,5.8147,5.8147,5.8147,5.8147,5.8147,5.8147,5.8147,5.8147,5.7965,5.7446,5.7316,5.6848,5.5784,5.5602,5.5316,5.4909,5.5212,5.5784,5.6355,5.6926,5.7498,5.8069,5.8121,5.8147,5.8147,5.8147,5.8147,5.8147,5.8147,5.8147,5.8147,5.8147,5.8147,2.2652,2.3167,2.3509,2.3325,2.3272,2.3074,2.2323,2.2059,2.1677,2.0609,2.0174,1.9989,1.9989,1.9897,2.0213,2.1453,2.1901,2.2415,2.3325,2.4169,2.4683,2.4643,2.5685,2.6648,2.7254,2.7505,2.7821,2.8296,2.8533,2.8652,2.8652,2.9205,2.943,2.9258,2.943,2.9509,2.9509,2.9509,2.9509,2.9509,2.9509,2.9509,2.9509,2.9509,2.9509,2.9509,2.9509,2.9351,0.0,2.8902,2.8573,2.8217,2.8335,2.8493,2.8882,3.1134,3.4273,3.8007,4.2158,4.7322,5.2016,5.0727,5.4204,5.8087,5.4672,5.5826,5.8147,5.8147,5.8407,5.8614,5.8251,5.8147,5.8147,5.8147,5.8147,5.8147,5.8147,5.8147,5.8147,5.8147,5.8147,5.8147,5.8147,5.8147,5.8147,5.8147,5.7861,5.755,5.7342,5.6693,5.6095,5.5654,5.5264,5.5108,5.5264,5.5472,5.5991,5.6926,5.7186,5.7576,5.8121,5.8147,5.8147,5.8147,5.8147,5.8147,5.8147,5.8147,5.8147,5.8147,5.8147,5.8147,2.3536,2.38,2.3971,2.3773,2.372,2.347,2.2507,2.2283,2.1954,2.078,2.0305,2.0147,2.0239,2.0174,2.053,2.1795,2.2336,2.285,2.3615,2.4485,2.4933,2.4617,2.5632,2.6555,2.7056,2.7439,2.7887,2.8467,2.8599,2.8612,2.852,2.9153,2.943,2.9232,2.9416,2.9509,2.9509,2.9509,2.9509,2.9509,2.9509,2.9509,2.9509,2.9509,2.9509,2.9509,2.9509,2.9403,2.9219,2.9008,2.8691,2.8348,2.8348,2.8533,2.8836,2.9232,3.1909,3.5797,3.7769,4.2617,4.7896,4.7712,5.1699,5.6372,5.421,5.5848,5.8588,5.8043,5.8303,5.864,5.8251,5.8147,5.8147,5.8147,5.8147,5.8147,5.8147,5.8147,5.8147,5.8147,5.8147,5.8095,5.7913,5.7887,5.7835,5.7653,5.729,5.6978,5.6796,5.6095,5.5524,5.5342,5.4953,5.4953,5.555,5.5939,5.6485,5.7264,5.7472,5.7757,5.8147,5.8147,5.8147,5.8147,5.8147,5.8147,5.8147,5.8147,5.8147,5.8147,5.8147,5.8147,2.3892,2.409,2.4301,2.4301,2.4301,2.3997,2.285,2.2586,2.2257,2.1083,2.0609,2.049,2.078,2.0595,2.0688,2.1558,2.2204,2.2995,2.4142,2.4551,2.4868,2.5158,2.5197,2.5316,2.5593,2.6674,2.7597,2.8177,2.848,2.852,2.823,2.9034,2.9509,2.9496,2.9509,2.9509,2.9509,2.9509,2.9509,2.9509,2.9509,2.9509,2.9509,2.9509,2.9509,2.9509,2.9509,2.9509,0.0,2.9509,2.9166,2.8652,2.8652,2.8836,2.91,2.91,2.9825,3.1563,3.6626,3.812,3.9593,4.9693,5.238,5.2455,5.7562,5.9419,5.9497,5.7809,5.7731,5.8147,5.8147,5.8147,5.8147,5.8147,5.8147,5.8147,5.8147,5.8147,5.8147,5.8147,5.8147,5.7965,5.7394,5.7316,5.7108,5.6537,5.6433,5.6251,5.568,5.5602,5.5368,5.4935,5.4883,5.4979,5.5576,5.6667,5.7316,5.7316,5.7835,5.8147,5.8147,5.8147,5.8147,5.8147,5.8147,5.8147,5.8147,5.8147,5.8147,5.8147,5.8147,5.8147,2.4129,2.4235,2.4301,2.4301,2.4301,2.3997,2.285,2.2586,2.2257,2.1083,2.0609,2.049,2.078,2.0767,2.0925,2.1598,2.2362,2.314,2.3905,2.4617,2.5171,2.5448,2.5672,2.5988,2.6476,2.7215,2.7992,2.8784,2.8533,2.848,2.8823,2.9087,2.9126,2.8915,2.9298,2.9509,2.9509,2.9509,2.9509,2.9509,2.9509,2.9509,2.9509,2.9509,2.9509,2.9509,2.9509,2.9509,0.0,2.9298,2.9126,2.8942,2.8731,2.8836,2.9126,2.9324,2.9733,3.0447,3.2551,3.5507,3.8874,4.1864,4.7282,5.3543,5.8702,5.9757,5.916,5.8666,5.8043,5.7653,5.8043,5.8147,5.8147,5.8147,5.8147,5.8043,5.7653,5.7861,5.7913,5.7108,5.729,5.7368,5.6796,5.6693,5.6641,5.6315,5.6121,5.581,5.5628,5.5238,5.5065,5.4883,5.5446,5.6173,5.677,5.7108,5.7472,5.7887,5.8069,5.8147,5.8147,5.8147,5.8147,5.8147,5.8147,5.8147,5.8147,5.8147,5.8147,5.8147,5.8147,5.8147,2.4261,2.4301,2.4301,2.4301,2.4301,2.4024,2.2982,2.2666,2.2283,2.1228,2.0872,2.0833,2.1123,2.1176,2.1453,2.2395,2.3022,2.38,2.463,2.5395,2.5936,2.6107,2.6186,2.641,2.6859,2.7452,2.8058,2.8704,2.852,2.8546,2.8902,2.8915,2.8889,2.8836,2.9271,2.9509,2.9509,2.9509,2.9509,2.9509,2.9509,2.9509,2.9509,2.9509,2.9509,2.9509,2.9509,2.9509,2.9496,2.9337,2.9205,2.9253,3.1003,3.1831,3.2135,3.2309,3.2671,3.2763,3.1401,3.2881,3.609,4.0364,4.5417,5.1188,5.7603,5.9523,5.916,5.8251,5.7835,5.7627,5.7498,5.7472,5.7472,5.7472,5.7472,5.7368,5.7056,5.742,5.755,5.6615,5.6926,5.7056,5.6251,5.6121,5.6017,5.5784,5.5472,5.5342,5.5576,5.529,5.516,5.5368,5.6225,5.6926,5.729,5.7524,5.7783,5.8121,5.8147,5.8147,5.8147,5.8147,5.8147,5.8147,5.8147,5.8147,5.8147,5.8147,5.8147,5.8147,5.8147,5.8147,2.4301,2.4301,2.4301,2.4301,2.4301,2.4076,2.3193,2.2797,2.2375,2.1333,2.1176,2.1387,2.1624,2.1743,2.2165,2.3233,2.3958,2.4775,2.5896,2.6516,2.6872,2.6898,2.6661,2.6608,2.6911,2.7465,2.7927,2.823,2.852,2.8665,2.8612,2.8639,2.877,2.9047,2.9351,2.9509,2.9509,2.9509,2.9509,2.9509,2.9509,2.9509,2.9509,2.9509,2.9509,2.9509,2.9509,2.9509,2.9509,2.9509,2.9364,2.9667,3.4437,3.6402,3.6862,3.7223,3.7491,3.6853,3.2886,3.1129,3.2514,4.2961,4.5359,4.6002,5.499,5.8245,5.8705,5.7015,5.729,5.7757,5.6719,5.6407,5.6381,5.6433,5.6459,5.6433,5.6381,5.6822,5.7056,5.6407,5.6744,5.6796,5.5706,5.5524,5.5342,5.4961,5.4857,5.5091,5.5524,5.5602,5.5862,5.6537,5.7082,5.7394,5.7394,5.7861,5.8147,5.8147,5.8147,5.8147,5.8147,5.8147,5.8147,5.8147,5.8147,5.8147,5.8147,5.8147,5.8147,5.8147,5.8147,5.8147,2.4301,2.4301,2.4301,2.4301,2.4301,2.4076,2.3193,2.2956,2.26,2.1372,2.1453,2.1558,2.14,2.2112,2.2797,2.3048,2.4169,2.525,2.5949,2.6357,2.6661,2.6872,2.6661,2.67,2.7215,2.7584,2.8006,2.852,2.8836,2.8797,2.8322,2.852,2.8678,2.8744,2.9245,2.9509,2.9509,2.9509,2.9509,2.9509,2.9509,2.9509,2.9509,2.9509,2.9509,2.9509,2.9509,2.9509,2.9509,2.9509,2.9482,2.9962,3.4781,3.6616,3.7206,4.0803,4.0029,3.6988,3.6147,3.3423,3.2166,4.2026,4.2453,4.0987,5.0819,5.3574,5.3713,5.6845,5.7316,5.6744,5.6511,5.6121,5.5913,5.6355,5.6459,5.6329,5.5887,5.6225,5.6329,5.529,5.5576,5.5732,5.503,5.5065,5.5013,5.4883,5.4857,5.5091,5.5524,5.5602,5.6173,5.7627,5.7887,5.7965,5.7965,5.8095,5.8147,5.8147,5.8147,5.8147,5.8147,5.8147,5.8147,5.8147,5.8147,5.8147,5.8147,5.8147,5.8147,5.8147,5.8147,5.8147,2.4301,2.4301,2.4301,2.4301,2.4406,2.4327,2.3589,2.343,2.3167,2.2283,2.2217,2.227,2.2001,2.2824,2.3509,2.3786,2.4709,2.5645,2.6357,2.6713,2.6911,2.6898,2.6779,2.6753,2.6924,2.7201,2.761,2.8203,2.8388,2.8283,2.7821,2.794,2.8217,2.8639,2.9087,2.9377,2.9509,2.9509,2.9509,2.9509,2.9509,2.9509,2.9509,2.9509,2.9509,2.9509,2.9509,2.9509,2.9691,3.2018,3.2926,3.3638,4.0785,4.3468,4.3825,4.6338,4.434,4.0245,4.0424,3.6084,3.1632,4.1297,4.1097,3.8976,4.8781,5.1575,5.1997,5.6569,5.7316,5.6796,5.6511,5.6225,5.6017,5.6043,5.6043,5.5887,5.5316,5.5628,5.5784,5.5039,5.5186,5.542,5.4961,5.4953,5.5134,5.5134,5.5368,5.5758,5.6355,5.6433,5.6874,5.8017,5.8147,5.8147,5.8147,5.8147,5.8147,5.8147,5.8147,5.8147,5.8147,5.8147,5.8147,5.8147,5.8147,5.8147,5.8147,5.8147,5.8147,5.8147,5.8147,5.8147,2.4287,2.4301,2.4301,2.4301,2.4485,2.4538,2.401,2.3892,2.3734,2.318,2.3074,2.3088,2.314,2.3641,2.4248,2.4868,2.5461,2.6107,2.6872,2.7241,2.728,2.6885,2.6872,2.6819,2.6582,2.6766,2.7149,2.7755,2.765,2.7491,2.7294,2.728,2.765,2.848,2.8744,2.906,2.9443,2.9482,2.9509,2.9509,2.9509,2.9509,2.9509,2.9509,2.9509,2.9509,2.9509,2.9509,2.9874,3.4709,3.6682,3.7747,4.7226,5.0986,5.0986,5.189,4.9197,4.4975,4.5317,3.9115,3.256,4.0913,4.0049,3.714,4.5784,4.8954,5.0605,5.5078,5.6679,5.7212,5.6719,5.6511,5.6329,5.5862,5.5758,5.5628,5.5108,5.5394,5.5602,5.5108,5.542,5.5602,5.5082,5.542,5.5758,5.5758,5.6147,5.6667,5.7238,5.7316,5.7524,5.8095,5.8069,5.8043,5.8147,5.8069,5.8017,5.8017,5.8017,5.8017,5.8017,5.8095,5.8095,5.8017,5.8095,5.8095,5.8017,5.8095,5.8147,5.8147,5.8147,5.8147,2.4235,2.4301,2.4301,2.4301,2.4327,2.4274,2.3958,2.3892,2.38,2.3457,2.3391,2.347,2.372,2.4248,2.4907,2.5738,2.6357,2.6859,2.7241,2.7557,2.7439,2.6648,2.6766,2.6719,2.6859,2.6885,2.7149,2.7755,2.7096,2.6753,2.6951,2.6964,2.7254,2.7887,2.7953,2.8348,2.9153,2.939,2.9509,2.9509,2.9509,2.9509,2.9509,2.9509,2.9509,2.9509,2.9509,2.9509,2.9874,3.4709,3.6682,3.7747,4.7226,5.0986,5.1339,5.5651,5.4024,4.9927,4.9994,4.3744,3.6748,4.2076,3.7561,3.1149,3.6943,4.1259,4.5467,5.0429,5.4483,5.729,5.7212,5.6822,5.6433,5.6355,5.6329,5.6303,5.6225,5.6277,5.6303,5.6225,5.6277,5.6303,5.6225,5.6277,5.6329,5.6329,5.6407,5.6667,5.7238,5.7316,5.7524,5.8095,5.7705,5.7627,5.8121,5.7705,5.742,5.742,5.742,5.742,5.742,5.7887,5.7913,5.742,5.7887,5.7913,5.742,5.7913,5.8147,5.8147,5.8147,5.8147,2.3945,2.4182,2.4301,2.4301,2.4432,2.4472,2.4182,2.4248,2.4287,2.3984,2.4195,2.4419,2.438,2.4973,2.5553,2.5764,2.6146,2.6529,2.6832,2.7122,2.7149,2.6766,2.6977,2.7096,2.6924,2.6766,2.6845,2.7267,2.6793,2.6476,2.6423,2.6582,2.6793,2.7056,2.7544,2.8058,2.8599,2.9205,2.9509,2.9509,2.9509,2.9509,2.9509,2.9509,2.9509,2.9509,2.9509,2.9509,3.0056,3.7584,4.0624,4.1699,5.1162,5.4925,5.5276,5.7249,5.5101,5.1339,5.4024,5.0434,4.4538,4.4023,4.0872,3.7202,3.6813,3.9959,4.4673,4.9506,5.2254,5.4407,5.7064,5.7601,5.7316,5.7004,5.6926,5.6848,5.6511,5.6459,5.6355,5.6043,5.5991,5.5991,5.5991,5.6511,5.6926,5.6926,5.7212,5.7498,5.7757,5.7783,5.7887,5.8121,5.7939,5.7757,5.7679,5.7446,5.7186,5.6848,5.6822,5.6822,5.6822,5.7056,5.7082,5.6822,5.7082,5.7238,5.7316,5.755,5.7835,5.8147,5.8147,5.8147,2.3734,2.4037,2.4208,2.4287,2.4472,2.4577,2.4353,2.4472,2.4591,2.4446,2.4709,2.4947,2.4868,2.5395,2.583,2.583,2.6081,2.6344,2.6568,2.6845,2.6964,2.6819,2.7056,2.7149,2.6924,2.6713,2.6713,2.7004,2.6753,2.6502,2.6278,2.641,2.6529,2.6595,2.7162,2.7636,2.7979,2.8639,2.9074,2.9298,2.9443,2.9509,2.9509,2.9509,2.9509,2.9691,3.0772,3.059,3.0407,4.1161,4.4915,4.4736,5.4375,5.8147,5.8147,5.8147,5.5826,5.3322,5.69,5.4925,5.028,4.6694,4.4736,4.313,3.9546,4.1878,4.6338,4.9904,5.189,5.3673,5.7249,5.8147,5.8043,5.7627,5.7524,5.7394,5.6978,5.6874,5.6719,5.6147,5.6043,5.6043,5.6043,5.6874,5.7524,5.7524,5.7887,5.8147,5.8147,5.7887,5.7783,5.7913,5.7809,5.7601,5.7342,5.7186,5.69,5.6485,5.6303,5.6225,5.6225,5.6381,5.6381,5.6251,5.6381,5.6589,5.6874,5.716,5.7524,5.7939,5.8095,5.8069,2.3734,2.3905,2.3971,2.4235,2.4314,2.4314,2.4301,2.4314,2.4406,2.467,2.4525,2.4512,2.5065,2.521,2.55,2.6318,2.6674,2.6872,2.6885,2.7149,2.7122,2.6582,2.6753,2.6924,2.6898,2.6719,2.7004,2.7307,2.7056,2.6872,2.6859,2.6621,2.6608,2.6872,2.6674,2.6832,2.7386,2.7439,2.7874,2.8704,2.9245,2.9509,2.9509,2.9509,2.9509,2.9874,3.4347,3.3819,3.059,4.4736,4.778,4.4736,5.4375,5.8147,5.8147,5.8147,5.7973,5.7798,5.7973,5.4925,5.081,5.0633,4.7425,4.3666,4.3686,4.6892,5.0633,5.081,5.42,5.7798,5.7973,5.8147,5.8147,5.8121,5.8121,5.8095,5.8069,5.8069,5.7887,5.7342,5.7238,5.7238,5.7238,5.7705,5.8121,5.8121,5.8121,5.8147,5.8147,5.7212,5.6744,5.729,5.6874,5.6744,5.7264,5.6796,5.6485,5.6459,5.5939,5.5654,5.5654,5.6173,5.6199,5.5654,5.6173,5.6199,5.5706,5.6796,5.7316,5.7368,5.7887,5.7861,2.3391,2.3747,2.3958,2.4235,2.4301,2.4301,2.4301,2.4301,2.4274,2.4208,2.4564,2.4881,2.4907,2.521,2.5619,2.6133,2.6133,2.6133,2.6331,2.6608,2.6727,2.6516,2.6911,2.7188,2.7188,2.736,2.7439,2.736,2.7254,2.7109,2.6911,2.664,2.6727,2.6648,2.6713,2.6859,2.7069,2.7254,2.761,2.8111,2.8678,2.9153,2.9509,2.9509,2.9509,2.9874,3.4709,3.5779,3.5071,4.6338,4.9904,4.902,5.5651,5.8147,5.8147,5.8147,5.8147,5.8147,5.8147,5.7075,5.5101,5.189,5.189,5.189,4.5627,4.707,5.0986,5.0986,5.2243,5.42,5.7249,5.8147,5.8147,5.8147,5.8147,5.8147,5.8147,5.8147,5.7887,5.6952,5.677,5.677,5.677,5.6926,5.7316,5.8043,5.8147,5.8147,5.8147,5.7472,5.7082,5.729,5.6796,5.6381,5.6225,5.6017,5.5732,5.5342,5.5134,5.503,5.503,5.5212,5.5238,5.503,5.4849,5.4849,5.503,5.5056,5.5472,5.6225,5.6433,5.6615,2.2877,2.3364,2.3786,2.3971,2.4156,2.4301,2.4301,2.5338,2.584,2.4241,2.5462,2.6459,2.4663,2.4933,2.5382,2.558,2.5606,2.5672,2.587,2.616,2.6384,2.6476,2.6911,2.7241,2.7346,2.7531,2.761,2.7505,2.7505,2.7412,2.7215,2.7109,2.6964,2.6793,2.6859,2.6898,2.6898,2.7096,2.7399,2.7795,2.8177,2.8665,2.9232,2.9324,3.0272,3.2056,3.6993,3.9007,3.9906,4.9374,5.2419,5.1339,5.6176,5.8147,5.8147,5.8147,5.8147,5.8147,5.8147,5.8147,5.7624,5.4375,5.5451,5.69,5.0457,5.081,5.3322,5.3322,5.3322,5.4024,5.7249,5.8147,5.8147,5.8147,5.8147,5.8147,5.8147,5.8147,5.7861,5.6926,5.6589,5.6459,5.6459,5.6459,5.677,5.7731,5.8043,5.8147,5.8147,5.7653,5.7238,5.7056,5.6848,5.6433,5.568,5.5784,5.5628,5.5056,5.4987,5.4779,5.4433,5.4407,5.4492,5.431,5.3758,5.3758,5.4284,5.4122,5.4537,5.5316,5.5706,5.5991,2.2257,2.2797,2.343,2.343,2.3852,2.4261,2.4411,2.7347,2.8874,2.4953,2.7316,2.8906,2.4658,2.434,2.4722,2.4736,2.5224,2.5593,2.5606,2.5856,2.616,2.645,2.6727,2.7004,2.7294,2.7346,2.7478,2.7768,2.7795,2.7795,2.7795,2.7518,2.736,2.736,2.7069,2.6911,2.6898,2.6898,2.7201,2.7768,2.7781,2.8085,2.8639,2.8942,3.156,3.6172,4.1512,4.3666,4.4558,5.42,5.5276,5.1538,5.635,5.8147,5.8147,5.8147,5.8147,5.8147,5.8147,5.8147,5.8147,5.8147,5.8147,5.8147,5.8147,5.8147,5.8147,5.8147,5.8147,5.8121,5.8147,5.8147,5.8121,5.8147,5.8147,5.8147,5.8147,5.8147,5.7991,5.742,5.6848,5.6459,5.6459,5.6459,5.6641,5.7238,5.7783,5.8147,5.8147,5.7679,5.7108,5.6537,5.6952,5.6848,5.5732,5.6121,5.6199,5.5654,5.503,5.4433,5.3888,5.3836,5.3576,5.3031,5.3005,5.3005,5.3005,5.4284,5.4831,5.4857,5.5836,5.6095,2.2942,2.3101,2.3127,2.3127,2.3246,2.4073,2.7051,2.8133,2.8494,2.7925,2.8646,2.8114,2.4304,2.3879,2.4261,2.4683,2.5065,2.5382,2.558,2.5856,2.6081,2.616,2.6423,2.6634,2.6727,2.7109,2.7386,2.7465,2.7676,2.7795,2.7795,2.7716,2.7571,2.736,2.728,2.7122,2.6911,2.6898,2.699,2.7149,2.7597,2.7874,2.8045,2.8546,2.959,3.1588,3.9795,4.355,4.4558,5.42,5.7249,5.635,5.7624,5.8147,5.8147,5.8147,5.8147,5.8147,5.8147,5.8147,5.8147,5.8147,5.8147,5.8147,5.8147,5.8147,5.8147,5.8147,5.7861,5.7653,5.8043,5.7861,5.7653,5.8043,5.8147,5.8147,5.8147,5.8147,5.7991,5.742,5.6848,5.6459,5.6459,5.6459,5.6641,5.7238,5.7783,5.8147,5.8147,5.8017,5.7705,5.7134,5.6848,5.6563,5.6251,5.5991,5.5784,5.5602,5.4641,5.4199,5.4622,5.368,5.3342,5.3602,5.3213,5.3005,5.3005,5.3316,5.368,5.4096,5.4407,5.4693,2.1677,2.1769,2.1822,2.2191,2.2099,2.3069,2.7735,2.9535,2.9895,2.8861,3.0045,2.9787,2.4265,2.3602,2.3997,2.434,2.4736,2.5065,2.5224,2.5606,2.587,2.587,2.6015,2.6226,2.6463,2.6793,2.7096,2.7333,2.7518,2.7663,2.7795,2.7795,2.7716,2.7544,2.7531,2.7452,2.728,2.728,2.728,2.728,2.7636,2.7795,2.7808,2.8137,2.8454,2.9264,3.6918,4.2629,4.6951,5.2615,5.6149,5.8147,5.8147,5.8147,5.8121,5.7887,5.7939,5.8147,5.8147,5.8147,5.8147,5.8147,5.8147,5.8147,5.8147,5.8147,5.8147,5.8147,5.7913,5.7731,5.8069,5.7913,5.7757,5.8069,5.8147,5.8147,5.8147,5.8147,5.8043,5.7731,5.7212,5.6719,5.6485,5.6641,5.6926,5.7264,5.7783,5.8147,5.8147,5.8147,5.8017,5.7705,5.716,5.6615,5.6147,5.581,5.5498,5.5238,5.4589,5.4251,5.4329,5.3472,5.3031,5.3135,5.2589,5.2174,5.194,5.2407,5.2693,5.2797,5.3265,5.355,1.9158,1.9527,2.0002,2.0714,2.049,2.1459,0.0,3.0356,3.1444,2.8136,3.085,3.1561,2.4135,2.3312,2.3734,2.3865,2.434,2.4709,2.4736,2.521,2.5553,2.5514,2.5566,2.5817,2.6344,2.645,2.67,2.7215,2.728,2.7412,2.7689,2.7729,2.7742,2.7742,2.7781,2.7795,2.7795,2.7795,2.7795,2.7795,2.7795,2.7795,2.7795,2.7795,2.7927,2.8351,3.2973,4.0247,4.901,4.9945,5.342,5.7965,5.7965,5.7965,5.7887,5.7394,5.7524,5.7965,5.7965,5.7965,5.7965,5.8043,5.8069,5.8069,5.8121,5.8147,5.8147,5.8147,5.8121,5.8069,5.8147,5.8095,5.8069,5.8147,5.8147,5.8147,5.8147,5.8147,5.8147,5.8147,5.7705,5.716,5.6641,5.6978,5.7264,5.7134,5.7601,5.7965,5.7965,5.7965,5.7965,5.7965,5.7524,5.6796,5.5784,5.5654,5.5368,5.5013,5.4857,5.4407,5.3966,5.3265,5.2667,5.2148,5.1576,5.1005,5.0611,5.1525,5.1784,5.1317,5.233,5.2407,0.0,0.0,0.0,0.0,0.0,0.0,0.0,2.5247,2.5691,2.6061,2.6926,2.6474,2.2631,2.2244,2.2784,2.3734,2.4169,2.4472,2.4709,2.5052,2.5184,2.4947,2.5329,2.5645,2.5764,2.6212,2.6542,2.6648,2.6872,2.7017,2.7069,2.7307,2.7439,2.7439,2.7676,2.7795,2.7795,2.7795,2.7795,2.7795,2.7795,2.7795,2.7795,2.7795,2.7834,2.7887,2.9195,3.2978,3.8903,4.669,5.2646,5.677,5.677,5.677,5.677,5.6667,5.6693,5.677,5.677,5.677,5.6848,5.7316,5.7472,5.755,5.8017,5.8147,5.8147,5.8147,5.7835,5.7576,5.8043,5.7809,5.7601,5.8043,5.8147,5.8147,5.8147,5.8147,5.8147,5.8147,5.7705,5.7264,5.716,5.7238,5.7004,5.6069,5.6407,5.677,5.677,5.677,5.677,5.677,5.6693,5.6537,5.6303,5.5862,5.555,5.5446,5.4537,5.4173,5.4511,5.3109,5.2252,5.2148,5.1576,5.1005,5.0611,5.1135,5.1395,5.1291,5.1525,5.059,0.0,0.0,0.0,0.0,0.0,0.0,0.0,0.0,0.0,0.0,0.0,2.4134,2.1442,0.0,2.2006,2.2877,2.3496,2.3984,2.4274,2.4564,2.4643,2.4353,2.4828,2.5237,2.5382,2.579,2.6107,2.6265,2.6542,2.6766,2.6898,2.7043,2.7201,2.7346,2.7491,2.765,2.7795,2.7795,2.7795,2.7795,2.7795,2.7795,2.7795,2.7795,2.7795,2.7808,2.794,2.9363,3.2108,3.9464,4.6667,5.3085,5.2378,5.3698,5.6017,5.6017,5.6199,5.6459,5.6459,5.6459,5.6511,5.6796,5.6874,5.6926,5.7212,5.729,5.729,5.729,5.7316,5.7368,5.7653,5.7731,5.7809,5.8095,5.8147,5.8147,5.8147,5.8147,5.8147,5.8147,5.7705,5.7212,5.6926,5.6874,5.6693,5.6121,5.6277,5.6459,5.6459,5.6459,5.6225,5.5628,5.5316,5.5134,5.5134,5.4615,5.4537,5.5108,5.4329,5.3966,5.4251,5.2615,5.1706,5.1706,5.0875,5.0018,4.9161,4.9759,4.9733,4.9161,4.8876,4.8304,0.0,0.0,0.0,0.0,0.0,0.0,0.0,0.0,0.0,0.0,0.0,0.0,0.0,0.0,0.0,2.1927,2.2784,2.3444,2.3681,2.3865,2.3931,2.3813,2.4314,2.4775,2.5078,2.5369,2.5645,2.5936,2.6186,2.6437,2.6727,2.6793,2.6938,2.7175,2.7241,2.7412,2.7702,2.7716,2.7742,2.7795,2.7795,0.0,2.7795,2.7795,2.7795,2.7795,2.7795,2.7795,2.8152,3.314,3.9752,4.6856,4.6565,4.9534,5.4078,5.4933,5.555,5.5965,5.6069,5.6121,5.6121,5.6251,5.6277,5.6303,5.6407,5.6459,0.0,5.6459,5.6796,5.7134,5.7134,5.7472,5.7835,5.7835,5.7835,5.7835,5.7835,5.7835,5.7835,5.7835,5.7446,5.7004,5.6537,5.6251,5.6043,5.581,5.5965,5.6017,5.581,5.5965,5.5758,5.4961,5.4277,5.4018,5.4018,5.329,5.3316,5.4622,5.3784,5.329,5.3187,5.1758,5.0823,5.0486,4.9473,4.8486,4.7577,4.8045,4.7785,4.685,4.5292,4.498,0.0,0.0,0.0,0.0,0.0,0.0,0.0,0.0,0.0,0.0,0.0,0.0,0.0,0.0,0.0,0.0,2.2481,2.3061,2.3088,2.2916,2.2956,2.3444,2.3997,2.4472,2.4762,2.5065,2.5355,2.5632,2.5685,2.583,2.6133,2.6397,0.0,0.0,0.0,2.7096,2.7399,2.7399,2.7531,2.7795,2.7795,2.7795,2.7795,2.7795,2.7795,2.7795,2.7795,2.7795,2.8138,3.272,3.5275,3.66,3.9786,4.3828,4.8571,5.2533,5.407,5.4199,5.4719,0.0,0.0,5.5524,5.5706,5.581,5.6303,5.6459,5.6459,5.6459,5.6511,5.6537,5.6537,5.6589,5.6641,5.6641,5.6641,5.6641,5.6641,5.6641,5.6641,5.6641,5.6589,5.6537,5.6459,5.5602,5.4727,5.355,5.4251,5.47,5.3524,5.4277,5.5013,5.4883,0.0,0.0,5.4779,5.3161,5.2719,5.3862,5.2459,5.1369,5.0849,5.0148,4.9083,4.7551,4.6902,4.6512,4.6408,4.646,4.6434,4.6175,4.1007,3.9567,0.0,0.0,0.0,0.0,0.0,0.0,0.0,0.0,0.0,0.0,0.0,0.0,0.0,0.0,0.0,0.0,2.0912,2.1373,2.1031,2.1756,2.2415,2.2666,2.3193,2.3654,2.3958,2.4406,2.4722,2.4841,2.5171,2.5487,2.5777,2.5909,2.6133,2.6489,2.6608,2.6806,2.7096,2.7096,2.7149,2.728,2.728,2.728,2.728,2.728,2.728,2.7294,2.7465,2.7439,2.7462,2.9459,3.1886,3.4335,0.0,0.0,0.0,0.0,5.1209,5.3394,5.3628,5.3867,5.3919,5.4018,5.4096,5.4147,5.4381,5.4667,5.4927,5.4927,5.542,5.5965,5.5965,5.6199,5.6459,5.6459,5.6459,5.6459,5.6459,5.6459,5.6459,5.6459,5.6173,0.0,5.5498,5.4745,5.4147,5.4179,5.457,5.47,5.4206,5.457,5.4622,5.3784,5.342,5.3213,5.3213,5.2252,0.0,0.0,0.0,5.2018,5.1447,5.0875,0.0,0.0,0.0,0.0,0.0,0.0,0.0,0.0,3.8238,3.7475,0.0,0.0,0.0,0.0,0.0,0.0,0.0,0.0,0.0,0.0,0.0,0.0,0.0,0.0,0.0,0.0,1.9448,2.0108,1.9728,2.0701,2.1611,2.1769,2.2441,2.2942,2.3074,2.3681,2.4129,2.4287,2.4709,2.5105,2.5474,2.5487,2.5685,2.612,2.6212,2.6384,2.6661,2.6753,2.6832,2.6898,2.6898,2.6898,2.6898,2.6898,2.6898,2.6911,2.7135,2.7109,2.6924,2.7135,2.9218,3.2156,3.3001,3.5951,4.0242,4.4662,4.9059,5.2797,5.2953,5.3005,5.3005,5.3005,5.3005,5.3005,5.3005,5.329,5.3602,5.3602,5.4225,5.4901,5.4901,5.5316,5.5732,5.5732,5.5862,5.5965,5.5965,5.5965,5.5965,5.5965,5.5394,5.4745,5.4466,5.3888,5.3654,5.3758,5.4206,5.4284,5.3971,5.4206,5.4075,5.3083,5.2615,5.2382,5.2382,5.1576,5.155,5.2693,5.233,5.194,5.168,5.0823,4.9369,4.7098,4.4513,4.1916,0.0,0.0,0.0,0.0,0.0,0.0,0.0,0.0,0.0,0.0,0.0,0.0,0.0,0.0,0.0,0.0,0.0,0.0,0.0,0.0,0.0,0.0,0.0,0.0,1.9701,1.9953,2.0253,2.082,2.1901,2.2494,2.2204,2.2969,2.3707,2.4261,2.4314,2.4591,2.5171,2.5366,2.521,2.5237,2.5487,2.5777,2.6067,2.6357,2.6634,2.6898,2.6898,2.6898,2.6898,2.6898,2.6898,2.6898,2.6911,2.6911,2.6898,2.6911,2.6911,2.7343,3.0917,3.515,3.9605,4.3464,4.803,5.2252,5.2797,5.3005,5.3005,5.3005,5.3005,5.3005,5.3005,5.3005,5.3031,5.3031,5.3057,5.3083,5.3083,5.3498,5.3914,5.3914,5.4355,5.4935,5.4935,5.4935,5.4935,5.4935,5.4023,5.3083,5.3057,5.3031,5.2667,5.1576,5.2356,0.0,5.155,5.2382,5.3031,5.3005,5.2979,5.2979,5.2979,5.1447,5.0953,5.2096,5.0616,4.994,5.0637,4.8902,4.7188,4.5448,4.3136,4.0687,3.7848,0.0,0.0,0.0,0.0,0.0,0.0,0.0,0.0,0.0,0.0,0.0,0.0,0.0,0.0,0.0,0.0,0.0,0.0,0.0,0.0,0.0,0.0,0.0,0.0,1.9013,1.9831,2.0226,2.0622,2.0661,2.0174,2.1268,2.2099,2.2283,2.3193,2.3984,2.4577,2.4604,2.4788,2.5184,2.5289,2.5382,2.5487,2.558,2.5777,2.6041,2.6041,2.6146,2.6331,2.6331,2.6331,2.6344,2.6542,2.6516,2.6357,2.6555,2.6292,2.6215,3.0046,3.4038,3.8337,4.2365,4.6572,5.0486,5.0668,5.0745,5.0745,5.0745,5.0745,5.0668,5.0304,5.046,5.0823,5.1213,5.1576,5.2044,5.2797,5.3135,5.329,5.329,5.342,5.3576,5.3576,5.3576,5.3576,5.3576,5.2641,5.1395,4.9888,5.1187,5.1784,4.9888,5.155,5.2849,5.2485,5.2771,5.3005,5.3005,5.3005,5.2849,5.2459,5.1914,5.1421,5.1057,5.0486,5.007,4.9888,4.859,4.7447,4.6486,4.4954,4.1838,3.7059,0.0,0.0,0.0,0.0,0.0,0.0,0.0,0.0,0.0,0.0,0.0,0.0,0.0,0.0,0.0,0.0,0.0,0.0,0.0,0.0,0.0,0.0,0.0,0.0,0.0,0.0,1.9633,1.9765,0.0,1.9,1.9883,2.0416,2.052,2.1624,2.2547,2.3338,2.347,2.3852,2.4703,2.4775,2.4881,2.4881,2.5092,2.5289,2.5461,2.5461,2.5566,2.5751,2.5751,2.5751,2.5751,2.5949,2.5922,2.591,2.7412,2.772,2.7316,2.823,3.2112,3.7228,3.9796,4.4308,4.8953,4.8746,4.8694,4.8642,4.846,4.7967,4.7421,4.7265,4.7188,4.7343,4.8356,4.9187,5.0044,5.1187,5.1784,5.2096,5.2096,5.2252,5.2382,5.2382,5.2382,5.2278,5.1862,5.1187,4.9966,4.7681,4.8798,4.9603,4.833,4.9707,5.1239,5.2252,5.2382,5.2382,5.2382,5.2382,5.2174,5.1576,5.1525,5.1135,5.02,5.0148,4.9785,4.9005,4.8278,4.6954,4.4954,4.3785,4.0669,0.0,0.0,0.0,0.0,0.0,0.0,0.0,0.0,0.0,0.0,0.0,0.0,0.0,0.0,0.0,0.0,0.0,0.0,0.0,0.0,0.0,0.0,0.0,0.0,0.0,0.0,0.0,1.8974,1.9118,0.0,0.0,0.0,0.0,1.9236,1.9712,2.0398,2.1638,2.1848,2.2428,2.3469,2.3892,2.4195,2.4261,2.4828,2.5118,2.5144,2.5144,2.5171,2.5197,2.5197,2.5353,2.5496,2.5496,2.5651,2.6077,2.9312,3.0618,3.0117,2.6017,2.8943,3.5661,3.5953,4.0782,4.7189,4.675,4.6735,4.6772,4.6175,4.4824,4.3526,4.3967,4.3292,0.0,0.0,4.5811,4.6954,4.8174,4.9343,5.0377,5.0455,5.0745,5.1187,5.1213,5.1213,5.0823,4.9551,4.9317,4.8564,4.6149,0.0,4.6123,4.6564,4.6824,4.7967,5.0719,5.1161,5.1213,5.1213,5.1213,5.1005,5.0611,5.0408,5.0148,4.9551,4.9499,4.8979,4.798,4.7798,4.5636,4.1305,3.9972,0.0,0.0,0.0,0.0,0.0,0.0,0.0,0.0,0.0,0.0,0.0,0.0,0.0,0.0,0.0,0.0,0.0,0.0,0.0,0.0,0.0,0.0,0.0,0.0,0.0,0.0,1.6679,1.7246,1.7638,1.7682,1.7194,0.0,0.0,0.0,0.0,0.0,0.0,1.9725,2.0042,2.0793,2.2249,2.2283,2.2784,2.3654,2.3813,2.4103,2.4538,2.4538,2.4762,2.5197,2.5197,2.6882,2.9611,2.9611,3.1291,3.3743,3.0158,2.858,2.8218,2.6385,2.6983,2.9183,3.2166,3.6142,4.0167,4.0838,4.2565,4.4305,4.3318,4.2409,4.1396,3.9864,0.0,0.0,0.0,0.0,4.1864,4.4279,4.5785,4.698,4.8252,4.8979,4.9525,4.994,5.0018,4.9057,4.5759,4.5473,4.4357,3.9942,4.1318,0.0,4.0903,4.3578,4.6356,4.7941,4.9239,5.0018,5.0018,5.0018,4.9966,4.981,4.981,4.9395,4.8382,4.833,4.8902,5.0421,4.7671,4.5445,4.4203,0.0,0.0,0.0,0.0,0.0,0.0,0.0,0.0,0.0,0.0,0.0,0.0,0.0,0.0,0.0,0.0,0.0,0.0,0.0,0.0,0.0,0.0,0.0,0.0,0.0,0.0,0.0,1.5651,1.6521,1.7115,1.6693,1.6152,0.0,0.0,0.0,0.0,0.0,0.0,0.0,0.0,0.0,2.0332,2.049,2.0938,2.1864,2.2362,2.2837,2.3167,2.3681,2.4103,2.4584,2.4584,2.5764,2.7825,2.9442,3.2361,3.5367,2.9948,2.7417,2.667,0.0,0.0,0.0,0.0,3.0678,3.3854,3.4248,3.5422,3.6524,3.5702,0.0,0.0,0.0,0.0,0.0,0.0,0.0,3.8695,4.0799,4.3136,4.5188,4.6149,4.7032,4.7733,4.8045,4.6331,4.4071,4.1786,4.1422,4.015,3.5994,3.7085,0.0,0.0,0.0,4.3967,4.6382,4.8382,4.9681,4.994,4.9966,4.9862,4.9603,4.9369,4.8746,4.7603,4.8652,4.9233,4.8731,4.7409,4.4837,0.0,0.0,0.0,0.0,0.0,0.0,0.0,0.0,0.0,0.0,0.0,0.0,0.0,0.0,0.0,0.0,0.0,0.0,0.0,0.0,0.0,0.0,0.0,0.0,0.0,0.0,0.0,0.0,0.0,1.5875,1.6561,0.0,0.0,0.0,0.0,0.0,0.0,0.0,0.0,0.0,0.0,0.0,0.0,0.0,1.8947,1.9489,2.0776,2.1321,2.1373,2.2468,2.3008,2.3048,2.3088,2.3453,2.4252,2.7219,0.0,3.3055,2.8668,0.0,0.0,0.0,0.0,0.0,0.0,0.0,0.0,0.0,0.0,0.0,0.0,0.0,0.0,0.0,0.0,0.0,0.0,0.0,0.0,0.0,0.0,4.3422,4.3422,4.4698,4.5499,4.498,4.1266,3.7968,3.7734,3.7241,3.6076,0.0,0.0,0.0,0.0,0.0,0.0,4.5032,4.7707,4.9499,5.0174,5.0174,4.9914,4.9421,4.885,4.8332,4.7578,4.8899,4.8705,4.6254,4.6978,0.0,0.0,0.0,0.0,0.0,0.0,0.0,0.0,0.0,0.0,0.0,0.0,0.0,0.0,0.0,0.0,0.0,0.0,0.0,0.0,0.0,0.0,0.0,0.0,0.0,0.0,0.0,0.0,0.0,0.0,0.0,0.0,0.0,0.0,0.0,0.0,0.0,0.0,0.0,0.0,0.0,0.0,0.0,0.0,0.0,0.0,0.0,0.0,0.0,0.0,2.0253,2.0701,2.0938,2.1176,2.3403,2.7163,2.6139,2.6418,2.7526,2.5519,0.0,0.0,0.0,0.0,0.0,0.0,0.0,0.0,0.0,0.0,0.0,0.0,0.0,0.0,0.0,0.0,0.0,0.0,0.0,0.0,0.0,0.0,3.8124,3.8124,4.0435,4.1859,3.8436,0.0,0.0,0.0,0.0,0.0,0.0,0.0,0.0,0.0,0.0,0.0,4.1552,4.5188,4.7889,4.8928,4.8616,4.8304,4.82,4.7681,4.8058,4.9785,4.4508,4.4041,0.0,0.0,0.0,0.0,0.0,0.0,0.0,0.0,0.0,0.0,0.0,0.0,0.0,0.0,0.0,0.0,0.0,0.0,0.0,0.0,0.0,0.0,0.0,0.0,0.0,0.0,0.0,0.0,0.0,0.0,0.0,0.0,0.0,0.0,0.0,0.0,0.0,0.0,0.0,0.0,0.0,0.0,0.0,0.0,0.0,0.0,0.0,0.0,0.0,0.0,0.0,0.0,0.0,0.0,0.0,0.0,0.0,0.0,2.2224,2.1246,0.0,0.0,0.0,0.0,0.0,0.0,0.0,0.0,0.0,0.0,0.0,0.0,0.0,0.0,0.0,0.0,0.0,0.0,0.0,0.0,0.0,0.0,0.0,0.0,0.0,0.0,0.0,0.0,0.0,0.0,0.0,0.0,0.0,0.0,0.0,0.0,0.0,0.0,0.0,0.0,3.9812,4.4175,4.7369,4.82,4.833,4.82,4.7771,4.7369,4.7125,4.7147,4.3633,0.0,0.0,0.0,0.0,0.0,0.0,0.0,0.0,0.0,0.0,0.0,0.0,0.0,0.0,0.0,0.0,0.0,0.0,0.0,0.0,0.0,0.0,0.0,0.0,0.0,0.0,0.0,0.0,0.0,0.0,0.0,0.0,0.0,0.0,0.0,0.0,0.0,0.0,0.0,0.0,0.0,0.0,0.0,0.0,0.0,0.0,0.0,0.0,0.0,0.0,0.0,0.0,0.0,0.0,0.0,0.0,0.0,0.0,0.0,1.8077,1.6825,0.0,0.0,0.0,0.0,0.0,0.0,0.0,0.0,0.0,0.0,0.0,0.0,0.0,0.0,0.0,0.0,0.0,0.0,0.0,0.0,0.0,0.0,0.0,0.0,0.0,0.0,0.0,0.0,0.0,0.0,0.0,0.0,0.0,0.0,0.0,0.0,0.0,0.0,0.0,0.0,3.8851,4.3552,4.7006,4.7811,4.8071,4.8071,4.7733,4.7762,4.6969,4.5156,4.3571,0.0,0.0,0.0,0.0,0.0,0.0,0.0,0.0,0.0,0.0,0.0,0.0,0.0,0.0,0.0,0.0,0.0,0.0,0.0,0.0,0.0,0.0,0.0,0.0,0.0,0.0,0.0,0.0,0.0,0.0,0.0,0.0,0.0,0.0,0.0,0.0,0.0,0.0,0.0,0.0,0.0,0.0,0.0,0.0,0.0,0.0,0.0,0.0,0.0,0.0,0.0,0.0,0.0,0.0,0.0,0.0,0.0,0.0,0.0,0.0,0.0,0.0,0.0,0.0,0.0,0.0,0.0,0.0,0.0,0.0,0.0,0.0,0.0,0.0,0.0,0.0,0.0,0.0,0.0,0.0,0.0,0.0,0.0,0.0,0.0,0.0,0.0,0.0,0.0,0.0,0.0,0.0,0.0,0.0,0.0,0.0,0.0,0.0,0.0,0.0,0.0,3.8202,4.2617,4.6123,4.7564,4.7032,4.6642,4.7084,4.904,4.9566,4.808,0.0,0.0,0.0,0.0,0.0,0.0,0.0,0.0,0.0,0.0,0.0,0.0,0.0,0.0,0.0,0.0,0.0,0.0,0.0,0.0,0.0,0.0,0.0,0.0,0.0,0.0,0.0,0.0,0.0,0.0,0.0,0.0,0.0,0.0,0.0,0.0,0.0,0.0,0.0,0.0,0.0,0.0,0.0,0.0,0.0,0.0,0.0,0.0,0.0,0.0,0.0,0.0,0.0,0.0,0.0,0.0,0.0,0.0,0.0,0.0,0.0,0.0,0.0,0.0,0.0,0.0,0.0,0.0,0.0,0.0,0.0,0.0,0.0,0.0,0.0,0.0,0.0,0.0,0.0,0.0,0.0,0.0,0.0,0.0,0.0,0.0,0.0,0.0,0.0,0.0,0.0,0.0,0.0,0.0,0.0,0.0,0.0,0.0,0.0,0.0,0.0,0.0,3.7189,4.2383,4.6123,4.6798,4.6772,4.6668,4.6538,4.678,4.6327,4.4795,0.0,0.0,0.0,0.0,0.0,0.0,0.0,0.0,0.0,0.0,0.0,0.0,0.0,0.0,0.0,0.0,0.0,0.0,0.0,0.0,0.0,0.0,0.0,0.0,0.0,0.0,0.0,0.0,0.0,0.0,0.0,0.0,0.0,0.0,0.0,0.0,0.0,0.0,0.0,0.0,0.0,0.0,0.0,0.0,0.0,0.0,0.0,0.0,0.0,0.0,0.0,0.0,0.0,0.0,0.0,0.0,0.0,0.0,0.0,0.0,0.0,0.0,0.0,0.0,0.0,0.0,0.0,0.0,0.0,0.0,0.0,0.0,0.0,0.0,0.0,0.0,0.0,0.0,0.0,0.0,0.0,0.0,0.0,0.0,0.0,0.0,0.0,0.0,0.0,0.0,0.0,0.0,0.0,0.0,0.0,0.0,0.0,0.0,0.0,0.0,0.0,0.0,3.6566,4.2149,4.6019,4.6175,4.6564,4.6564,4.5993,4.6862,4.5948,4.2158,0.0,0.0,0.0,0.0,0.0,0.0,0.0,0.0,0.0,0.0,0.0,0.0,0.0,0.0,0.0,0.0,0.0,0.0,0.0,0.0,0.0,0.0,0.0,0.0,0.0,0.0,0.0,0.0,0.0,0.0,0.0,0.0,0.0,0.0,0.0,0.0,0.0,0.0,0.0,0.0,0.0,0.0,0.0,0.0,0.0,0.0,0.0,0.0,0.0,0.0,0.0,0.0,0.0,0.0,0.0,0.0,0.0,0.0,0.0,0.0,0.0,0.0,0.0,0.0,0.0,0.0,0.0,0.0,0.0,0.0,0.0,0.0,0.0,0.0,0.0,0.0,0.0,0.0,0.0,0.0,0.0,0.0,0.0,0.0,0.0,0.0,0.0,0.0,0.0,0.0,0.0,0.0,0.0,0.0,0.0,0.0,0.0,0.0,0.0,0.0,0.0,0.0,3.6566,4.1812,4.5577,4.6149,4.6201,4.5993,4.5396,5.0929,5.0596,0.0,0.0,0.0,0.0,0.0,0.0,0.0,0.0,0.0,0.0,0.0,0.0,0.0,0.0,0.0,0.0,0.0,0.0,0.0,0.0,0.0,0.0,0.0,0.0,0.0,0.0,0.0,0.0,0.0,0.0,0.0,0.0,0.0,0.0,0.0,0.0,0.0,0.0,0.0,0.0,0.0,0.0,0.0,0.0,0.0,0.0,0.0,0.0,0.0,0.0,0.0,0.0,0.0,0.0,0.0,0.0,0.0,0.0,0.0,0.0,0.0,0.0,0.0,0.0,0.0,0.0,0.0,0.0,0.0,0.0,0.0,0.0,0.0,0.0,0.0,0.0,0.0,0.0,0.0,0.0,0.0,0.0,0.0,0.0,0.0,0.0,0.0,0.0,0.0,0.0,0.0,0.0,0.0,0.0,0.0,0.0,0.0,0.0,0.0,0.0,0.0,0.0,0.0,3.5787,4.0513,4.4253,4.6019,4.5863,4.6479,4.8506,4.8381,4.7181,4.4732,0.0,0.0,0.0,0.0,0.0,0.0,0.0,0.0,0.0,0.0,0.0,0.0,0.0,0.0,0.0,0.0,0.0,0.0,0.0,0.0,0.0,0.0,0.0,0.0,0.0,0.0,0.0,0.0,0.0,0.0,0.0,0.0,0.0,0.0,0.0,0.0,0.0,0.0,0.0,0.0,0.0,0.0,0.0,0.0,0.0,0.0,0.0,0.0,0.0,0.0,0.0,0.0,0.0,0.0,0.0,0.0,0.0,0.0,0.0,0.0,0.0,0.0,0.0,0.0,0.0,0.0,0.0,0.0,0.0,0.0,0.0,0.0,0.0,0.0,0.0,0.0,0.0,0.0,0.0,0.0,0.0,0.0,0.0,0.0,0.0,0.0,0.0,0.0,0.0,0.0,0.0,0.0,0.0,0.0,0.0,0.0,0.0,0.0,0.0,0.0,0.0,0.0,0.0,4.0228,4.4097,4.511,4.5473,4.662,4.8919,4.8046,4.6749,4.5326,0.0,0.0,0.0,0.0,0.0,0.0,0.0,0.0,0.0,0.0,0.0,0.0,0.0,0.0,0.0,0.0,0.0,0.0,0.0,0.0,0.0,0.0,0.0,0.0,0.0,0.0,0.0,0.0,0.0,0.0,0.0,0.0,0.0,0.0,0.0,0.0,0.0,0.0,0.0,0.0,0.0,0.0,0.0,0.0,0.0,0.0,0.0,0.0,0.0,0.0,0.0,0.0,0.0,0.0,0.0,0.0,0.0,0.0,0.0,0.0,0.0,0.0,0.0,0.0,0.0,0.0,0.0,0.0,0.0,0.0,0.0,0.0,0.0,0.0,0.0,0.0,0.0,0.0,0.0,0.0,0.0,0.0,0.0,0.0,0.0,0.0,0.0,0.0,0.0,0.0,0.0,0.0,0.0,0.0,0.0,0.0,0.0,0.0,0.0,0.0,0.0,0.0,0.0,4.0591,4.4616,4.3682,4.5006,4.6513,4.7577,4.9602,4.8812,4.4408,4.2999,0.0,0.0,0.0,0.0,0.0,0.0,0.0,0.0,0.0,0.0,0.0,0.0,0.0,0.0,0.0,0.0,0.0,0.0,0.0,0.0,0.0,0.0,0.0,0.0,0.0,0.0,0.0,0.0,0.0,0.0,0.0,0.0,0.0,0.0,0.0,0.0,0.0,0.0,0.0,0.0,0.0,0.0,0.0,0.0,0.0,0.0,0.0,0.0,0.0,0.0,0.0,0.0,0.0,0.0,0.0,0.0,0.0,0.0,0.0,0.0,0.0,0.0,0.0,0.0,0.0,0.0,0.0,0.0,0.0,0.0,0.0,0.0,0.0,0.0,0.0,0.0,0.0,0.0,0.0,0.0,0.0,0.0,0.0,0.0,0.0,0.0,0.0,0.0,0.0,0.0,0.0,0.0,0.0,0.0,0.0,0.0,0.0,0.0,0.0,0.0,0.0,0.0,3.95,4.1968,4.3422,4.3552,4.54,4.9695,4.9216,4.8115,4.6678,4.2834,0.0,0.0,0.0,0.0,0.0,0.0,0.0,0.0,0.0,0.0,0.0,0.0,0.0,0.0,0.0,0.0,0.0,0.0,0.0,0.0,0.0,0.0,0.0,0.0,0.0,0.0,0.0,0.0,0.0,0.0,0.0,0.0,0.0,0.0,0.0,0.0,0.0,0.0,0.0,0.0,0.0,0.0,0.0,0.0,0.0,0.0,0.0,0.0,0.0,0.0,0.0,0.0,0.0,0.0,0.0,0.0,0.0,0.0,0.0,0.0,0.0,0.0,0.0,0.0,0.0,0.0,0.0,0.0,0.0,0.0,0.0,0.0,0.0,0.0,0.0,0.0,0.0,0.0,0.0,0.0,0.0,0.0,0.0,0.0,0.0,0.0,0.0,0.0,0.0,0.0,0.0,0.0,0.0,0.0,0.0,0.0,0.0,0.0,0.0,0.0,0.0,0.0,3.5008,3.7838,4.1968,4.3624,4.5909,4.9839,4.9444,4.8433,4.7037,4.218,0.0,0.0,0.0,0.0,0.0,0.0,0.0,0.0,0.0,0.0,0.0,0.0,0.0,0.0,0.0,0.0,0.0,0.0,0.0,0.0,0.0,0.0,0.0,0.0,0.0,0.0,0.0,0.0,0.0,0.0,0.0,0.0,0.0,0.0,0.0,0.0,0.0,0.0,0.0,0.0,0.0,0.0,0.0,0.0,0.0,0.0,0.0,0.0,0.0,0.0,0.0,0.0,0.0,0.0,0.0,0.0,0.0,0.0,0.0,0.0,0.0,0.0,0.0,0.0,0.0,0.0,0.0,0.0,0.0,0.0,0.0,0.0,0.0,0.0,0.0,0.0,0.0,0.0,0.0,0.0,0.0,0.0,0.0,0.0,0.0,0.0,0.0,0.0,0.0,0.0,0.0,0.0,0.0,0.0,0.0,0.0,0.0,0.0,0.0,0.0,0.0,0.0,0.0,3.4177,3.9786,4.3698,4.6638,4.8523,4.9645,4.9015,4.5878,0.0,0.0,0.0,0.0,0.0,0.0,0.0,0.0,0.0,0.0,0.0,0.0,0.0,0.0,0.0,0.0,0.0,0.0,0.0,0.0,0.0,0.0,0.0,0.0,0.0,0.0,0.0,0.0,0.0,0.0,0.0,0.0,0.0,0.0,0.0,0.0,0.0,0.0,0.0,0.0,0.0,0.0,0.0,0.0,0.0,0.0,0.0,0.0,0.0,0.0,0.0,0.0,0.0,0.0,0.0,0.0,0.0,0.0,0.0,0.0,0.0,0.0,0.0,0.0,0.0,0.0,0.0,0.0,0.0,0.0,0.0,0.0,0.0,0.0,0.0,0.0,0.0,0.0,0.0,0.0,0.0,0.0,0.0,0.0,0.0,0.0,0.0,0.0,0.0,0.0,0.0,0.0,0.0,0.0,0.0,0.0,0.0,0.0,0.0,0.0,0.0,0.0,0.0,0.0,3.4722,3.7189,4.1406,4.474,4.6256,4.877,4.8302,4.3458,0.0,0.0,0.0,0.0,0.0,0.0,0.0,0.0,0.0,0.0,0.0,0.0,0.0,0.0]}]]]